[[{"header":{"parameterUnit":"m.s-1","parameterCategory":1,"la1":30.6,"la2":28.766,"lo1":-90.7593,"lo2":-88.6598,"dy":0.0162,"dx":0.0183,"nx":116,"ny":114,"refTime":"2023-06-19T06:00:00:Z","depth":0,"parameterNumber":2,"parameterNumberName":"U-component_of_WINDS"},"data":[0.0,0.0,0.0,0.0,0.0,0.0,0.0,0.0,0.0,0.0,0.0,0.0,0.0,0.0,0.0,0.0,0.0,0.0,0.0,0.0,0.0,0.0,0.0,0.0,0.0,0.0,0.0,0.0,0.0,0.0,0.0,0.0,0.0,0.0,0.0,0.0,0.0,0.0,0.0,0.0,0.0,0.0,0.0,0.0,0.0,0.0,0.0,0.0,0.0,0.0,0.0,0.0,0.0,0.0,0.0,0.0,0.0,0.0,0.0,0.0,0.0,0.0,0.0,0.0,0.0,0.0,0.0,0.0,0.0,0.0,0.0,0.0,0.0,0.0,0.0,0.0,0.0,0.0,0.0,0.0,0.0,0.0,0.0,0.0,0.0,0.0,0.0,0.0,0.0,0.0,0.0,0.0,0.0,0.0,0.0,0.0,0.0,0.0,0.0,0.0,0.0,0.0,0.0,0.0,0.0,0.0,0.0,0.0,0.0,0.0,0.0,0.0,0.0,0.0,0.0,0.0,0.0,0.0,0.0,0.0,0.0,0.0,0.0,0.0,0.0,0.0,0.0,0.0,0.0,0.0,0.0,0.0,0.0,0.0,0.0,0.0,0.0,0.0,0.0,0.0,0.0,0.0,0.0,0.0,0.0,0.0,0.0,0.0,0.0,0.0,0.0,0.0,0.0,0.0,0.0,0.0,0.0,0.0,0.0,0.0,0.0,0.0,0.0,0.0,0.0,0.0,0.0,0.0,0.0,0.0,0.0,0.0,0.0,0.0,0.0,0.0,0.0,0.0,0.0,0.0,0.0,0.0,0.0,0.0,0.0,0.0,0.0,0.0,0.0,0.0,0.0,0.0,0.0,0.0,0.0,0.0,0.0,0.0,0.0,0.0,0.0,0.0,0.0,0.0,0.0,0.0,0.0,0.0,0.0,0.0,0.0,0.0,0.0,0.0,0.0,0.0,0.0,0.0,0.0,0.0,0.0,0.0,0.0,0.0,0.0,0.0,0.0,0.0,0.0,0.0,0.0,0.0,0.0,0.0,0.0,0.0,0.0,0.0,0.0,0.0,0.0,0.0,0.0,0.0,0.0,0.0,0.0,0.0,0.0,0.0,0.0,0.0,0.0,0.0,0.0,0.0,0.0,0.0,0.0,0.0,0.0,0.0,0.0,0.0,0.0,0.0,0.0,0.0,0.0,0.0,0.0,0.0,0.0,0.0,0.0,0.0,0.0,0.0,0.0,0.0,0.0,0.0,0.0,0.0,0.0,0.0,0.0,0.0,0.0,0.0,0.0,0.0,0.0,0.0,0.0,0.0,0.0,0.0,0.0,0.0,0.0,0.0,0.0,0.0,0.0,0.0,0.0,0.0,0.0,0.0,0.0,0.0,0.0,0.0,0.0,0.0,0.0,0.0,0.0,0.0,0.0,0.0,0.0,0.0,0.0,0.0,0.0,0.0,0.0,0.0,0.0,0.0,0.0,0.0,0.0,0.0,0.0,0.0,0.0,0.0,0.0,0.0,0.0,0.0,0.0,0.0,0.0,0.0,0.0,0.0,0.0,0.0,0.0,0.0,0.0,0.0,0.0,0.0,0.0,0.0,0.0,0.0,0.0,0.0,0.0,0.0,0.0,0.0,0.0,0.0,0.0,0.0,0.0,0.0,0.0,0.0,0.0,0.0,0.0,0.0,0.0,0.0,0.0,0.0,0.0,0.0,0.0,0.0,0.0,0.0,0.0,0.0,0.0,0.0,0.0,0.0,0.0,0.0,0.0,0.0,0.0,0.0,0.0,0.0,0.0,0.0,0.0,0.0,0.0,0.0,0.0,0.0,0.0,0.0,0.0,0.0,0.0,0.0,0.0,0.0,0.0,0.0,0.0,0.0,0.0,0.0,0.0,0.0,0.0,0.0,0.0,0.0,0.0,0.0,0.0,0.0,0.0,0.0,0.0,0.0,0.0,0.0,0.0,0.0,0.0,0.0,0.0,0.0,0.0,0.0,0.0,0.0,0.0,0.0,0.0,0.0,0.0,0.0,0.0,0.0,0.0,0.0,0.0,0.0,0.0,0.0,0.0,0.0,0.0,0.0,0.0,0.0,0.0,0.0,0.0,0.0,0.0,0.0,0.0,0.0,0.0,0.0,0.0,0.0,0.0,0.0,0.0,0.0,0.0,0.0,0.0,0.0,0.0,0.0,0.0,0.0,0.0,0.0,0.0,0.0,0.0,0.0,0.0,0.0,0.0,0.0,0.0,0.0,0.0,0.0,0.0,0.0,0.0,0.0,0.0,0.0,0.0,0.0,0.0,0.0,0.0,0.0,0.0,0.0,0.0,0.0,0.0,0.0,0.0,0.0,0.0,0.0,0.0,0.0,0.0,0.0,0.0,0.0,0.0,0.0,0.0,0.0,0.0,0.0,0.0,0.0,0.0,0.0,0.0,0.0,0.0,0.0,0.0,0.0,0.0,0.0,0.0,0.0,0.0,0.0,0.0,0.0,0.0,0.0,0.0,0.0,0.0,0.0,0.0,0.0,0.0,0.0,0.0,0.0,0.0,0.0,0.0,0.0,0.0,0.0,0.0,0.0,0.0,0.0,0.0,0.0,0.0,0.0,0.0,0.0,0.0,0.0,0.0,0.0,0.0,0.0,0.0,0.0,0.0,0.0,0.0,0.0,0.0,0.0,0.0,0.0,0.0,0.0,0.0,0.0,0.0,0.0,0.0,0.0,0.0,0.0,0.0,0.0,0.0,0.0,0.0,0.0,0.0,0.0,0.0,0.0,0.0,0.0,0.0,0.0,0.0,0.0,0.0,0.0,0.0,0.0,0.0,0.0,0.0,0.0,0.0,0.0,0.0,0.0,0.0,0.0,0.0,0.0,0.0,0.0,0.0,0.0,0.0,0.0,0.0,0.0,0.0,0.0,0.0,0.0,0.0,0.0,0.0,0.0,0.0,0.0,0.0,0.0,0.0,0.0,0.0,0.0,0.0,0.0,0.0,0.0,0.0,0.0,0.0,0.0,0.0,0.0,0.0,0.0,0.0,0.0,0.0,0.0,0.0,0.0,0.0,0.0,0.0,0.0,0.0,0.0,0.0,0.0,0.0,0.0,0.0,0.0,0.0,0.0,0.0,0.0,0.0,0.0,0.0,0.0,0.0,0.0,0.0,0.0,0.0,0.0,0.0,0.0,0.0,0.0,0.0,0.0,0.0,0.0,0.0,0.0,0.0,0.0,0.0,0.0,0.0,0.0,0.0,0.0,0.0,0.0,0.0,0.0,0.0,0.0,0.0,0.0,0.0,0.0,0.0,0.0,0.0,0.0,0.0,0.0,0.0,0.0,0.0,0.0,0.0,0.0,0.0,0.0,0.0,0.0,0.0,0.0,0.0,0.0,0.0,0.0,0.0,0.0,0.0,0.0,0.0,0.0,0.0,0.0,0.0,0.0,0.0,0.0,0.0,0.0,0.0,0.0,0.0,0.0,0.0,0.0,0.0,0.0,0.0,0.0,0.0,0.0,0.0,0.0,0.0,0.0,0.0,0.0,0.0,0.0,0.0,0.0,0.0,0.0,0.0,0.0,0.0,0.0,0.0,0.0,0.0,0.0,0.0,0.0,0.0,0.0,0.0,0.0,0.0,0.0,0.0,0.0,0.0,0.0,0.0,0.0,0.0,0.0,0.0,0.0,0.0,0.0,0.0,0.0,0.0,0.0,0.0,0.0,0.0,0.0,0.0,0.0,0.0,0.0,0.0,0.0,0.0,0.0,0.0,0.0,0.0,0.0,0.0,0.0,0.0,0.0,0.0,0.0,0.0,0.0,0.0,0.0,0.0,0.0,0.0,0.0,0.0,0.0,0.0,0.0,0.0,0.0,0.0,0.0,0.0,0.0,0.0,0.0,0.0,0.0,0.0,0.0,0.0,0.0,0.0,0.0,0.0,0.0,0.0,0.0,0.0,0.0,0.0,0.0,0.0,0.0,0.0,0.0,0.0,0.0,0.0,0.0,0.0,0.0,0.0,0.0,0.0,0.0,0.0,0.0,0.0,0.0,0.0,0.0,0.0,0.0,0.0,0.0,0.0,0.0,0.0,0.0,0.0,0.0,0.0,0.0,0.0,0.0,0.0,0.0,0.0,0.0,0.0,0.0,0.0,0.0,0.0,0.0,0.0,0.0,0.0,0.0,0.0,0.0,0.0,0.0,0.0,0.0,0.0,0.0,0.0,0.0,0.0,0.0,0.0,0.0,0.0,0.0,0.0,0.0,0.0,0.0,0.0,0.0,0.0,0.0,0.0,0.0,0.0,0.0,0.0,0.0,0.0,0.0,0.0,0.0,0.0,0.0,0.0,0.0,0.0,0.0,0.0,0.0,0.0,0.0,0.0,0.0,0.0,0.0,0.0,0.0,0.0,0.0,0.0,0.0,0.0,0.0,0.0,0.0,0.0,0.0,0.0,0.0,0.0,0.0,0.0,0.0,0.0,0.0,0.0,0.0,0.0,0.0,0.0,0.0,0.0,0.0,0.0,0.0,0.0,0.0,0.0,0.0,0.0,0.0,0.0,0.0,0.0,0.0,0.0,0.0,0.0,0.0,0.0,0.0,0.0,0.0,0.0,0.0,0.0,0.0,0.0,0.0,0.0,0.0,0.0,0.0,0.0,0.0,0.0,0.0,0.0,0.0,0.0,0.0,0.0,0.0,0.0,0.0,0.0,0.0,0.0,0.0,0.0,0.0,0.0,0.0,0.0,0.0,0.0,0.0,0.0,0.0,0.0,0.0,0.0,0.0,0.0,0.0,0.0,0.0,0.0,0.0,0.0,0.0,0.0,0.0,0.0,0.0,0.0,0.0,0.0,0.0,0.0,0.0,0.0,0.0,0.0,0.0,0.0,0.0,0.0,0.0,0.0,0.0,0.0,0.0,0.0,0.0,0.0,0.0,0.0,0.0,0.0,0.0,0.0,0.0,0.0,0.0,0.0,0.0,0.0,0.0,0.0,0.0,0.0,0.0,0.0,0.0,0.0,0.0,0.0,0.0,0.0,0.0,0.0,0.0,0.0,0.0,0.0,0.0,0.0,0.0,0.0,0.0,0.0,0.0,0.0,0.0,0.0,0.0,0.0,0.0,0.0,0.0,0.0,0.0,0.0,0.0,0.0,0.0,0.0,0.0,0.0,0.0,0.0,0.0,0.0,0.0,0.0,0.0,0.0,0.0,0.0,0.0,0.0,0.0,0.0,0.0,0.0,0.0,0.0,0.0,0.0,0.0,0.0,0.0,0.0,0.0,0.0,0.0,0.0,0.0,0.0,0.0,0.0,0.0,0.0,0.0,0.0,0.0,0.0,0.0,0.0,0.0,0.0,0.0,0.0,0.0,0.0,0.0,0.0,0.0,0.0,0.0,0.0,0.0,0.0,0.0,0.0,0.0,0.0,0.0,0.0,0.0,0.0,0.0,0.0,0.0,0.0,0.0,0.0,0.0,0.0,0.0,0.0,0.0,0.0,0.0,0.0,0.0,0.0,0.0,0.0,0.0,0.0,0.0,0.0,0.0,0.0,0.0,0.0,0.0,0.0,0.0,0.0,0.0,0.0,0.0,0.0,0.0,0.0,0.0,0.0,0.0,0.0,0.0,0.0,0.0,0.0,0.0,0.0,0.0,0.0,0.0,0.0,0.0,0.0,0.0,0.0,0.0,0.0,0.0,0.0,0.0,0.0,0.0,0.0,0.0,0.0,0.0,0.0,0.0,0.0,0.0,0.0,0.0,0.0,0.0,0.0,0.0,0.0,0.0,0.0,0.0,0.0,0.0,0.0,0.0,0.0,0.0,0.0,0.0,0.0,0.0,0.0,0.0,0.0,0.0,0.0,0.0,0.0,0.0,0.0,0.0,0.0,0.0,0.0,0.0,0.0,0.0,0.0,0.0,0.0,0.0,0.0,0.0,0.0,0.0,0.0,0.0,0.0,0.0,0.0,0.0,0.0,0.0,0.0,0.0,0.0,0.0,0.0,0.0,0.0,0.0,0.0,0.0,0.0,0.0,0.0,0.0,0.0,0.0,0.0,0.0,0.0,0.0,0.0,0.0,0.0,0.0,0.0,0.0,0.0,0.0,0.0,0.0,0.0,0.0,-1.1755,-1.2926,0.0,0.0,0.0,0.0,0.0,0.0,0.0,0.0,0.0,0.0,0.0,0.0,0.0,0.0,0.0,0.0,0.0,0.0,0.0,0.0,0.0,0.0,0.0,0.0,0.0,0.0,0.0,0.0,0.0,0.0,0.0,0.0,0.0,0.0,0.0,0.0,0.0,0.0,0.0,0.0,0.0,0.0,0.0,0.0,0.0,0.0,0.0,0.0,0.0,0.0,0.0,0.0,0.0,0.0,0.0,0.0,0.0,0.0,0.0,0.0,0.0,0.0,0.0,0.0,0.0,0.0,0.0,0.0,0.0,0.0,0.0,0.0,0.0,0.0,0.0,0.0,0.0,0.0,0.0,0.0,0.0,0.0,0.0,0.0,0.0,0.0,0.0,0.0,0.0,0.0,0.0,0.0,0.0,0.0,0.0,0.0,0.0,0.0,0.0,0.0,0.0,0.0,0.0,0.0,0.0,0.0,0.0,0.0,0.0,0.0,0.0,0.0,0.0,0.0,-1.1072,-1.1658,0.0,0.0,0.0,0.0,0.0,0.0,0.0,0.0,0.0,0.0,0.0,0.0,0.0,0.0,0.0,0.0,0.0,0.0,0.0,0.0,0.0,0.0,0.0,0.0,0.0,0.0,0.0,0.0,0.0,0.0,0.0,0.0,0.0,0.0,0.0,0.0,0.0,0.0,0.0,0.0,0.0,0.0,0.0,0.0,0.0,0.0,0.0,0.0,0.0,0.0,0.0,0.0,0.0,0.0,0.0,0.0,0.0,0.0,0.0,0.0,0.0,0.0,0.0,0.0,0.0,0.0,0.0,0.0,0.0,0.0,0.0,0.0,0.0,0.0,0.0,0.0,0.0,0.0,0.0,0.0,0.0,0.0,0.0,0.0,0.0,0.0,0.0,0.0,0.0,0.0,0.0,0.0,0.0,0.0,0.0,0.0,0.0,0.0,0.0,0.0,0.0,0.0,0.0,0.0,0.0,0.0,0.0,0.0,-1.0728,-1.071,-1.0775,-1.0678,-1.0192,-0.9514,-1.029,-1.0232,-0.9706,-1.1463,0.0,0.0,0.0,0.0,0.0,0.0,0.0,0.0,0.0,0.0,0.0,0.0,0.0,0.0,0.0,0.0,0.0,0.0,0.0,0.0,0.0,0.0,0.0,0.0,0.0,0.0,0.0,0.0,0.0,0.0,0.0,0.0,0.0,0.0,0.0,0.0,0.0,0.0,0.2567,0.2421,0.2669,0.3121,0.0,0.0,0.0,0.0,0.0,0.0,0.0,0.0,0.0,0.0,0.0,0.0,0.0,0.0,0.0,0.0,0.0,0.0,0.0,0.0,0.0,0.0,0.0,0.0,0.0,0.0,0.0,0.0,0.0,0.0,0.0,0.0,0.0,0.0,0.0,0.0,0.0,0.0,0.0,0.0,0.0,0.0,0.0,0.0,-0.7577,-0.7597,0.0,0.0,0.0,0.0,0.0,0.0,0.0,0.0,0.0,0.0,0.0,0.0,0.0,-1.2339,-1.2145,-1.0877,-1.0117,-0.9962,-0.8802,-0.863,-0.9235,-0.8404,-0.8404,-0.9051,-0.8404,0.0,-0.9608,-0.9899,0.0,0.0,0.0,0.0,0.0,0.0,0.0,0.0,0.0,0.0,0.0,0.0,0.0,0.0,0.0,0.0,0.0,0.0,0.0,0.0,0.0,0.0,0.0,0.0,0.0,0.0,0.0,0.0,0.0,0.0,0.0,0.0,0.0,0.0,0.0,0.0,0.2348,0.2551,0.3025,0.3127,0.3351,0.3637,0.3272,0.3385,0.3869,0.314,0.0,0.0,0.0,0.0,0.0,0.0,0.0,0.0,0.0,0.0,0.0,0.0,0.0,0.0,0.0,0.0,0.0,0.0,0.0,0.0,0.0,0.0,0.0,0.0,0.0,0.0,0.0,0.0,0.0,0.0,0.0,0.0,0.0,0.0,0.0,0.0,0.0,0.0,0.0,-0.7887,-0.8419,-0.928,-0.9752,-1.0167,0.0,0.0,0.0,0.0,0.0,0.0,0.0,0.0,0.0,-1.1658,-1.1448,-1.0904,-1.0233,-0.9456,-0.8989,-0.8918,-0.8721,-0.8867,-0.9165,-0.9173,-0.9359,-0.9727,-0.9359,-0.9169,-0.9315,-0.9413,-1.0095,-1.0974,0.0,0.0,0.0,0.0,-1.3022,-1.3414,0.0,0.0,0.0,0.0,0.0,0.0,0.0,0.0,0.0,0.0,0.0,0.0,0.0,0.0,0.0,0.9646,0.0,0.0,0.0,0.0,0.0,0.0,0.0,0.0,0.0,0.0,0.0,0.0,0.2484,0.282,0.3431,0.356,0.3627,0.35,0.4046,0.448,0.477,0.4911,0.3599,0.0,0.0,0.0,0.0,0.0,0.0,0.0,0.0,0.0,0.0,0.0,0.0,0.0,0.0,0.0,0.0,0.0,0.0,0.0,0.0,0.0,0.0,0.0,0.0,0.0,0.0,0.0,0.0,0.0,0.0,0.0,0.0,0.0,0.0,0.0,0.0,0.0,0.0,-0.875,-0.9217,-1.0194,-1.0391,-1.0583,0.0,0.0,0.0,0.0,0.0,0.0,-1.2339,-1.2339,-1.1731,-1.0515,-1.0184,-0.9714,-0.8722,-0.8404,-0.8408,-0.8644,-0.9007,-0.9434,-0.9844,-1.0122,-1.04,-1.0582,-1.04,-0.988,-0.9292,-0.9571,-0.9636,-0.9672,-1.0979,-1.1443,-1.15,-1.2325,-1.2699,-1.2936,0.0,0.0,0.0,0.0,0.0,0.0,0.0,0.0,0.0,0.0,0.0,0.0,0.0,0.0,1.064,0.9837,0.9192,0.8678,0.0,0.0,0.0,0.0,0.0,0.0,0.0,0.0,0.0,0.3159,0.3159,0.3159,0.3226,0.3226,0.3295,0.3498,0.3766,0.3966,0.4305,0.476,0.4868,0.4495,0.0,0.0,0.0,0.0,0.0,0.0,0.0,0.0,0.0,0.0,0.0,0.0,0.0,0.0,0.0,0.0,0.0,0.0,0.0,0.0,0.0,0.0,0.0,0.0,0.0,0.0,0.0,0.0,0.0,0.0,0.0,0.0,0.0,0.0,0.0,0.0,0.0,0.0,0.0,-0.9019,-0.9801,0.0,0.0,0.0,0.0,-1.263,-1.2635,-1.2242,-1.1365,-1.1268,-1.0697,-0.9468,-0.9168,-0.9088,-0.9112,-0.8531,-0.8717,-0.9457,-0.9186,-0.9803,-1.1186,-1.0304,-1.0396,-1.1186,-1.0304,-0.9986,-1.0187,-1.0306,-0.9935,-0.9405,-1.1462,-1.2165,-1.2081,-1.2218,-1.2822,-1.3276,0.0,0.0,0.0,0.0,0.0,0.0,0.0,0.0,0.0,0.0,0.0,0.0,0.0,1.0856,1.0975,1.004,0.9506,0.8796,0.7837,0.0,0.0,0.0,0.0,0.0,0.0,0.0,0.3226,0.3226,0.3226,0.3226,0.3226,0.3362,0.3431,0.3498,0.3828,0.4024,0.4139,0.3419,0.3207,0.3262,0.1555,-0.1492,0.0,0.0,0.0,0.0,0.0,0.0,0.0,0.0,0.0,0.0,0.0,0.0,0.0,0.0,0.0,0.0,0.0,0.0,0.0,0.0,0.0,0.0,0.0,0.0,0.0,0.0,0.0,0.0,0.0,0.0,0.0,0.0,0.0,0.0,0.0,0.0,0.0,-0.9998,-1.0293,0.0,-1.0974,-1.1463,-1.1468,-1.0792,-1.0694,-1.0596,-1.0207,-1.0091,-0.9799,-0.9452,-0.9039,-0.8798,-0.8742,-0.8984,-0.8889,-0.8472,-1.005,-1.0712,-1.0636,-1.1402,-1.1923,-1.2186,-1.1837,-1.1365,-1.0927,-1.1625,-1.1125,-1.0014,-1.0827,-1.1086,-1.1119,-1.1754,-1.22,-1.2495,0.0,0.0,0.0,0.0,0.0,0.0,0.0,0.0,0.0,0.0,0.0,1.1108,1.0737,1.1358,1.1358,1.0104,0.9366,0.8463,0.7316,0.0,0.0,0.0,0.0,0.0,0.0,0.3293,0.3226,0.3226,0.3226,0.3226,0.3226,0.3429,0.3565,0.3629,0.3894,0.4159,0.4346,0.3526,0.2876,0.2416,0.1475,-0.0628,-0.3222,0.0,0.0,0.0,0.0,0.0,0.0,0.0,0.0,0.0,0.0,0.0,0.0,0.0,0.0,0.0,0.0,0.0,0.0,0.0,0.0,0.0,0.0,0.0,0.0,0.0,0.0,0.0,0.0,0.0,0.0,0.0,0.0,0.0,0.0,-0.9083,-0.9414,-1.0203,-1.0105,-1.0203,-1.0592,-1.069,-1.04,-0.9624,-0.9628,-0.9628,-0.9628,-0.9453,-0.9328,-0.9271,-0.8974,-0.8882,-0.8999,-0.9407,-0.951,-0.9331,-1.089,-1.1499,-1.1154,-1.2186,-1.2705,-1.2705,-1.2705,-1.2357,-1.1843,-1.2443,-1.2122,-1.1171,-1.1247,-1.0864,-1.0353,-1.1796,-1.2226,-1.2243,0.0,0.0,0.0,0.0,0.0,0.0,0.0,0.0,0.0,0.0,1.1593,1.1896,1.1545,1.2112,1.1787,1.0142,0.8709,0.7618,0.6854,0.4337,0.0,0.0,0.0,0.0,0.4028,0.3493,0.3226,0.3293,0.3226,0.3226,0.3226,0.3429,0.3629,0.3825,0.3961,0.4295,0.4839,0.5123,0.4201,0.2477,0.1238,0.0627,0.0236,0.0,0.0,0.0,0.0,0.0,0.0,0.0,0.0,0.0,0.0,0.0,0.0,0.0,0.0,0.0,0.0,0.0,0.0,0.0,0.0,0.0,0.0,0.0,0.0,0.0,0.0,0.0,0.0,0.0,0.0,0.0,0.0,0.0,-1.0092,-1.0263,-1.0002,-0.9232,-0.9232,-0.9327,-0.9529,-0.9616,-0.9612,-0.962,-0.9616,-0.9612,-0.962,-0.9441,-0.9263,-0.91,-0.8909,-0.9174,-0.9859,-0.9772,-1.0463,-1.1929,-1.1757,-1.21,-1.2619,-1.2705,-1.2705,-1.2705,-1.2705,-1.2705,-1.2705,-1.2705,-1.2705,-1.2735,-1.3,-1.1789,-1.0212,-1.23,-1.294,-1.2705,0.0,0.0,0.0,0.0,0.0,0.0,0.0,0.0,0.0,0.0,1.1608,1.1794,1.174,1.2112,1.1608,0.9767,0.8463,0.7024,0.5256,0.0,0.0,0.0,0.0,0.0,0.4948,0.4353,0.4353,0.5147,0.4154,0.3889,0.435,0.3892,0.3828,0.3961,0.4164,0.4483,0.4968,0.5147,0.499,0.4642,0.3826,0.2353,0.0628,0.0,0.0,0.0,0.0,0.0,0.0,0.0,0.0,0.0,0.0,0.0,0.0,0.0,0.0,0.0,0.0,0.0,0.0,0.0,0.0,0.0,0.0,0.0,0.0,0.0,0.0,0.0,0.0,0.0,0.0,0.0,-0.8762,-0.8164,-0.8464,-0.8623,-0.8726,-0.8928,-0.8826,-0.8999,-0.9517,-0.9393,-0.9295,-0.9421,-0.9315,-0.9299,-0.9425,-0.9137,-0.9007,-0.9096,-0.9418,-0.9648,-0.9671,-1.0804,-1.1149,-1.0794,-1.1923,-1.2186,-1.1671,-1.2357,-1.2705,-1.2705,-1.2705,-1.2705,-1.2705,-1.2705,-1.2272,-1.1763,-1.2531,-1.2422,-1.2015,-1.2617,-1.2771,-1.2705,0.0,0.0,0.0,0.0,0.0,0.0,0.0,0.0,0.0,0.0,1.1732,1.1934,1.2182,1.2243,1.1476,0.9448,0.8264,0.6828,0.5005,0.0,0.0,0.0,0.0,0.5401,0.5935,0.5342,0.5338,0.5997,0.5272,0.4878,0.4951,0.4686,0.4422,0.4295,0.4549,0.4893,0.5381,0.5507,0.5816,0.6109,0.5724,0.407,0.1799,0.0941,-0.0157,-0.1253,-0.1565,-0.1642,-0.1721,-0.2427,0.0,0.0,0.0,0.0,0.0,0.0,0.0,0.0,0.0,0.0,0.0,0.0,0.0,0.0,0.0,0.0,0.0,0.0,0.0,0.0,0.0,0.0,0.0,0.0,-0.8332,-0.7533,-0.7614,-0.7852,-0.8143,-0.8523,-0.8638,-0.881,-0.93,-0.9592,-0.9694,-0.9892,-0.9712,-0.9881,-1.0453,-0.9793,-0.9587,-1.0159,-1.0288,-1.0458,-1.0799,-1.1494,-1.1752,-1.1483,-1.2272,-1.2443,-1.1929,-1.2443,-1.2705,-1.2705,-1.2705,-1.2705,-1.2705,-1.2705,-1.2357,-1.1929,0.0,0.0,0.0,0.0,-1.2705,-1.2705,0.0,0.0,0.0,0.0,0.0,0.0,0.0,0.0,0.0,0.0,0.0,1.2112,1.2805,1.2552,1.1469,0.9372,0.8125,0.6898,0.0,0.0,0.0,0.6392,0.6117,0.631,0.712,0.6588,0.6384,0.6449,0.651,0.6125,0.5348,0.555,0.5296,0.4718,0.5024,0.544,0.5902,0.6103,0.6414,0.6902,0.6821,0.5467,0.3348,0.1488,0.0471,-0.0079,-0.0629,-0.0864,-0.0943,-0.1493,0.0,0.0,0.0,0.0,0.0,0.0,0.0,0.0,0.0,0.0,0.0,0.0,0.0,0.0,0.0,0.0,0.0,0.0,0.0,0.0,0.0,0.0,0.0,0.0,-0.7878,-0.7346,-0.7346,-0.7646,-0.802,-0.8239,-0.8509,-0.8784,-0.9185,-0.9978,-1.0504,-1.0619,-1.06,-1.0963,-1.1807,-1.0865,0.0,0.0,0.0,-1.1499,-1.2363,-1.202,-1.2277,-1.3137,-1.279,-1.2705,-1.2705,-1.2705,-1.2705,-1.2705,-1.2705,-1.2705,-1.2705,-1.2705,-1.2619,-1.2528,-1.2619,-1.2186,-1.1585,-1.2357,-1.2705,-1.2705,0.0,0.0,0.0,0.0,0.0,0.0,0.0,0.0,0.0,1.1826,1.2097,1.2482,1.3147,1.2789,1.1911,1.0584,0.8971,0.7428,0.0,0.0,0.7154,0.8229,0.8192,0.8301,0.856,0.7962,0.7962,0.8678,0.7567,0.6981,0.6789,0.6272,0.5818,0.5391,0.5652,0.5956,0.6302,0.6458,0.6685,0.6821,0.6103,0.5251,0.4408,0.4021,0.3071,0.1965,0.1808,0.1729,0.165,0.11,0.0707,0.0239,-0.1135,0.0,0.0,0.0,0.0,0.0,0.0,0.0,0.0,0.0,0.0,0.0,0.0,0.0,0.0,0.0,0.0,0.0,0.0,0.0,0.0,-0.854,-0.7782,-0.7183,-0.7183,-0.721,-0.7497,-0.8214,-0.8229,-0.875,-1.0093,-1.0083,-1.0396,-1.1279,-1.1217,-1.1279,-1.1636,-1.134,-1.1128,-1.13,-1.1793,-1.2106,-1.21,-1.2619,-1.2881,-1.3137,-1.279,0.0,-1.2705,-1.2705,-1.2705,-1.2705,-1.2705,-1.2705,-1.2705,-1.2705,-1.2272,-1.1671,-1.2357,-1.2619,-1.2443,-1.2619,-1.2705,-1.2705,0.0,0.0,0.0,0.0,0.0,0.0,0.0,0.0,0.0,0.0,1.108,1.1392,1.2413,1.2236,1.1545,1.0268,0.8924,0.0,0.0,0.8286,0.9191,1.0358,1.0458,1.0382,1.0148,0.9812,0.9691,0.9786,0.9069,0.8544,0.8086,0.7697,0.7154,0.6398,0.6547,0.6802,0.7012,0.7138,0.7421,0.7756,0.735,0.681,0.6119,0.4636,0.3614,0.2904,0.2589,0.2511,0.2431,0.2117,0.1882,0.1508,0.0595,-0.0523,-0.1495,0.0,0.0,0.0,0.0,0.0,0.0,0.0,0.0,0.0,0.0,0.0,0.0,0.0,0.0,-0.7834,-0.8532,0.0,-0.8093,-0.7669,-0.7316,-0.7139,-0.7139,-0.7139,-0.746,-0.8521,-0.8645,-0.9161,-1.0602,-1.103,-1.1462,-1.2099,-1.1997,-1.2066,-1.262,-1.2169,-1.1986,-1.2279,-1.2599,-1.2711,-1.2534,-1.279,-1.2881,-1.2881,-1.279,-1.2705,-1.2705,-1.2705,-1.2705,-1.2705,-1.2705,-1.2705,-1.2705,-1.2705,-1.2443,-1.2015,-1.2528,-1.2443,-1.21,-1.2534,-1.2795,-1.2916,0.0,0.0,0.0,0.0,0.0,0.0,0.0,0.0,0.0,0.0,0.0,1.0249,1.1538,1.1615,1.1045,0.0,0.0,0.0,0.0,1.009,1.0843,1.1804,1.2104,1.2051,1.1578,1.1578,1.1344,1.0737,1.0618,1.0161,0.9372,0.9361,0.8799,0.7884,0.79,0.7975,0.8078,0.8116,0.8354,0.8669,0.8669,0.8421,0.7706,0.5217,0.4064,0.3763,0.329,0.2974,0.2818,0.2818,0.2738,0.2525,0.1903,0.1021,-0.0,-0.0889,-0.2059,0.0,0.0,0.0,0.0,0.0,0.0,0.0,0.0,-0.5819,-0.626,-0.6962,-0.7139,-0.7224,-0.7397,-0.7654,-0.7658,-0.6881,-0.6966,-0.7139,-0.7139,-0.7228,-0.7841,-0.8973,-0.9148,-0.9671,-1.1068,-1.1849,-1.2448,-1.279,-1.2705,-1.2881,-1.3568,-1.296,-1.279,-1.3307,-1.3137,-1.3052,-1.3052,-1.279,-1.2705,-1.2705,-1.2705,-1.2705,-1.2705,-1.2705,-1.2705,-1.2705,-1.2705,-1.2705,-1.2705,-1.2765,-1.2697,-1.2525,-1.2751,-1.225,-1.1543,-1.2451,-1.2964,-1.32,0.0,0.0,0.0,0.0,0.0,0.0,0.0,0.0,0.0,0.0,0.0,0.0,0.0,0.0,0.0,0.0,0.0,0.0,0.9576,1.0654,1.1351,1.1358,1.2081,1.2512,1.2642,1.2642,1.2512,1.2266,1.1856,1.1288,1.0591,1.0529,1.0451,1.0361,1.0008,0.9918,0.9877,0.9565,0.913,0.8722,0.8722,0.8647,0.8486,0.7618,0.6521,0.5349,0.5271,0.4714,0.3921,0.3921,0.3526,0.2921,0.2316,0.181,0.1068,-0.0625,0.0,-0.1611,-0.2691,-0.332,-0.3765,-0.43,-0.4743,-0.501,0.0,-0.546,-0.5733,-0.5911,-0.5911,-0.5997,-0.626,-0.6432,-0.6609,-0.6792,-0.6966,-0.7139,-0.7139,-0.7841,-0.8711,-0.9666,-0.9318,-0.9671,-1.1666,-1.2015,-1.2363,-1.3222,-1.3307,-1.3307,-1.3398,-1.3313,-1.3222,-1.3143,-1.3143,-1.2966,-1.279,-1.2705,-1.2705,-1.2705,-1.2705,-1.2705,-1.2705,-1.2705,-1.2705,-1.2705,-1.2705,-1.2705,-1.2723,-1.2976,-1.2533,-1.1921,-1.2962,-1.2869,-1.21,-1.2798,-1.3242,-1.3471,0.0,0.0,0.0,0.0,0.0,0.0,0.0,0.0,0.0,0.0,0.0,0.0,0.0,0.0,0.0,0.0,0.0,0.0,1.1556,1.2496,1.3364,1.3974,1.4273,1.4442,1.4305,1.4305,1.4058,1.364,1.3045,1.2607,1.2428,1.2005,1.1791,1.168,1.1283,1.1106,1.1017,1.0257,0.9922,0.9916,0.9518,0.9432,0.9352,0.911,0.8358,0.7234,0.6035,0.5341,0.0,0.0,0.3997,0.3642,0.3512,0.2395,0.1039,0.0355,-0.0716,0.0,-0.2513,-0.2963,-0.332,-0.3765,-0.4032,-0.43,-0.4832,-0.5191,-0.5371,-0.5644,-0.5733,-0.5733,-0.5819,-0.6083,-0.6257,-0.6523,-0.6789,-0.7143,-0.7841,-0.8281,-0.9104,-1.071,-1.073,-1.1118,-1.246,-1.2619,-1.2875,-1.3392,-1.3313,-1.3228,-1.3228,-1.3228,-1.3137,-1.2881,-1.2881,-1.279,-1.2705,-1.2705,-1.2705,-1.2705,-1.2705,-1.2705,-1.2705,-1.2705,-1.2795,-1.2952,-1.2952,-1.3037,-1.3181,-1.3302,-1.289,-1.2349,-1.2825,-1.2682,-1.2314,-1.3085,-1.3519,-1.3743,0.0,0.0,0.0,0.0,0.0,0.0,0.0,0.0,0.0,0.0,0.0,0.0,0.0,0.0,0.0,0.0,0.0,0.0,0.0,1.3537,1.446,1.5604,1.5846,0.0,1.5718,1.5613,1.5371,1.4895,1.4186,1.3944,1.4009,1.355,1.3337,1.3316,1.2861,1.2614,1.2466,1.1335,1.0929,1.0994,1.0251,1.0003,1.0003,0.9922,0.9432,0.8481,0.6762,0.5944,0.0,0.0,0.4387,0.42,0.4298,0.2981,0.1362,0.115,-0.0448,-0.2243,-0.2334,-0.2604,-0.2873,-0.323,-0.3408,-0.3765,-0.4476,-0.4832,-0.5099,-0.546,-0.5644,-0.5733,-0.5733,-0.5908,-0.6171,-0.6343,-0.6612,-0.7146,-0.8017,-0.8584,-0.9549,-1.1117,-1.1825,-1.242,-1.3126,-1.3127,-1.3138,-1.3228,-1.3052,-1.2966,-1.2966,-1.2966,-1.2881,-1.2705,-1.2705,-1.2705,-1.2705,-1.2705,-1.2705,-1.2705,-1.2783,-1.2819,-1.2825,-1.2898,-1.3037,-1.323,-1.3052,-1.3069,-1.3332,-1.3403,-1.3152,-1.2791,-1.2864,-1.2819,-1.2775,-1.3153,-1.3479,-1.3832,0.0,0.0,0.0,0.0,0.0,0.0,0.0,0.0,0.0,0.0,0.0,0.0,0.0,0.0,0.0,0.0,0.0,0.0,0.0,1.2948,1.3795,1.4904,1.569,1.6218,1.6482,1.6218,1.6046,1.6046,1.5391,1.5051,1.5079,1.5099,1.5335,1.565,1.5085,1.472,1.4387,1.3064,1.217,1.1577,1.0581,1.017,1.0165,1.0003,0.9432,0.8623,0.7757,0.0,0.0,0.0,0.4543,0.4353,0.4298,0.3601,0.0,0.1419,-0.0448,-0.2243,-0.2243,-0.2334,-0.2513,-0.2513,-0.3051,-0.3587,-0.3676,-0.4387,-0.501,-0.501,-0.5371,-0.5733,-0.5733,-0.5908,-0.6171,-0.6343,-0.6612,-0.6881,-0.7139,-0.8957,-1.0244,-1.0338,-1.2158,-1.3501,-1.3489,-1.326,-1.3,-1.2723,-1.2705,-1.2705,-1.2705,-1.2705,-1.2705,-1.2705,-1.2705,-1.2705,-1.2705,-1.2705,-1.2705,-1.2705,-1.2982,-1.3109,-1.3121,-1.3375,-1.3495,-1.3501,-1.2945,-1.2677,-1.27,-1.3031,-1.3134,-1.3063,-1.3414,-1.3426,-1.3431,-1.2937,-1.3136,-1.3624,0.0,0.0,0.0,0.0,0.0,0.0,0.0,0.0,0.0,0.0,0.0,0.0,0.0,0.0,0.0,0.0,0.0,0.0,0.0,1.3295,1.4529,1.542,1.6171,1.6705,1.6963,1.7065,1.7355,1.7677,1.6648,1.6365,1.6768,1.5975,1.5775,1.6111,1.557,1.5251,1.5105,1.3349,1.2469,1.2159,1.0905,1.0368,1.0343,0.9581,0.9135,0.8726,0.0,0.0,0.0,0.5176,0.4846,0.4713,0.4615,0.3763,0.2343,0.0089,-0.0448,-0.0628,-0.1436,-0.1524,-0.1523,-0.2333,-0.2693,-0.296,-0.3497,-0.3855,-0.4121,-0.4478,-0.4924,-0.5369,-0.5897,-0.5905,-0.6086,-0.6786,-0.6697,-0.7048,-0.8536,-0.9463,-1.0666,-1.2243,-1.3091,-1.3586,-1.3755,-1.3381,-1.3085,-1.2988,-1.2813,-1.2705,-1.2705,-1.2705,-1.2705,-1.2705,-1.2886,-1.2982,-1.2982,-1.3157,-1.3242,-1.3242,-1.3338,-1.3387,-1.3387,-1.3477,-1.361,-1.3773,-1.3582,-1.3403,-1.3193,-1.3374,-1.2923,-1.2352,-1.2436,-1.2273,-1.2073,-1.2565,-1.2861,-1.3055,0.0,0.0,0.0,0.0,0.0,0.0,0.0,0.0,0.0,0.0,0.0,0.0,0.0,0.0,0.0,0.0,0.0,0.0,0.0,0.0,1.476,1.5549,1.6353,1.6885,1.6969,1.73,1.7556,1.7779,1.7374,1.7368,1.7675,1.7253,1.7022,1.6921,1.6465,1.6167,1.5797,1.383,1.2963,1.2865,1.0944,1.0212,1.0035,0.9014,0.8407,0.0,0.0,0.0,0.0,0.5176,0.5031,0.5002,0.4853,0.3778,0.2113,0.0178,0.0179,0.0627,-0.0448,-0.0627,-0.0716,-0.1973,-0.2334,-0.2513,-0.3051,-0.3318,-0.3587,-0.3942,-0.4743,-0.5539,-0.598,-0.6114,-0.6508,-0.7485,-0.7348,-0.7631,-0.9177,-1.0102,-1.1201,-1.2428,-1.3182,-1.358,-1.3749,-1.3381,-1.3127,-1.3127,-1.2862,-1.2705,-1.2705,-1.2801,-1.285,-1.285,-1.3121,-1.3266,-1.3266,-1.3429,-1.3562,-1.3652,-1.3469,-1.3424,-1.3519,-1.3333,-1.3327,-1.3483,-1.3288,-1.3093,-1.2953,-1.2953,-1.2565,-1.198,-1.198,-1.178,-1.1585,-1.2078,-1.237,-1.257,0.0,0.0,0.0,0.0,0.0,0.0,0.0,0.0,0.0,0.0,0.0,0.0,0.0,0.0,0.0,0.0,0.0,0.0,0.0,0.0,0.0,1.5258,1.6172,1.6598,1.6527,1.6874,1.6929,1.6609,1.7552,1.7895,1.7801,1.8646,1.8646,1.7829,1.7603,1.7116,1.6325,1.4418,1.3613,1.3308,1.0714,0.9559,0.9436,0.8242,0.0,0.0,0.0,0.0,0.0,0.5031,0.5108,0.5146,0.4861,0.3561,0.2153,0.1522,0.1432,0.1432,0.0805,0.0358,-0.0179,-0.1435,-0.1974,-0.2243,-0.2424,-0.2871,-0.3227,-0.3497,-0.4917,-0.6071,-0.6077,-0.6632,-0.7269,-0.8355,-0.8394,-0.8444,-0.8832,-1.0673,-1.1818,-1.1163,-1.2518,-1.3501,-1.3513,-1.3278,-1.3133,-1.3145,-1.2874,-1.2711,-1.2723,-1.2976,-1.3133,-1.3145,-1.3399,-1.3538,-1.3538,-1.355,-1.3682,-1.3924,-1.3356,-1.3294,-1.3443,-1.3055,-1.2861,-1.2764,-1.2273,-1.2078,-1.198,-1.1991,-1.1996,-1.1996,-1.2006,-1.2011,-1.1913,-1.1423,-1.1619,-1.2206,0.0,0.0,0.0,0.0,0.0,0.0,0.0,0.0,0.0,0.0,0.0,0.0,0.0,0.0,0.0,0.0,0.0,0.0,0.0,0.0,0.0,0.0,0.0,0.0,0.0,0.0,0.0,0.0,0.0,1.6731,1.7061,1.6169,1.5678,1.5456,1.5129,1.4858,1.4563,1.3237,1.2278,1.1633,0.0,0.9458,0.8796,0.0,0.0,0.0,0.0,0.0,0.0,0.5135,0.5234,0.523,0.4378,0.3464,0.2419,0.0806,0.2238,0.4304,0.4314,0.2869,0.0895,-0.0986,-0.1705,-0.1974,-0.2243,-0.2513,-0.2691,-0.2782,-0.4119,-0.5565,-0.6364,-0.66,-0.709,-0.8087,-0.7851,-0.7818,-0.8537,-0.9967,-1.1284,-1.1943,-1.2732,-1.3302,-1.3495,-1.3278,-1.3206,-1.3399,-1.297,-1.2795,-1.3006,-1.3085,-1.3212,-1.3411,-1.367,-1.3803,-1.3803,-1.4002,-1.4129,-1.4195,-1.41,-1.3849,-1.3539,-1.3346,-1.3152,-1.2764,-1.2667,-1.237,-1.1991,-1.2152,-1.2024,-1.1649,-1.1803,-1.1861,-1.1861,-1.2171,-1.2374,-1.2476,0.0,0.0,0.0,0.0,0.0,0.0,0.0,0.0,0.0,0.0,0.0,0.0,0.0,0.0,0.0,0.0,0.0,0.0,0.0,0.0,0.0,0.0,0.0,0.0,0.0,0.0,0.0,0.0,0.0,0.0,0.0,1.5724,1.5283,1.4806,1.4684,1.4403,1.3909,0.0,0.0,0.0,0.0,0.0,0.0,0.0,0.0,0.0,0.0,0.0,0.0,0.5155,0.5387,0.541,0.4812,0.4399,0.3952,0.2784,0.269,0.3406,0.522,0.368,0.1164,-0.0896,-0.1525,-0.1705,-0.1974,-0.2243,-0.2512,-0.3048,-0.4414,-0.5899,-0.7141,-0.7273,-0.7629,-0.8574,-0.8436,-0.8306,-0.8775,-1.0338,-1.1499,-1.1882,-1.2499,-1.3049,-1.3314,-1.3212,-1.323,-1.3495,-1.3127,-1.3006,-1.3278,-1.3405,-1.3538,-1.3682,-1.3942,-1.4081,-1.4081,-1.422,-1.4298,-1.4298,-1.401,-1.3727,-1.3152,-1.2953,-1.2623,-1.2231,-1.2231,-1.2083,-1.1878,-1.1996,-1.1943,-1.1661,-1.1775,-1.1817,-1.1817,-1.2127,-1.2437,-1.254,0.0,0.0,0.0,0.0,0.0,0.0,0.0,0.0,0.0,0.0,0.0,0.0,0.0,0.0,0.0,0.0,0.0,0.0,0.0,0.0,0.0,0.0,0.0,0.0,0.0,0.0,0.0,0.0,0.0,0.0,0.0,0.0,0.0,0.0,0.0,0.0,0.0,0.0,0.0,0.0,0.0,0.0,0.0,0.0,0.0,0.0,0.0,0.0,0.0,0.0,0.551,0.5523,0.5636,0.5494,0.541,0.5594,0.3144,0.0986,0.3952,0.3138,0.0985,-0.0896,-0.1436,-0.1525,-0.1884,-0.2153,-0.2691,-0.3862,-0.5363,-0.6806,-0.7942,-0.8186,-0.8519,-0.9384,-0.939,-0.9272,-0.919,-1.0954,-1.2059,-1.1402,-1.2181,-1.291,-1.3151,-1.3175,-1.3284,-1.355,-1.3357,-1.3326,-1.3556,-1.3779,-1.3924,-1.396,-1.4177,-1.4298,-1.4298,-1.4298,-1.4298,-1.4298,-1.3761,-1.3294,-1.2807,-1.2351,-1.188,-1.1557,-1.1557,-1.1657,-1.1817,-1.1846,-1.186,-1.186,-1.1888,-1.1898,-1.1898,-1.1898,-1.221,-1.2521,0.0,0.0,0.0,0.0,0.0,0.0,0.0,0.0,0.0,0.0,0.3593,0.5004,0.0,0.0,0.0,0.0,0.0,0.0,0.0,0.0,0.0,0.0,0.0,0.0,0.0,0.0,0.0,0.0,0.0,0.0,0.0,0.0,0.0,0.0,0.0,0.0,0.0,0.0,0.0,0.0,0.0,0.0,0.0,0.0,0.0,0.0,0.0,0.0,0.0,0.0,0.5641,0.563,0.5662,0.4672,0.368,0.5225,0.4135,0.206,0.0269,0.0627,0.0985,-0.0896,-0.1436,-0.1614,-0.251,-0.3044,-0.3687,-0.4842,-0.6421,-0.7788,-0.8422,-0.8917,-0.9291,-0.9478,-0.9478,-0.928,-0.8996,-1.0593,-1.1771,-1.1639,-1.2612,-1.3393,-1.3441,-1.3447,-1.3556,-1.3815,-1.3797,-1.3791,-1.3833,-1.3882,-1.4002,-1.422,-1.4274,-1.4298,-1.4298,-1.4298,-1.4298,-1.4298,-1.3935,-1.354,-1.305,-1.2648,-1.224,-1.1765,-1.1765,-1.1784,-1.1831,-1.2011,-1.2082,-1.2101,-1.2266,-1.2332,-1.2332,-1.2332,-1.2332,-1.244,0.0,0.0,0.0,0.0,0.0,0.0,0.0,-0.0313,-0.0157,0.0159,0.1497,0.2579,0.3285,0.3675,0.0,0.0,0.0,0.0,0.0,0.0,0.0,0.0,0.0,0.0,0.0,0.0,0.9933,1.0981,0.0,0.0,1.0783,1.0616,1.0539,1.0518,0.0,0.0,0.0,0.0,0.0,0.0,0.0,0.0,0.0,0.0,0.0,0.0,0.0,0.0,0.0,0.0,0.5684,0.5673,0.5676,0.5041,0.4135,0.3057,0.1794,0.0358,-0.0986,-0.0717,-0.0269,-0.1166,-0.1436,-0.1704,-0.2689,-0.334,-0.4191,-0.5877,-0.7194,-0.8378,-0.9407,-0.9518,-0.9623,-1.0004,-0.9789,-0.969,-1.003,-1.1076,-1.1966,-1.2243,-1.2983,-1.3568,-1.3707,-1.3719,-1.3827,-1.4087,-1.4111,-1.4111,-1.4111,-1.4111,-1.4165,-1.4292,-1.4298,-1.4298,-1.4298,-1.4443,-1.4515,-1.4521,-1.4178,-1.3797,-1.3303,-1.2802,-1.2398,-1.1987,-1.1987,-1.2044,-1.2148,-1.2252,-1.2295,-1.2304,-1.2403,-1.2441,-1.2441,-1.2441,-1.2441,-1.2441,0.0,0.0,0.0,0.0,0.0,0.0,0.0,-0.1338,-0.1184,-0.0723,-0.0646,-0.008,0.1351,0.1733,0.2426,0.0,0.0,0.0,0.0,0.0,0.0,0.0,0.0,0.0,0.0,0.0,0.0,0.8366,0.8621,0.0,0.0,0.0,0.0,0.0,0.9177,0.9218,0.9164,0.0,0.0,0.0,0.0,0.7986,0.0,0.0,0.0,0.0,0.0,0.0,0.0,0.0,0.387,0.3864,0.3773,0.4047,0.387,0.0629,-0.0808,-0.1436,-0.1436,-0.1614,-0.1793,-0.1704,-0.1889,-0.2344,-0.3424,-0.4027,-0.5014,-0.7069,-0.8103,-0.906,-1.0276,-1.0303,-1.0236,-1.0724,-1.0496,-1.0513,-1.1236,-1.1897,-1.2395,-1.286,-1.3371,-1.3761,-1.3972,-1.399,-1.4075,-1.428,-1.4298,-1.4298,-1.4298,-1.4298,-1.4298,-1.4298,-1.4298,-1.4226,-1.4189,-1.4508,-1.4646,-1.4407,-1.4242,-1.3848,-1.3344,-1.2764,-1.236,-1.2205,-1.2205,-1.2295,-1.2441,-1.2441,-1.2441,-1.2441,-1.2441,-1.2441,-1.2441,-1.2441,-1.2441,-1.2441,0.0,0.0,0.0,0.0,0.0,0.0,0.0,-0.3754,-0.3459,-0.2596,-0.2452,-0.201,-0.0922,-0.0,0.0625,0.0,0.0,0.0,0.0,0.0,0.0,0.0,0.0,0.0,0.0,0.0,0.0,0.8098,0.8313,0.0,0.0,0.0,0.0,0.0,0.0,0.9004,0.9235,0.9976,0.0,0.0,0.0,0.0,0.0,0.0,0.0,0.0,0.0,-0.5138,-0.4862,0.0,-0.2149,-0.2149,-0.2593,-0.1254,0.0269,-0.0897,-0.1345,-0.1436,-0.1436,-0.2241,-0.3048,-0.2868,-0.345,-0.4503,-0.5697,-0.6343,-0.7032,-0.8508,-0.9419,-1.0071,-1.0351,-1.1179,-1.1711,-1.1597,-1.1926,-1.2119,-1.1989,-1.2603,-1.3117,-1.3117,-1.3797,-1.4238,-1.4256,-1.4262,-1.4268,-1.4292,-1.4298,-1.4298,-1.4298,-1.4298,-1.4298,-1.4298,-1.4298,-1.4122,-1.3865,-1.44,-1.4336,-1.3545,-1.3778,-1.3572,-1.2941,-1.2617,-1.2394,-1.2413,-1.2413,-1.2422,-1.2441,-1.2441,-1.2441,-1.2441,-1.2441,-1.2441,-1.2441,-1.2441,-1.2441,-1.255,0.0,0.0,0.0,0.0,0.0,0.0,-0.5015,-0.496,-0.4784,-0.451,-0.4475,-0.4319,-0.3919,-0.3432,-0.2075,0.0,0.0,0.0,0.0,0.0,0.0,0.0,0.0,0.0,0.0,0.0,0.6237,0.6689,0.6897,0.0,0.0,0.0,0.0,0.0,0.0,0.7457,0.7546,0.7989,0.0,0.0,0.0,0.0,0.0,0.0,0.0,0.0,0.0,0.0,-0.6025,-0.5292,-0.502,-0.5198,-0.6539,-0.6539,-0.5552,-0.3398,-0.322,-0.3671,-0.3671,-0.3758,-0.3846,-0.3757,-0.4087,-0.4793,-0.5987,-0.6698,-0.7723,-0.9888,-1.0866,-1.1559,-1.2517,-1.3216,-1.3663,-1.3844,-1.3915,-1.4163,-1.4733,-1.444,-1.4224,-1.4508,-1.4423,-1.4298,-1.4298,-1.4298,-1.4298,-1.4298,-1.4298,-1.4298,-1.4298,-1.4298,-1.4298,-1.4298,-1.4461,-1.4299,-1.38,-1.4315,-1.4316,-1.3685,-1.3498,-1.3393,-1.3071,-1.262,-1.2441,-1.2441,-1.2441,-1.2441,-1.2441,-1.2441,-1.2441,-1.2441,-1.2441,-1.2441,-1.2441,-1.2441,-1.2441,-1.2436,0.0,0.0,0.0,0.0,0.0,-0.6295,-0.5984,-0.5975,-0.5916,-0.565,-0.5636,-0.5686,-0.5684,-0.5534,-0.4353,-0.155,0.0,0.0,0.0,0.0,0.0,0.0,0.0,0.0,0.0,0.0,0.4474,0.4659,0.5099,0.5188,0.0,0.0,0.6287,0.64,0.0,0.0,0.0,0.0,0.0,0.0,0.0,0.0,0.0,0.0,0.0,0.0,0.0,0.0,0.0,0.0,0.0,-0.7739,0.0,0.0,0.0,0.0,-0.5442,-0.5722,-0.545,-0.5003,-0.4743,-0.486,-0.5395,-0.6314,-0.7372,-0.8237,-0.9388,-1.1507,-1.2315,-1.292,-1.4076,-1.4555,-1.5026,-1.5406,-1.5589,-1.5967,-1.6662,-1.59,-1.5324,-1.571,-1.5057,-1.4496,-1.4394,-1.4394,-1.4298,-1.4298,-1.4298,-1.4298,-1.4298,-1.4298,-1.4298,-1.4298,-1.457,-1.4447,-1.3908,-1.4344,-1.4284,-1.3609,-1.3455,-1.3207,-1.2985,-1.255,-1.2441,-1.2441,-1.2441,-1.2441,-1.2441,-1.2441,-1.2441,-1.2441,-1.2441,-1.2441,-1.2441,-1.2441,-1.2441,-1.2441,0.0,0.0,0.0,0.0,0.0,0.0,-0.7193,-0.7099,-0.6741,-0.5841,-0.5662,-0.5662,-0.5665,-0.5681,-0.5687,-0.567,0.0,0.0,0.0,0.0,0.0,0.0,0.0,0.0,0.0,0.0,0.0,0.2144,0.2949,0.3309,0.3398,0.4931,0.5752,0.567,0.0,0.0,0.0,0.0,0.0,0.0,0.0,0.0,0.0,0.0,0.0,0.0,0.0,0.0,0.0,0.0,0.0,0.0,0.0,0.0,0.0,0.0,-0.8017,-0.6868,-0.5963,-0.5706,-0.5746,-0.6139,-0.7912,-0.9655,-1.0603,-1.1768,-1.2796,-1.338,-1.368,-1.3974,-1.4268,-1.493,-1.5501,-1.5792,-1.664,-1.7296,-1.7289,-1.6821,-1.6445,-1.6445,-1.5629,-1.4987,-1.4688,-1.449,-1.4298,-1.4298,-1.4298,-1.4298,-1.4298,-1.4298,-1.4298,-1.4298,-1.457,-1.4536,-1.4163,-1.4429,-1.4155,-1.331,-1.3315,-1.2989,-1.2441,-1.2441,-1.2441,-1.2441,-1.2441,-1.2441,-1.2441,-1.2441,-1.2441,-1.2441,-1.2441,-1.2441,-1.2441,-1.2441,-1.2441,-1.2545,0.0,0.0,0.0,0.0,0.0,0.0,0.0,-0.8109,-0.8017,-0.7742,-0.7654,-0.7654,-0.7654,-0.7478,-0.7122,-0.6498,0.0,0.0,0.0,0.0,0.0,0.0,0.0,0.0,0.0,0.0,0.0,0.0,0.0355,0.0089,-0.0893,0.0622,0.1334,0.1425,0.0711,-0.0,0.0,0.0,0.0,0.0,0.0,0.0,-0.6418,0.0,0.0,0.0,0.0,0.0,0.0,0.0,0.0,0.0,0.0,0.0,0.0,0.0,0.0,-1.0067,-0.9777,-0.9691,-0.9713,-1.0049,-1.0677,-1.1407,-1.2141,-1.2628,-1.338,-1.4734,-1.5121,-1.5507,-1.6648,-1.7225,-1.7606,-1.8056,-1.8519,-1.898,-1.9355,-1.8041,-1.7008,-1.7008,-1.5615,-1.4496,-1.4394,-1.4394,-1.4298,-1.4298,-1.4298,-1.4298,-1.4298,-1.4479,-1.4582,-1.4582,-1.4436,-1.4389,-1.4435,-1.3949,-1.3567,-1.3315,-1.2876,-1.255,-1.2441,-1.2441,-1.2441,-1.2441,-1.2441,-1.2441,-1.2441,-1.2441,-1.2441,-1.2441,-1.2441,-1.2441,-1.2441,-1.2441,-1.2441,-1.2545,0.0,0.0,0.0,0.0,0.0,0.0,0.0,-0.8568,-0.8568,-0.8568,-0.8568,-0.8568,-0.8568,-0.8472,-0.8113,-0.7492,0.0,0.0,0.0,0.0,0.0,0.0,0.0,0.0,0.0,0.0,0.0,0.0,0.0,-0.2849,-0.3755,-0.3295,-0.3114,-0.3028,-0.3112,-0.3831,0.0,0.0,0.0,0.0,0.0,0.0,-0.8827,0.0,0.0,0.0,0.0,0.0,0.0,0.0,0.0,0.0,0.0,0.0,0.0,0.0,-1.5302,-1.422,-1.2592,-1.1914,-1.1747,-1.2205,-1.2614,-1.3122,-1.3884,-1.4319,-1.5203,-1.6821,-1.6922,-1.7124,-1.8527,-1.8735,-1.8928,-1.9279,-1.982,-2.0093,-1.9911,-1.8596,-1.7475,-1.6741,-1.5439,-1.4592,-1.4592,-1.4394,-1.4298,-1.4298,-1.4395,-1.4455,-1.4455,-1.4714,-1.4908,-1.501,-1.4753,-1.4705,-1.456,-1.3955,-1.3527,-1.3315,-1.2659,-1.2441,-1.2441,-1.2441,-1.2441,-1.2441,-1.2441,-1.2441,0.0,-1.2441,-1.2441,-1.2441,-1.2441,-1.2441,-1.2436,-1.2871,-1.3088,-1.3305,0.0,0.0,0.0,0.0,0.0,0.0,0.0,0.0,-0.8568,-0.8568,-0.8568,-0.8568,-0.8568,-0.8568,-0.8568,-0.8568,0.0,0.0,0.0,0.0,0.0,0.0,0.0,0.0,0.0,0.0,0.0,-0.4641,-0.5184,-0.5544,-0.563,0.0,-0.7272,-0.7187,-0.7187,-0.7193,0.0,0.0,0.0,0.0,0.0,0.0,0.0,0.0,0.0,0.0,0.0,0.0,0.0,0.0,0.0,0.0,0.0,0.0,0.0,0.0,0.0,0.0,0.0,-1.3053,-1.247,-1.3159,-1.3975,-1.4894,-1.5826,0.0,0.0,0.0,-1.8896,-1.8627,-1.9803,-1.9629,-1.9371,-1.9637,-2.0447,-2.0628,-1.9521,-1.8772,-1.7654,-1.5818,-1.5261,-1.5083,-1.5083,-1.4592,-1.4304,-1.4328,-1.457,-1.4727,-1.4745,-1.4992,-1.5246,-1.5389,-1.5413,-1.5216,-1.4588,-1.4276,-1.3846,-1.3315,-1.2659,-1.2441,-1.2441,-1.2441,-1.2441,-1.2441,-1.2441,-1.2441,-1.2441,-1.2441,-1.2441,-1.2441,-1.2441,-1.2441,-1.2545,-1.3732,-1.418,-1.4407,0.0,0.0,0.0,0.0,0.0,0.0,0.0,0.0,0.0,0.0,-0.8568,-0.8568,-0.8568,-0.8568,-0.8568,0.0,0.0,0.0,0.0,0.0,0.0,0.0,0.0,0.0,0.0,0.0,0.0,-0.8086,-0.8177,-0.8528,-0.9131,-0.941,0.0,0.0,-0.8204,0.0,0.0,0.0,0.0,0.0,0.0,0.0,0.0,0.0,0.0,0.0,-1.4004,-1.4949,0.0,0.0,0.0,0.0,0.0,0.0,0.0,0.0,-1.9397,-1.9364,-1.8557,0.0,-1.6686,-1.7057,-1.6908,-1.6937,0.0,0.0,0.0,0.0,0.0,-2.0158,-2.0619,-2.0374,-2.0192,-2.0637,-2.0907,-2.0997,-2.1087,-1.9513,-1.784,-1.6452,-1.554,-1.4987,-1.479,-1.4694,-1.4582,-1.46,-1.4678,-1.4805,-1.501,-1.5264,-1.5231,-1.4769,-1.4959,-1.5056,-1.495,-1.3496,-1.298,-1.3315,-1.2659,-1.2441,-1.2441,-1.2441,-1.2441,-1.2441,-1.2441,-1.2441,-1.2441,-1.2441,-1.2441,-1.2441,-1.2441,-1.2441,-1.2545,-1.3732,-1.4283,-1.4757,0.0,0.0,0.0,0.0,0.0,0.0,0.0,0.0,0.0,0.0,0.0,0.0,0.0,0.0,0.0,0.0,0.0,0.0,0.0,0.0,0.0,0.0,0.0,0.0,0.0,0.0,0.0,0.0,0.0,-1.0009,0.0,0.0,0.0,0.0,0.0,0.0,0.0,0.0,0.0,0.0,-1.2199,0.0,0.0,0.0,0.0,0.0,-1.5534,-1.6285,0.0,-1.7669,-1.8303,-1.8856,0.0,0.0,0.0,0.0,-2.1051,-2.1221,-2.1507,-2.0314,-1.9031,-1.9322,-1.9147,-1.9131,-1.9943,0.0,0.0,0.0,0.0,-2.123,-2.0988,-2.0907,-2.0817,-2.0988,-2.0997,-2.0997,-2.0907,-1.9413,-1.7933,-1.6828,-1.6285,-1.5688,-1.5158,-1.4971,-1.4894,-1.4877,-1.501,-1.5137,-1.5282,-1.5535,-1.5364,-1.4836,-1.4646,-1.4498,-1.4175,-1.331,-1.2876,-1.2876,-1.255,-1.2441,-1.2441,-1.2441,-1.2441,-1.2441,-1.2441,-1.2441,-1.2441,-1.2441,-1.2441,-1.2436,-1.298,-1.3257,-1.367,-1.5286,-1.6102,-1.6655,0.0,0.0,0.0,0.0,0.0,0.0,0.0,0.0,0.0,0.0,0.0,0.0,0.0,0.0,0.0,0.0,0.0,0.0,0.0,0.0,0.0,0.0,0.0,0.0,0.0,0.0,0.0,0.0,0.0,0.0,0.0,0.0,-1.0636,0.0,0.0,0.0,0.0,0.0,-1.2388,-1.359,-1.3712,0.0,0.0,0.0,0.0,0.0,0.0,0.0,0.0,-1.9047,-1.9497,-1.9778,-2.0962,0.0,0.0,0.0,0.0,0.0,-2.3416,-2.212,-2.0657,-2.0854,-2.0944,-2.1025,-2.1203,0.0,0.0,0.0,0.0,0.0,-2.1347,-2.1347,-2.1248,-2.1087,-2.0907,-2.0709,-2.0076,-1.8964,-1.7956,-1.7095,-1.6914,-1.6477,-1.5626,-1.535,-1.5171,-1.5143,-1.5372,-1.5517,-1.5559,-1.5771,-1.5571,-1.4928,-1.4493,-1.3851,-1.3207,-1.3207,-1.2881,-1.2441,-1.2441,-1.2441,-1.2441,-1.2441,-1.2441,-1.2441,-1.2441,-1.2441,-1.2441,-1.2441,-1.2545,-1.2767,-1.3883,-1.456,-1.5175,-1.7271,-1.8237,-1.8725,0.0,0.0,0.0,0.0,0.0,0.0,0.0,0.0,0.0,0.0,0.0,0.0,0.0,0.0,0.0,0.0,0.0,0.0,0.0,0.0,0.0,0.0,0.0,0.0,0.0,0.0,0.0,0.0,0.0,0.0,-1.3215,-1.3215,-1.2727,-1.1971,0.0,-1.1701,-1.2921,-1.3,-1.3732,-1.4823,-1.5045,0.0,0.0,0.0,0.0,0.0,0.0,0.0,0.0,-2.0593,-2.1239,-2.198,-2.2432,0.0,0.0,0.0,0.0,0.0,-2.3503,-2.295,-2.2394,-2.2208,-2.1667,-2.1203,-2.1293,0.0,0.0,0.0,0.0,0.0,-2.2394,-2.1971,-2.1454,-2.1087,-2.0709,-2.0348,-2.0249,-1.8603,-1.7522,-1.761,-1.6691,-1.6032,-1.5814,-1.5639,-1.5448,-1.5421,-1.5475,-1.5596,-1.5819,-1.5867,-1.5458,-1.4385,-1.4277,-1.363,-1.255,-1.255,-1.2441,-1.2441,-1.2441,-1.2441,-1.2441,-1.2441,-1.2441,-1.2441,-1.2441,-1.2441,-1.2441,-1.2441,-1.298,-1.397,-1.4385,-1.5136,-1.6278,-1.7825,-1.8662,-1.9183,0.0,0.0,0.0,0.0,0.0,0.0,0.0,0.0,0.0,0.0,0.0,0.0,0.0,0.0,0.0,0.0,0.0,0.0,0.0,0.0,0.0,0.0,0.0,0.0,0.0,0.0,0.0,0.0,0.0,-1.3568,-1.3737,-1.4314,-1.4017,-1.3197,-1.3638,-1.4267,-1.4995,-1.5152,-1.5953,-1.7124,0.0,0.0,0.0,0.0,0.0,0.0,0.0,0.0,0.0,0.0,-2.2246,-2.2618,-2.2882,0.0,0.0,0.0,0.0,0.0,-2.3851,-2.3754,-2.3387,-2.2921,-2.212,-2.1498,-2.1498,-2.1774,0.0,0.0,0.0,0.0,-2.2385,-2.205,-2.1704,-2.1078,-2.0997,-2.1087,-2.1087,-1.9971,-1.9036,-1.8632,-1.7566,-1.6713,-1.6202,-1.5825,-1.5737,-1.5692,-1.571,-1.5765,-1.5885,-1.5571,-1.5035,-1.4277,-1.3851,-1.331,-1.2441,-1.2441,-1.2441,-1.2441,-1.2441,-1.2441,-1.2441,-1.2441,-1.2441,-1.2441,-1.2441,-1.2762,-1.3413,-1.3413,-1.4126,-1.5441,-1.6096,-1.6979,-1.7942,-1.9374,-2.004,-2.0302,0.0,0.0,0.0,0.0,0.0,0.0,0.0,0.0,0.0,0.0,0.0,0.0,0.0,0.0,0.0,0.0,0.0,0.0,0.0,0.0,0.0,0.0,0.0,0.0,0.0,0.0,-1.4088,-1.4088,-1.4334,-1.4446,-1.4585,-1.5483,-1.5496,-1.4886,-1.6055,-1.6773,-1.7051,-1.7294,-1.7948,-1.888,0.0,0.0,0.0,0.0,0.0,0.0,0.0,0.0,0.0,0.0,0.0,0.0,0.0,0.0,0.0,-2.3493,-2.359,-2.3764,-2.412,-2.411,-2.3917,-2.328,-2.2833,-2.2315,-2.1695,-2.1882,0.0,0.0,0.0,-2.2394,-2.2031,-2.1863,-2.1606,-2.1266,-2.1356,-2.1509,-2.1509,-2.0711,-1.9922,-1.9055,-1.8127,-1.711,-1.6393,-1.6008,-1.5891,-1.5873,-1.5891,-1.5891,-1.5678,-1.525,-1.4713,-1.4062,-1.3527,-1.2985,-1.2441,-1.2441,-1.2441,-1.2441,-1.2441,-1.2441,-1.2441,-1.2441,-1.2545,-1.2871,-1.2871,-1.3516,-1.4595,-1.465,-1.5429,-1.6804,-1.781,-1.8739,-1.97,-2.0766,-2.1211,-2.1211,0.0,0.0,0.0,0.0,0.0,0.0,0.0,0.0,0.0,0.0,0.0,0.0,0.0,0.0,0.0,0.0,0.0,0.0,0.0,0.0,0.0,0.0,0.0,0.0,0.0,-1.4088,-1.4088,-1.4088,-1.4908,-1.5868,-1.7091,-1.754,-1.7794,-1.8006,-1.8061,-1.8356,-1.8664,-1.8856,-1.8948,-1.9131,-1.9314,0.0,0.0,0.0,0.0,0.0,0.0,0.0,0.0,0.0,0.0,0.0,0.0,0.0,-2.3503,-2.3754,-2.3937,-2.4206,-2.4206,-2.382,-2.3434,-2.3347,-2.4059,0.0,-2.1606,-2.2246,0.0,-2.2217,0.0,-2.1811,-2.1952,-2.1516,-2.1177,-2.1553,-2.1216,-2.0983,-2.0983,-1.9582,-1.8548,-1.8434,-1.7279,-1.6399,-1.6268,-1.6074,-1.5867,-1.5891,-1.5891,-1.5678,-1.5035,-1.5035,-1.4504,-1.3423,-1.3315,-1.2985,-1.2441,-1.2441,-1.2441,-1.2441,-1.2441,-1.2441,-1.2441,-1.2441,-1.298,-1.4062,-1.4062,-1.4696,-1.5773,-1.6018,-1.6882,-1.7928,-1.8702,-1.9814,-2.106,-2.1203,-2.1211,-2.1211,0.0,0.0,0.0,0.0,0.0,0.0,0.0,0.0,0.0,0.0,0.0,0.0,0.0,0.0,0.0,0.0,0.0,0.0,0.0,0.0,0.0,0.0,0.0,-1.5718,-1.6041,-1.5553,-1.5553,-1.6124,-1.6747,-1.7367,-1.7977,-1.9022,0.0,-1.8799,-1.9647,-2.0005,-2.0141,-2.0223,-2.0935,-2.2003,-2.2092,-2.2785,0.0,0.0,0.0,0.0,0.0,0.0,0.0,0.0,-2.3329,-2.3484,0.0,-2.4467,-2.4563,-2.4829,-2.4914,-2.4925,-2.454,-2.382,-2.326,-2.3347,-2.379,0.0,0.0,-2.1695,-2.2148,-2.2041,-2.1615,-2.1365,-2.1713,-2.1633,-2.1463,-2.1642,-2.1699,-2.1582,-2.0916,-2.0079,-1.9299,-1.8419,-1.7281,-1.6516,-1.6318,-1.6105,-1.5891,-1.5891,-1.5891,-1.5678,-1.5035,-1.4713,-1.4175,-1.3315,-1.2985,-1.2659,-1.2441,-1.2441,-1.2441,-1.2441,-1.2441,-1.2762,-1.3521,-1.3521,-1.4159,-1.5227,-1.5227,-1.5952,-1.7186,-1.7289,-1.8319,-1.9715,-2.0146,-2.0744,-2.1211,-2.1211,-2.1211,-2.1211,0.0,0.0,0.0,0.0,0.0,0.0,0.0,0.0,0.0,0.0,0.0,0.0,0.0,0.0,0.0,0.0,0.0,0.0,0.0,0.0,0.0,0.0,0.0,-1.7261,-1.8079,-1.7705,-1.7458,-1.7516,-1.8406,-1.9042,-1.9402,0.0,0.0,0.0,-2.1025,-2.1587,-2.1933,-2.1924,-2.2892,-2.4307,-2.4392,-2.4893,0.0,0.0,0.0,0.0,0.0,0.0,0.0,0.0,-2.4413,0.0,0.0,0.0,0.0,-2.5484,-2.5411,-2.5094,-2.4615,-2.4166,-2.3714,-2.3704,0.0,0.0,-2.2138,-2.1961,-2.2041,-2.1961,-2.1526,-2.1365,-2.1642,-2.1741,-2.1777,-2.1906,-2.2263,-2.2278,-2.1628,-2.112,-2.0202,-1.8884,-1.7748,-1.6736,-1.6217,-1.5998,-1.5891,-1.5891,-1.5891,-1.5571,-1.4821,-1.4385,-1.3846,-1.2989,-1.2659,-1.2441,-1.2441,-1.2441,-1.2545,-1.298,-1.298,-1.3413,-1.4169,-1.4595,-1.5334,-1.6405,-1.648,-1.7375,-1.8555,-1.8741,-1.9693,-2.0896,-2.1123,-2.1211,-2.1211,-2.1211,-2.1211,-2.1211,0.0,0.0,0.0,0.0,0.0,0.0,0.0,0.0,0.0,0.0,0.0,0.0,0.0,0.0,0.0,0.0,0.0,0.0,0.0,0.0,0.0,0.0,0.0,-1.9059,-1.9897,-2.0384,-1.979,-1.8062,-1.9729,-2.1003,-2.1845,-2.2252,0.0,0.0,-2.2432,-2.295,-2.379,-2.4049,-2.4638,-2.5579,-2.5735,-2.5819,-2.5819,0.0,0.0,0.0,0.0,0.0,0.0,0.0,-2.6483,0.0,0.0,0.0,0.0,-2.5735,-2.5179,-2.454,-2.454,-2.4871,-2.502,0.0,0.0,0.0,-2.3144,-2.3299,-2.3367,-2.1989,-2.1741,-2.1741,-2.1741,-2.1741,-2.1869,-2.2263,-2.2685,-2.3003,-2.3395,-2.2469,-2.1269,-2.0128,-1.8603,-1.716,-1.5998,-1.5891,-1.5891,-1.5891,-1.5891,-1.5351,-1.4272,-1.4169,-1.363,-1.2441,-1.2441,-1.2441,-1.2441,-1.2441,-1.298,-1.4164,-1.4277,-1.4277,-1.4277,-1.5441,-1.6505,-1.7602,-1.7869,-1.8656,-1.982,-2.0464,-2.0918,-2.1211,-2.1211,-2.1211,-2.1211,-2.1211,-2.1211,-2.1211,0.0,0.0,0.0,0.0,0.0,0.0,0.0,0.0,0.0,0.0,0.0,0.0,0.0,0.0,0.0,0.0,0.0,0.0,0.0,0.0,0.0,0.0,0.0,0.0,0.0,0.0,-2.1646,-2.093,-2.1598,-2.2131,0.0,0.0,0.0,-2.3897,0.0,0.0,-2.5231,-2.5231,-2.5902,-2.6894,-2.6976,-2.7476,-2.8051,0.0,0.0,0.0,0.0,0.0,0.0,0.0,0.0,0.0,0.0,0.0,0.0,-2.673,-2.608,-2.5263,-2.47,-2.3637,-2.2921,-2.3531,0.0,0.0,0.0,-2.2677,0.0,0.0,-2.1741,-2.1741,-2.1741,-2.1961,-2.219,-2.23,-2.2914,-2.3015,-2.1936,-2.1244,-2.0135,-1.8499,-1.7364,-1.653,-1.5998,-1.5891,-1.5678,-1.525,-1.525,-1.4821,-1.3635,-1.3527,-1.3202,-1.2436,-1.2441,-1.2762,-1.363,-1.363,-1.4266,-1.5441,-1.6193,-1.6624,-1.6617,-1.6935,-1.7795,-1.9191,-1.9277,-1.9679,-2.0472,-2.0889,-2.1123,-2.1211,-2.1211,-2.1211,-2.1211,-2.1211,-2.1211,-2.1211,0.0,0.0,0.0,0.0,0.0,0.0,0.0,0.0,0.0,0.0,0.0,0.0,0.0,0.0,0.0,0.0,0.0,0.0,0.0,0.0,0.0,0.0,0.0,0.0,0.0,-2.2722,-2.3011,0.0,0.0,0.0,0.0,0.0,0.0,-2.5147,0.0,-2.6141,-2.6565,-2.6565,-2.7232,-2.8131,-2.8131,-2.8554,-2.9052,0.0,0.0,0.0,0.0,0.0,0.0,0.0,0.0,0.0,0.0,0.0,0.0,-2.7069,-2.6246,-2.5094,-2.4166,-2.3193,0.0,-2.2473,-2.1863,-2.1329,-2.1596,-2.198,-2.2274,-2.182,-2.1741,-2.1786,-2.1942,-2.2162,-2.2428,-2.2749,-2.3217,-2.3001,-2.1645,-2.1038,-2.0033,-1.7989,-1.716,-1.6418,-1.5998,-1.5891,-1.5678,-1.5035,-1.5041,-1.4504,-1.3315,-1.3315,-1.2985,-1.2441,-1.2871,-1.3408,-1.4169,-1.4696,-1.5441,-1.6611,-1.7259,-1.7793,-1.8325,-1.8325,-1.8816,-1.9777,-2.0033,-2.0442,-2.0933,-2.113,-2.1211,-2.1211,-2.1211,-2.1211,-2.1211,-2.1211,-2.1211,-2.1211,0.0,0.0,0.0,0.0,0.0,0.0,0.0,0.0,0.0,0.0,0.0,0.0,0.0,0.0,0.0,0.0,0.0,0.0,0.0,0.0,0.0,0.0,0.0,0.0,0.0,0.0,0.0,0.0,0.0,0.0,0.0,0.0,-2.5316,-2.6284,0.0,-2.6953,-2.7891,-2.7891,-2.8383,-2.9131,-2.9131,-2.9131,-2.9209,-2.9353,0.0,0.0,0.0,0.0,0.0,0.0,0.0,0.0,0.0,0.0,-2.7069,-2.6987,-2.5768,-2.4272,-2.3454,-2.327,-2.2911,-2.1427,-2.1168,-2.1159,-2.0988,-2.1392,-2.1777,-2.1741,-2.1768,-2.1906,-2.2263,-2.2382,-2.2676,-2.3419,-2.3478,-2.3126,-2.2248,-2.1591,-2.0459,-1.8401,-1.7674,-1.7041,-1.6205,-1.6099,-1.5779,-1.5137,-1.5035,-1.4498,-1.3315,-1.3315,-1.3093,-1.2545,-1.3732,-1.4379,-1.4487,-1.5547,-1.6611,-1.7793,-1.7793,-1.8325,-1.9279,-1.9308,-1.9513,-1.9879,-2.0501,-2.0933,-2.1211,-2.1211,-2.1211,-2.1211,-2.1211,-2.1211,-2.1211,-2.1211,-2.1211,-2.1211,0.0,0.0,0.0,0.0,0.0,0.0,0.0,0.0,0.0,0.0,0.0,0.0,0.0,0.0,0.0,0.0,0.0,0.0,0.0,0.0,0.0,0.0,0.0,0.0,0.0,0.0,0.0,0.0,0.0,0.0,0.0,0.0,0.0,-2.7464,0.0,-2.8621,-2.8803,-2.8803,-2.904,-2.9341,-2.9341,-2.9443,-2.9624,-2.9702,-2.9702,0.0,0.0,0.0,0.0,0.0,0.0,0.0,-2.8961,-2.7971,-2.6987,-2.6318,-2.5348,-2.4454,-2.4272,-2.3115,0.0,-2.1606,-2.0988,-2.0645,-2.0907,-2.1599,-2.2107,-2.1805,-2.1979,-2.2226,-2.2309,-2.285,-2.3336,-2.3519,-2.3403,-2.3132,-2.2509,-2.1395,-2.038,-1.9465,-1.8624,-1.8101,-1.7898,-1.7891,-1.7147,-1.5429,-1.5316,-1.4471,-1.2659,-1.3521,-1.3954,-1.3846,-1.4905,-1.5974,-1.6836,-1.7153,-1.7786,-1.8959,-1.8959,-1.9063,-1.9286,-1.9542,-1.9974,-2.0537,-2.0933,-2.1145,-2.1211,-2.1211,-2.1211,-2.1211,-2.1211,-2.1211,-2.1211,-2.1211,-2.1211,-2.1211,0.0,0.0,0.0,0.0,0.0,0.0,0.0,0.0,0.0,0.0,0.0,0.0,0.0,0.0,0.0,0.0,0.0,0.0,0.0,0.0,0.0,0.0,0.0,0.0,0.0,0.0,0.0,0.0,0.0,0.0,0.0,0.0,0.0,-2.8609,0.0,-2.9287,-2.9468,-2.9468,-2.9534,-2.9599,-2.9599,-2.9702,-2.9792,-2.9792,-2.9792,-2.9792,-2.9792,0.0,0.0,0.0,0.0,0.0,0.0,0.0,-2.7718,-2.6976,-2.608,-2.5094,-2.4241,0.0,0.0,-2.0529,-2.0229,-2.0281,-2.0549,-2.1203,-2.1795,-2.1507,-2.2095,-2.2685,-2.2878,-2.2967,-2.3214,-2.3394,-2.3105,-2.2627,-2.1709,-2.0893,-2.0174,-1.9153,-1.8632,-1.8422,-1.8422,-1.7786,-1.6817,-1.5524,-1.4787,-1.4046,-1.3305,-1.384,-1.4487,-1.5018,-1.608,-1.7041,-1.7582,-1.8115,-1.8743,-1.9279,-1.9279,-1.9433,-1.974,-1.9908,-2.0259,-2.0742,-2.1064,-2.1211,-2.1211,-2.1211,-2.1211,-2.1211,-2.1211,-2.1211,-2.1211,-2.1211,-2.1211,-2.1211,0.0,0.0,0.0,0.0,0.0,0.0,0.0,0.0,0.0,0.0,0.0,0.0,0.0,0.0,0.0,0.0,0.0,0.0,0.0,0.0,0.0,0.0,0.0,0.0,0.0,0.0,0.0,0.0,0.0,0.0,0.0,0.0,0.0,-2.9509,0.0,-2.9599,-2.9792,-2.9792,-2.9792,-2.9792,-2.9934,-2.9934,-2.9792,-3.0011,-2.9934,-2.9869,-2.9869,-2.9869,-2.9869,-2.9869,0.0,0.0,0.0,0.0,-2.8474,-2.7743,-2.6783,-2.5635,-2.4252,0.0,-2.1446,-1.9458,-1.9593,-2.0198,-2.0198,-2.0844,-2.1394,-2.1394,-2.2083,-2.2867,-2.3193,-2.2912,-2.276,-2.3076,-2.2728,-2.2013,-2.0893,-2.0585,-2.0181,-1.8945,-1.884,-1.884,-1.884,-1.7562,-1.6387,-1.563,-1.4476,-1.3954,-1.4169,-1.4595,-1.5232,-1.618,-1.7259,-1.7898,-1.7898,-1.8855,-1.9279,-1.9279,-1.933,-1.9667,-2.0237,-2.0296,-2.0501,-2.0823,-2.1094,-2.1211,-2.1211,-2.1211,-2.1211,-2.1211,-2.1211,-2.1211,-2.1211,-2.1211,-2.1211,-2.1211,0.0,0.0,0.0,0.0,0.0,0.0,0.0,0.0,0.0,0.0,0.0,0.0,0.0,0.0,0.0,0.0,0.0,0.0,-2.6546,0.0,0.0,-2.8039,-2.8039,-2.8119,0.0,0.0,0.0,0.0,0.0,0.0,0.0,0.0,0.0,-2.9792,0.0,0.0,-2.9792,-2.9792,-2.9792,-2.9869,-3.0482,-3.0343,-2.9869,-3.0722,-3.0659,-3.0075,-3.0292,-3.0228,-3.0075,-3.0292,-3.0228,0.0,0.0,0.0,-2.7557,-2.6841,-2.6045,-2.5388,-2.5496,0.0,-2.2245,0.0,-2.0151,-2.057,-2.057,-2.124,-2.1803,-2.1803,-2.1901,-2.2016,-2.2068,-2.2335,-2.2567,-2.2619,-2.2123,-2.1717,-2.1522,-2.1121,-2.0814,-2.0609,-2.0609,-2.0609,-2.0609,-1.9332,-1.7955,-1.6592,-1.6162,-1.5429,-1.4277,-1.6086,-1.7259,-1.7364,-1.8429,-1.9063,-1.9063,-1.9168,-1.9279,-1.9279,-1.9564,-1.9886,-2.0245,-2.053,-2.0837,-2.1152,-2.1189,-2.1211,-2.1211,-2.1211,-2.1211,-2.1211,-2.1211,-2.1211,-2.1211,-2.1554,-2.1439,-2.1325,0.0,0.0,0.0,0.0,0.0,0.0,0.0,0.0,0.0,0.0,0.0,0.0,0.0,0.0,0.0,-2.5984,-2.7094,-2.7718,-2.7718,-2.7799,-2.8051,-2.8462,-2.8462,-2.8712,-2.9209,0.0,0.0,0.0,0.0,0.0,0.0,-2.9792,-2.9792,0.0,0.0,0.0,0.0,-3.0203,-3.0216,-2.9856,-3.0709,-3.057,-2.9869,-3.0508,-3.0508,-3.0152,-3.0292,-3.0368,-3.0292,-3.0368,-3.0368,-3.0216,-2.9985,0.0,0.0,0.0,-2.7521,-2.6659,-2.5622,-2.4088,-2.2595,-2.1196,-2.0598,-2.0458,-2.0458,-2.0931,-2.1293,-2.1293,-2.1293,-2.1486,-2.2087,-2.2114,-2.2021,-2.2021,-2.1623,-2.1224,-2.1224,-2.1019,-2.0925,-2.0925,-2.0925,-2.0822,-2.0719,-1.9443,-1.8283,-1.745,-1.6599,-1.6068,-1.6086,-1.7047,-1.7898,-1.8534,-1.9063,-1.9279,-1.9279,-1.9279,-1.9279,-1.9279,-1.9608,-1.993,-2.0245,-2.0574,-2.0903,-2.1211,-2.1211,-2.1211,-2.1211,-2.1211,-2.1211,-2.1211,-2.1211,-2.1211,-2.1211,-2.1325,-2.1439,-2.1554,0.0,0.0,0.0,0.0,0.0,0.0,0.0,0.0,0.0,0.0,0.0,0.0,0.0,0.0,0.0,0.0,-2.8303,-2.8791,-2.8791,-2.8791,-2.8791,-2.8791,-2.8791,-2.9118,-2.9792,0.0,0.0,0.0,0.0,0.0,-2.9792,-2.9792,-2.9792,0.0,-2.9792,0.0,0.0,0.0,0.0,0.0,-3.0784,-3.0646,-2.9934,-3.0432,-3.052,-3.0305,-3.0444,-3.052,-3.0444,-3.052,-3.0611,-3.0726,-3.0829,-3.0464,0.0,0.0,0.0,-2.7632,-2.5542,0.0,-2.3284,-2.2057,-2.1303,-2.0821,-2.0628,-2.0734,-2.0925,-2.0925,-2.0925,-2.1121,-2.1928,-2.1725,-2.1522,-2.1522,-2.1121,-2.0925,-2.0925,-2.0925,-2.0925,-2.0925,-2.0925,-2.0822,-2.0617,-1.9235,-1.829,-1.8087,-1.7028,-1.6717,-1.7582,-1.7898,-1.8429,-1.9272,-1.9279,-1.9279,-1.9279,-1.9279,-1.9279,-1.9279,-1.9689,-2.0011,-2.0245,-2.0662,-2.0976,-2.1211,-2.1211,-2.1211,-2.1211,-2.1211,-2.1211,-2.1211,-2.1211,-2.1211,-2.1325,-2.1432,-2.1554,-2.1782,0.0,0.0,0.0,0.0,0.0,0.0,0.0,0.0,0.0,0.0,0.0,0.0,-2.6942,-2.7867,-2.8383,-2.8462,-2.9209,-2.9714,-2.9714,-2.9714,-2.9714,-2.9714,-2.9714,0.0,-2.9792,-2.9792,0.0,0.0,0.0,0.0,-2.9792,-2.9792,-2.9792,-2.9792,-2.9792,-2.9792,-2.9792,0.0,0.0,0.0,0.0,-3.0558,-3.0152,-3.1084,-3.1097,-3.0698,-3.0911,-3.0849,-3.0698,-3.0911,-3.1174,-3.1448,-3.1461,-3.0686,-2.9701,0.0,0.0,0.0,-2.5915,-2.5625,-2.5032,-2.2959,-2.2383,-2.2097,-2.1097,-2.0909,-2.0925,-2.0925,-2.0925,-2.0925,-2.1019,-2.0917,-2.0917,-2.0917,-2.0925,-2.0925,-2.0925,-2.0925,-2.0925,-2.0925,-2.0925,-2.0917,-2.0925,-1.9339,-1.8387,-1.8387,-1.7884,-1.7582,-1.7582,-1.8639,-1.9272,-1.9279,-1.9279,-1.9279,-1.9279,-1.9279,-1.9279,-1.9286,-1.9916,-2.0223,-2.0259,-2.0896,-2.1196,-2.1211,-2.1211,-2.1211,-2.1211,-2.1211,-2.1211,-2.1211,-2.1211,-2.1439,-2.1668,-2.2002,-2.2116,-2.2108,0.0,0.0,0.0,0.0,0.0,0.0,0.0,0.0,0.0,0.0,0.0,0.0,0.0,-2.8791,-2.9287,-2.9287,-2.9624,-2.9792,-2.9792,-2.9792,-2.9792,-2.9792,-2.9792,-2.9792,-2.9792,-2.9792,0.0,0.0,0.0,-2.9792,-2.9792,-2.9792,-2.9792,-2.9792,-2.9934,-3.0011,-3.0011,-3.0659,0.0,0.0,0.0,-3.1307,-3.1009,-3.1097,-3.0973,-3.0698,-3.0911,-3.0911,-3.0976,-3.1328,-3.1589,-3.1733,-3.2189,-3.1342,-3.0185,-2.9398,-2.8604,-2.7914,-2.7326,-2.6552,-2.5577,-2.3899,-2.3011,-2.2224,-2.1121,-2.0925,-2.0925,-2.0925,-2.0925,-2.0925,-2.0925,-2.0925,-2.0925,-2.0925,-2.0925,-2.0925,-2.0925,-2.0925,-2.0925,-2.0925,-2.0925,-2.0822,-2.0617,-2.0086,-1.9561,-1.9242,-1.9042,-1.884,-1.8743,-1.9063,-1.9279,-1.9279,-1.9279,-1.9279,-1.9279,-1.9279,-1.9279,-1.9286,-1.993,-2.0237,-2.0259,-2.0911,-2.1211,-2.1211,-2.1211,-2.1211,-2.1211,-2.1211,-2.1211,-2.1211,-2.1439,-2.1554,-2.1782,-2.2002,-2.223,-2.2456,0.0,0.0,0.0,0.0,0.0,0.0,0.0,0.0,0.0,-2.6565,0.0,0.0,0.0,0.0,-2.9934,-3.0011,-3.0011,-3.0011,-3.0011,-3.0011,-2.9934,-2.9856,-2.9934,-2.9934,-2.9792,-2.9869,0.0,0.0,0.0,0.0,0.0,-2.9792,-2.9869,-2.9934,-3.0292,-3.0292,0.0,0.0,0.0,-3.1158,-3.1442,-3.1455,-3.1172,-3.0898,-3.0836,-3.0849,-3.0911,-3.0823,-3.0674,-3.1164,-3.1225,-3.1149,-3.1787,-3.1318,-3.0167,-2.8914,-2.8384,-2.8113,-2.7809,-2.7136,-2.6157,-2.4982,-2.38,-2.2719,-2.1717,-2.1121,-2.0925,-2.0925,-2.0925,-2.0925,-2.0925,-2.0925,-2.0925,-2.0925,-2.0925,-2.0925,-2.0925,-2.0925,-2.0925,-2.0925,-2.0925,-2.0822,-2.0617,-2.0514,-2.0197,-1.9879,-1.968,-1.948,-1.9279,-1.9279,-1.9279,-1.9279,-1.9279,-1.9279,-1.9279,-1.9279,-1.9279,-1.9286,-1.993,-2.0237,-2.0259,-2.0911,-2.1211,-2.1211,-2.1211,-2.1211,-2.1211,-2.1211,-2.1211,-2.1211,-2.1554,-2.1782,-2.1896,-2.2116,-2.2456,-2.2683,0.0,0.0,0.0,0.0,0.0,0.0,0.0,0.0,-2.7476,-2.8383,0.0,0.0,0.0,0.0,0.0,-3.0432,-3.0432,-3.0444,-3.0432,-3.0444,-3.0368,-3.0152,-3.0292,-3.0228,-2.9792,-3.0011,-3.0011,0.0,0.0,0.0,0.0,0.0,-2.9856,-3.0152,-3.0872,-3.0797,-3.0228,0.0,-3.0983,-3.0583,-3.1044,-3.1071,-3.0773,-3.052,-3.0672,-3.0986,-3.0986,-3.0432,-2.9804,-3.029,-3.0098,-2.9784,-3.0479,-3.0302,-2.9543,-2.8362,-2.7809,-2.7536,0.0,0.0,0.0,-2.5984,-2.4894,-2.3899,-2.2719,-2.1725,-2.0917,-2.0925,-2.0925,-2.0925,-2.0925,-2.0925,-2.0925,-2.0925,-2.0925,-2.0925,-2.0925,-2.0925,-2.0925,-2.0925,-2.0925,-2.0925,-2.0925,-2.0395,-2.0086,-2.0078,-1.9576,-1.9279,-1.9279,-1.9279,-1.9279,-1.9279,-1.9279,-1.9279,-1.9279,-1.9279,-1.9279,-1.9286,-1.993,-2.0237,-2.0259,-2.0911,-2.1211,-2.1211,-2.1211,-2.1211,-2.1211,-2.1211,-2.1211,-2.1211,-2.1554,-2.1896,-2.2116,-2.2456,-2.2796,-2.3014,0.0,0.0,0.0,0.0,0.0,0.0,-2.6483,-2.6894,-2.7476,0.0,0.0,0.0,-2.9714,-3.0011,-3.0646,-3.1901,-3.1489,-3.1355,-3.1756,-3.1429,-3.1071,-3.0696,-3.0355,-3.0088,-2.9792,-2.9869,-2.9869,0.0,0.0,0.0,0.0,0.0,0.0,0.0,-3.0216,-3.0646,-3.1158,-3.2101,-3.2733,-3.3003,-3.2218,-3.206,-3.2205,-3.1172,-3.0836,-3.0773,-3.0773,-3.0458,-3.0052,-3.0424,-3.0373,-3.0233,-3.0325,-3.0235,-2.9909,-2.8921,-2.8384,-2.8113,-2.7904,0.0,0.0,0.0,0.0,0.0,-2.292,-2.2224,-2.1827,-2.1019,-2.0925,-2.0925,-2.0925,-2.0925,-2.0925,-2.0925,-2.0925,-2.0925,-2.0925,-2.0925,-2.0925,-2.0925,-2.0925,-2.0925,-2.0925,-2.0617,-2.03,-2.0086,-1.9783,-1.948,-1.9272,-1.9279,-1.9279,-1.9279,-1.9279,-1.9279,-1.9279,-1.9279,-1.9279,-1.9286,-1.993,-2.0237,-2.0259,-2.0911,-2.1211,-2.1211,-2.1439,-2.1554,-2.1554,-2.1554,-2.1668,-2.1888,-2.223,-2.2343,-2.2456,-2.2788,-2.2901,-2.3014,0.0,0.0,0.0,0.0,0.0,-2.6483,-2.7557,-2.7718,-2.8051,0.0,0.0,0.0,-3.0508,-3.0996,-3.1709,-3.2763,-3.242,-3.2349,-3.2621,-3.2362,-3.1942,-3.1636,-3.1381,-3.1022,-3.0797,-3.0508,-3.0355,0.0,0.0,0.0,0.0,0.0,0.0,0.0,0.0,0.0,0.0,0.0,-3.3311,-3.3213,-3.2563,-3.2205,-3.2001,-3.1097,-3.0761,-3.0875,-3.1109,-3.0764,-3.0325,-3.0587,-3.0245,-2.969,-2.9545,-2.9555,-2.9463,-2.8642,-2.8384,-2.8196,-2.7809,-2.7631,-2.7251,-2.6572,0.0,0.0,-2.3511,-2.282,-2.2224,-2.1121,-2.0925,-2.0925,-2.0925,-2.0925,-2.0925,-2.0925,-2.0925,-2.0925,-2.0925,-2.0925,-2.0925,-2.0925,-2.0925,-2.0925,-2.0925,-2.0514,-2.03,-2.0086,-1.9783,-1.948,-1.9279,-1.9279,-1.9279,-1.9279,-1.9279,-1.9279,-1.9279,-1.9279,-1.9279,-1.9286,-1.993,-2.0237,-2.0259,-2.0911,-2.1425,-2.1987,-2.1774,-2.2002,-2.2554,-2.223,-2.2116,-2.2116,-2.2456,-2.257,-2.2683,-2.2901,-2.3344,-2.368,0.0,0.0,-2.6894,-2.7232,-2.7232,-2.7557,-2.8462,-2.8621,-2.9028,0.0,-3.0228,-3.0646,-3.1796,-3.2478,-3.3045,-3.3422,-3.3353,-3.3353,-3.3437,-3.3241,-3.3044,-3.2761,-3.269,-3.2475,-3.2001,-3.1516,-3.1132,0.0,0.0,0.0,0.0,0.0,0.0,0.0,0.0,0.0,0.0,0.0,-3.3017,-3.2074,-3.2478,-3.2001,-3.0973,-3.0596,-3.0648,-3.1068,-3.1409,-3.1108,-3.0481,-3.0384,-2.9623,-2.8653,-2.8488,-2.8581,-2.8664,-2.8186,-2.7998,-2.7904,-2.7452,-2.7357,-2.7262,-2.7262,-2.6572,0.0,-2.4384,-2.3402,-2.2325,-2.1121,-2.0925,-2.0925,-2.0925,-2.0925,-2.0925,-2.0925,-2.0925,-2.0925,-2.0925,-2.0925,-2.0925,-2.0925,-2.0925,-2.0925,-2.0822,-2.0395,-2.0086,-2.0078,-1.9583,-1.9279,-1.9279,-1.9279,-1.9279,-1.9279,-1.9279,-1.9279,-1.9279,-1.9279,-1.9279,-1.9286,-1.993,-2.0237,-2.0259,-2.1023,-2.1987,-2.2974,-2.2214,-2.2667,-2.388,-2.3119,-2.257,-2.2222,-2.257,-2.2683,-2.2683,-2.3014,-2.3784,-2.4454,-2.6565,0.0,-2.7313,-2.8131,-2.8223,-2.8554,-2.9378,-2.9546,-2.9702,-3.0075,-3.0722,-3.1576,-3.2621,-3.282,-3.3463,-3.4935,-3.4476,-3.4259,-3.4787,-3.4341,-3.3851,-3.3367,-3.2903,-3.2245,-3.1193,-3.1636,-3.1563,-3.0895,0.0,0.0,0.0,0.0,0.0,0.0,0.0,0.0,0.0,-3.2461,-3.239,-3.1723,-3.255,-3.2263,-3.1307,-3.0659,-3.065,-3.0826,-3.0152,-2.9832,-2.9631,-2.8558,-2.8193,-2.8186,-2.8395,-2.8395,-2.8488,-2.8395,-2.8008,-2.7631,-2.7536,-2.7452,-2.7262,-2.7262,-2.7156,0.0,-2.4581,-2.389,-2.3203,-2.1318,-2.0925,-2.0925,-2.0925,-2.0925,-2.0925,-2.0925,-2.0925,-2.0925,-2.0925,-2.0925,-2.0925,-2.0925,-2.0925,-2.0822,-2.0617,-2.03,-1.9975,-1.9776,-1.948,-1.9279,-1.9279,-1.9279,-1.9279,-1.9279,-1.9279,-1.9279,-1.9279,-1.9279,-1.9279,-1.9286,-1.993,-2.0237,-2.0259,-2.1892,-2.2854,-2.3279,-2.3424,-2.3768,-2.4214,-2.4334,-2.3792,-2.2788,-2.2901,-2.2901,-2.3014,-2.4119,-2.4008,-2.3456,-2.7718,-2.8143,-2.8554,-2.9052,-2.9131,-2.93,-2.9714,-2.9792,-3.0011,-3.0722,-3.1988,-3.3045,-3.3533,-3.3973,-3.4558,-3.5424,-3.5133,-3.4986,-3.5213,-3.4839,-3.4423,-3.4099,-3.3756,-3.3255,-3.2648,-3.2648,-3.229,-3.1489,0.0,0.0,0.0,0.0,0.0,0.0,0.0,0.0,0.0,-3.1856,-3.2104,-3.2347,-3.2169,-3.1623,-3.0973,-3.0817,-3.0958,-3.1121,-3.0716,-3.0141,-2.9443,-2.8707,-2.8351,-2.8196,-2.8196,-2.829,-2.8395,-2.8113,-2.7831,-2.7536,-2.7452,-2.7357,-2.7262,-2.7262,-2.7262,0.0,0.0,-2.4088,-2.3493,-2.1318,-2.0925,-2.0925,-2.0925,-2.0925,-2.0925,-2.0925,-2.0925,-2.0925,-2.0925,-2.0925,-2.0925,-2.0925,-2.0925,-2.0822,-2.0719,-2.0506,-2.0094,-1.968,-1.948,-1.9279,-1.9279,-1.9279,-1.9279,-1.9279,-1.9279,-1.9279,-1.9279,-1.9279,-1.9279,-1.9286,-1.993,-2.0237,-2.0259,-2.2315,-2.3287,-2.3511,-2.4514,-2.5075,-2.5203,-2.5525,-2.4982,-2.3896,-2.4539,-2.4437,-2.4008,-2.4565,-2.477,-2.4753,-2.8712,0.0,-2.9792,-2.9792,-2.9792,-2.9792,-2.9792,-2.9934,-3.0432,-3.1589,-3.3199,-3.4245,-3.4245,-3.492,-3.5359,-3.5359,-3.5359,-3.5294,-3.5148,-3.5001,-3.4802,-3.4698,-3.4549,-3.4346,-3.4182,-3.3673,-3.3087,-3.229,0.0,0.0,0.0,0.0,0.0,0.0,0.0,0.0,0.0,-3.1267,-3.1748,-3.263,-3.1549,-3.0929,-3.0753,-3.1201,-3.1511,-3.1716,-3.1534,-3.0402,-2.8958,-2.905,-2.8724,-2.829,-2.8102,-2.8196,-2.8207,-2.782,-2.7631,-2.7536,-2.7357,-2.7262,-2.7262,-2.7262,-2.7262,-2.6764,0.0,0.0,0.0,-2.1615,-2.1019,-2.0925,-2.0925,-2.0925,-2.0925,-2.0925,-2.0925,-2.0925,-2.0925,-2.0925,-2.0925,-2.0925,-2.0925,-2.0925,-2.0822,-2.0514,-2.0205,-1.968,-1.948,-1.9279,-1.9279,-1.9279,-1.9279,-1.9279,-1.9279,-1.9279,-1.9279,-1.9279,-1.9279,-1.9286,-1.993,-2.0339,-2.0681,-2.2743,-2.395,-2.4292,-2.5709,-2.6372,-2.6509,-2.6707,-2.6173,-2.5203,-2.6164,-2.5845,-2.4778,-2.5,-2.5525,-2.6054,-2.9624,-2.9714,0.0,-2.9792,-2.9792,-2.9792,-2.9792,-3.0343,-3.1206,-3.2403,-3.3451,-3.4138,-3.4138,-3.4639,-3.5001,-3.5001,-3.5001,-3.4935,-3.4935,-3.4935,-3.4802,-3.4698,-3.4698,-3.4249,-3.3367,-3.3962,-3.3894,-3.3073,-3.2434,-3.2362,0.0,0.0,0.0,0.0,-3.0758,0.0,0.0,-3.0696,-3.0957,-3.0912,-3.077,-3.1207,-3.1893,-3.1784,-3.2021,-3.2268,-3.0849,-2.912,-2.7536,-2.7715,-2.7904,-2.8092,-2.8301,-2.8196,-2.7987,-2.7998,-2.762,-2.7357,-2.7262,-2.7262,-2.7262,-2.7262,-2.7262,-2.6965,-2.579,0.0,-2.38,-2.2518,0.0,-2.0925,-2.0925,0.0,0.0,-2.0925,-2.0925,-2.0925,-2.0925,-2.0925,-2.0925,-2.0925,-2.0925,-2.0822,-2.0522,-2.0101,-1.9783,-1.968,-1.948,-1.9279,-1.9279,-1.9279,-1.9279,-1.9279,-1.9279,-1.9279,-1.9279,-1.9279,-1.9279,-1.9286,-1.993,-2.0869,-2.2264,-2.4174,-2.5827,-2.7346,-2.7482,-2.7697,-2.8009,-2.8009,-2.7356,-2.6273,-2.6481,-2.5845,-2.4889,-2.5954,-2.5735,-2.5101,-2.9792,-2.9792,0.0,-2.9792,-2.9792,-2.9921,-3.0343,-3.1623,-3.2777,-3.3353,-3.4288,-3.4935,-3.4935,-3.5001,-3.5082,-3.5082,-3.5001,-3.4868,-3.4817,-3.475,-3.4683,-3.4549,-3.4549,-3.4332,-3.3894,-3.4264,-3.4045,-3.3213,-3.3381,-3.2875,0.0,0.0,0.0,0.0,-3.0279,-3.0343,-3.0432,-3.0624,-3.1084,-3.1793,-3.1737,-3.2219,-3.2842,-3.2428,-3.1938,-3.1189,-2.9999,-2.8631,-2.7357,-2.7357,-2.7726,-2.7998,-2.782,-2.7914,-2.7998,-2.762,-2.7441,-2.7262,-2.7262,-2.687,-2.6476,-2.7156,-2.637,-2.5373,-2.4884,-2.3899,-2.2911,-2.1827,0.0,0.0,0.0,0.0,0.0,0.0,-2.0925,-2.0925,-2.0925,-2.0925,-2.0925,-2.0925,-2.0925,-2.0822,-2.0719,-2.03,-1.9983,-1.9983,-1.9583,-1.9279,-1.9279,-1.9279,-1.9279,-1.9279,-1.9279,-1.9279,-1.9279,-1.9879,-1.9879,-1.9286,-2.138,-2.2453,-2.2478,-2.5352,-2.6698,-2.6797,-2.8349,-2.8784,-2.8223,-2.8996,-2.8562,-2.7571,-2.8232,-2.7375,-2.5954,-2.7032,-2.6816,-2.5954,-2.9792,0.0,0.0,-2.9792,-3.0011,-3.0419,-3.1402,-3.2847,-3.3934,-3.4192,-3.492,-3.5439,-3.5439,-3.505,-3.4815,-3.4815,-3.4604,-3.4471,-3.4368,-3.4528,-3.4563,-3.4414,-3.4414,-3.4414,-3.4414,-3.4414,-3.4113,-3.352,-3.3894,-3.3227,0.0,0.0,0.0,0.0,-2.9856,-3.0151,-3.0803,-3.0656,-3.1318,-3.252,-3.2466,-3.2638,-3.2907,-3.2604,-3.1438,-2.9966,-2.9257,-2.8269,-2.7357,-2.7357,-2.7631,-2.7809,-2.7536,-2.7726,-2.7809,-2.7146,-2.6955,-2.6774,-2.6466,-2.5877,-2.5489,-2.6274,-2.5275,-2.4088,-2.4088,-2.3311,-2.2325,-2.1522,-2.1121,0.0,0.0,0.0,-2.0925,-2.0925,0.0,-2.0925,-2.0925,-2.0925,-2.0925,-2.0925,-2.0925,-2.0925,-2.0925,-2.0395,-2.0078,-2.0078,-1.9576,-1.9279,-1.9279,-1.9279,-1.9279,-1.9279,-1.9279,-1.948,-1.9783,-2.0277,-2.0483,-2.0189,-2.2523,-2.3605,-2.3525,-2.6426,-2.7561,-2.7229,-2.9112,-2.9554,-2.8774,-2.9659,-2.9438,-2.8774,-2.9659,-2.8784,-2.7032,-2.7892,-2.7678,-2.7023,-2.9792,-2.9792,0.0,-2.9792,-3.0419,-3.1402,-3.2918,-3.3506,-3.407,-3.4787,-3.5082,-3.5213,-3.5213,-3.4309,-3.3732,-3.3732,-3.3616,-3.3565,-3.3565,-3.408,-3.4414,-3.4414,-3.4414,-3.4414,-3.4414,-3.4414,-3.4414,-3.4346,-3.3604,-3.3213,0.0,0.0,0.0,0.0,-3.0139,-3.0093,-3.0583,-3.0608,-3.1223,-3.219,-3.2202,-3.2018,-3.1713,-3.1965,-3.0699,-2.8724,-2.8724,-2.8081,-2.7357,-2.7536,-2.7631,-2.7631,-2.7904,-2.7809,-2.7431,-2.6446,-2.5974,-2.5489,-2.4482,-2.4187,-2.4187,-2.4187,-2.4187,-2.4088,-2.4088,-2.3311,-2.2526,-2.2426,-2.1623,-2.0925,-2.0925,-2.0925,-2.0925,-2.0925,-2.0925,0.0,0.0,-2.0925,-2.0925,-2.0925,-2.0925,-2.0925,-2.0925,-2.0395,-2.0078,-2.0078,-1.9576,-1.9279,-1.9279,-1.9279,-1.9279,-1.9279,-1.9279,-1.9776,-2.0885,-2.0078,-2.0577,-2.2391,-2.2733,-2.4027,-2.6153,-2.7295,-2.8552,-2.9879,-2.9994,-2.9994,-2.9994,-2.9994,-2.9994,-2.9994,-2.9994,-2.9217,-2.8116,-2.8223,-2.8223,-2.8116,0.0,0.0,0.0,0.0,-3.0758,-3.1549,-3.3283,-3.4031,-3.4441,-3.446,-3.4416,-3.4268,-3.3809,-3.3333,-3.3264,-3.3659,-3.3587,-3.3645,-3.4066,-3.4298,-3.4414,-3.4414,-3.4414,-3.4414,-3.4414,-3.4414,-3.4414,-3.4414,-3.4113,-3.3451,0.0,0.0,0.0,0.0,-3.0312,-3.0444,-3.067,-3.1373,-3.1888,-3.224,-3.2629,-3.2364,-3.1536,-3.0991,-2.9897,-2.8631,-2.7998,-2.7536,-2.7357,-2.7357,-2.7441,-2.7631,-2.7536,-2.7536,-2.7347,-2.6167,-2.579,-2.5499,-2.4384,-2.3601,-2.3211,-2.389,-2.3003,-2.2215,-2.292,-2.2224,-2.142,-2.142,-2.1121,-2.0925,-2.0925,-2.0925,-2.0925,-2.0925,-2.0925,-2.0925,0.0,-2.0925,-2.0925,-2.0925,-2.0925,-2.0822,-2.0617,-2.0292,-1.9983,-1.9887,-1.948,-1.9279,-1.9279,-1.9279,-1.9279,-1.9279,-1.9983,-2.0181,-1.9879,-2.1887,-2.2612,-2.2158,-2.5014,-2.6567,-2.6968,-2.8515,-2.9554,-2.9994,-2.9994,-2.9994,-2.9994,-2.9994,-2.9994,-2.9994,-2.9994,-2.9774,-2.9438,-2.9438,-2.889,-2.8329,-3.0139,-3.0545,-3.0895,-3.0895,-3.1328,-3.2277,-3.3811,-3.4196,-3.4252,-3.407,-3.3819,-3.3509,-3.3066,-3.2878,-3.2957,-3.3337,-3.3456,-3.3645,-3.4051,-3.4283,-3.4264,-3.3977,-3.4264,-3.4128,-3.3604,-3.4128,-3.4128,-3.3604,-3.3825,-3.3157,0.0,0.0,0.0,0.0,-3.0457,-3.0821,-3.1223,-3.1926,-3.2328,-3.2554,-3.293,-3.2264,-3.108,-3.0441,-2.9543,-2.8538,-2.7631,-2.7262,-2.7262,-2.7262,-2.7357,-2.7452,-2.7357,-2.7357,-2.7251,-2.6081,-2.5392,-2.4894,-2.38,-2.271,-2.2123,-2.2802,-2.1912,-2.1121,-2.1725,-2.142,-2.0925,-2.0925,-2.0925,-2.0925,-2.0925,-2.0925,-2.0925,-2.0925,-2.0925,-2.0925,0.0,-2.0925,-2.0925,-2.0925,-2.0925,-2.0822,-2.0522,-2.03,-1.9983,-1.968,-1.948,-1.9279,-1.9279,-1.9279,-1.948,-1.9879,-2.0285,-2.068,-2.1183,-2.3024,-2.3934,-2.3879,-2.6691,-2.7951,-2.791,-2.9339,-2.9994,-2.9994,-2.9994,-2.9994,-2.9994,-2.9994,-2.9994,-2.9994,-2.9994,-2.9994,-2.9994,-2.9994,-2.9554,-2.8996,-3.0758,-3.0957,-3.1044,-3.1031,-3.2277,-3.352,-3.4264,-3.3981,-3.3688,-3.3659,-3.3294,-3.2945,-3.2915,-3.2864,-3.2811,-3.2825,-3.3252,-3.3485,-3.3514,-3.408,-3.4045,-3.3297,-3.3962,-3.3673,-3.216,-3.3604,-3.3604,-3.2146,-3.2861,-3.2434,0.0,0.0,0.0,0.0,-3.0683,-3.126,-3.2215,-3.224,-3.2579,-3.3081,-3.3081,-3.1901,-3.026,-3.017,-2.9532,-2.8538,-2.7631,-2.7262,-2.7262,-2.7262,-2.7262,-2.7262,-2.7262,-2.7262,-2.7061,-2.5984,-2.4894,-2.3899,-2.2719,-2.1725,-2.0925,-2.0925,-2.0925,-2.0925,-2.0925,-2.0925,-2.0925,-2.0925,-2.0925,-2.0925,-2.0925,-2.0925,-2.0925,-2.0925,-2.0925,-2.0925,-2.0925,-2.0925,-2.0925,-2.0925,-2.0925,-2.0822,-2.0522,-2.03,-1.9983,-1.968,-1.948,-1.9383,-1.9376,-1.9376,-1.9879,-2.0885,-2.0285,-2.1387,-2.4285,-2.3472,-2.4398,-2.721,-2.7617,-2.8231,-2.9024,-2.9683,-2.9994,-2.9994,-2.9994,-2.9994,-2.9994,-2.9994,-2.9994,-2.9994,-2.9994,-2.9994,-2.9994,-2.9994,-2.9994,-2.9994,-3.0895,-3.1842,-3.2791,-3.3381,-3.3825,-3.4196,-3.4563,-3.401,-3.3427,-3.3089,-3.2806,-3.2436,-3.1941,-3.2271,-3.278,-3.326,-3.3434,-3.3674,-3.4138,-3.4312,-3.4332,-3.4113,-3.3742,-3.3297,-3.2932,-3.3297,-3.3297,-3.2932,-3.3073,-3.2941,-3.2353,0.0,0.0,0.0,-3.1625,-3.1951,-3.224,-3.2667,-3.2943,-3.3068,-3.2264,-3.1713,-3.108,-2.9635,-2.8899,-2.8538,-2.7631,-2.7262,-2.7262,-2.7262,-2.7262,-2.7262,-2.7262,-2.7262,-2.6965,-2.508,-2.4295,-2.3692,-2.1818,-2.1121,-2.0925,-2.0925,-2.0925,-2.0925,-2.0925,-2.0925,-2.0925,-2.0925,-2.0925,-2.0925,-2.0925,-2.0925,-2.0925,-2.0925,-2.0925,-2.0925,-2.0925,-2.0925,-2.0925,-2.0925,-2.0719,-2.0617,-2.0522,-2.03,-1.9983,-1.968,-1.948,-1.9783,-2.068,-2.0783,-2.0987,-2.1489,-2.2885,-2.3185,-2.2391,-2.5083,-2.6475,-2.6787,-2.8176,-2.9157,-2.9714,-2.9942,-2.9994,-2.9994,-2.9994,-2.9994,-2.9994,-2.9994,-2.9994,-2.9994,-2.9994,-2.9994,-2.9994,-2.9994,-2.9994,-2.9994,-3.1842,-3.2861,-3.3894,-3.4332,-3.4182,-3.4074,-3.4141,-3.3769,-3.3369,-3.3044,-3.2703,-3.2431,-3.2288,-3.2655,-3.3079,-3.3507,-3.3717,-3.4037,-3.4385,-3.4045,-3.3894,-3.3894,-3.3157,-3.2563,-3.2205,-3.2577,-3.2362,-3.1723,-3.2258,-3.2334,-3.1874,0.0,0.0,0.0,0.0,-3.2353,-3.2616,-3.2943,-3.281,-3.2351,-3.1813,-3.108,0.0,-2.9084,-2.8445,-2.7998,-2.7536,-2.7262,-2.7262,-2.7262,-2.7262,-2.7262,-2.7262,-2.6965,-2.637,-2.5187,-2.4097,-2.3111,-2.192,-2.1224,-2.0925,-2.0925,-2.0925,-2.0925,-2.0925,-2.0925,-2.0925,-2.0925,-2.0925,-2.0925,-2.0925,-2.0925,-2.0925,-2.0925,-2.1318,-2.1623,-2.1623,-2.1623,-2.1818,-2.2207,-2.1717,-2.1522,-2.1912,-2.079,-2.038,-2.1089,-2.0483,-2.0483,-2.1285,-2.1785,-2.2089,-2.2383,-2.3692,-2.4369,-2.4236,-2.6277,-2.7533,-2.7749,-2.9055,-2.9746,-2.9994,-2.9994,-2.9994,-2.9994,-2.9994,-2.9994,-2.9994,-2.9994,-2.9994,-2.9994,-2.9994,-2.9994,-2.9994,-2.9994,-2.9994,-2.9994,-3.3227,-3.3894,-3.4414,-3.4414,-3.3964,-3.3558,-3.3485,-3.3398,-3.336,-3.3306,-3.2947,-3.282,-3.3309,-3.3519,-3.3601,-3.3601,-3.4095,-3.4414,-3.4414,-3.3742,-3.3297,-3.3213,-3.2506,-3.1709,-3.0895,-3.1563,-3.132,-3.0035,-3.1151,-3.1474,0.0,0.0,0.0,0.0,0.0,-3.2604,-3.3081,-3.3081,-3.2537,-3.1625,-3.1448,-3.0351,-2.8724,-2.8538,-2.7987,-2.7262,-2.7262,-2.7262,-2.7262,-2.7262,-2.7262,-2.7262,-2.7262,-2.6572,-2.5693,-2.5489,-2.4106,-2.2426,-2.2325,-2.1623,-2.0925,-2.0925,-2.0925,-2.0925,-2.0925,-2.0925,-2.0925,-2.0925,-2.0925,-2.0925,-2.0925,-2.0925,-2.0925,-2.0925,-2.1725,-2.2325,-2.2526,-2.2526,-2.292,-2.3989,-2.3211,0.0,-2.389,-2.1887,-2.1183,-2.2793,-2.2089,-2.1582,-2.1777,-2.2685,-2.3384,-2.3592,-2.4035,-2.5239,-2.7435,-2.7331,-2.7974,-2.9311,-2.9777,-2.9994,-2.9994,-2.9994,-2.9994,-2.9994,-2.9994,-2.9994,-2.9994,-2.9994,-2.9994,-2.9994,-2.9994,-2.9994,-2.9994,-2.9994,-2.9994,-2.9994,-3.4045,-3.4264,-3.4414,-3.4414,-3.4312,-3.4066,-3.3558,-3.3021,-3.2896,-3.3369,-3.3362,-3.3362,-3.3427,-3.3929,-3.424,-3.424,-3.4356,-3.4414,-3.4414,-3.4264,-3.3894,-3.3213,-3.2506,-3.1709,-3.0895,-3.1044,-3.1206,-3.1383,-3.1628,-3.2098,-3.2898,-3.2345,-3.2378,0.0,0.0,-3.298,-3.3081,-3.3081,-3.2537,-3.1536,-3.0711,-2.9715,-2.8631,-2.7809,-2.7441,-2.7262,-2.7262,-2.7262,-2.7262,-2.7262,-2.7262,-2.7262,-2.7262,-2.6572,-2.5499,-2.459,-2.3511,-2.2325,-2.142,-2.1019,-2.0925,-2.0925,-2.0925,-2.0925,-2.0925,-2.0925,-2.0925,-2.0925,-2.0925,-2.0925,-2.0925,-2.0925,-2.0925,-2.0925,-2.1019,-2.153,-2.2426,-2.2526,-2.292,-2.3989,-2.3493,-2.3692,-2.5197,-2.3791,-2.2885,-2.3194,-2.2885,-2.3176,-2.4562,-2.4758,-2.4963,-2.5285,-2.6515,-2.6951,-2.6636,-2.8147,-2.9014,-2.9311,-2.9777,-2.9994,-2.9994,-2.9994,-2.9994,-2.9994,-2.9994,-2.9994,-2.9994,-2.9994,-2.9994,-2.9994,-2.9994,-2.9994,-2.9994,-2.9994,-2.9994,-2.9994,-3.3854,-3.392,-3.4022,-3.4356,-3.4138,-3.3935,-3.3949,-3.3427,-3.3252,-3.3789,-3.3944,-3.4083,-3.4332,-3.4426,-3.4414,-3.4414,-3.4414,-3.4196,-3.3811,-3.3395,-3.3017,-3.2648,-3.1516,-3.1065,-3.1326,-3.092,-3.1047,-3.1519,-3.1813,-3.2235,-3.2784,-3.2685,-3.2805,-3.3081,0.0,-3.3081,-3.3081,-3.2537,-3.1713,-3.0812,-2.9806,-2.8806,-2.7893,-2.7441,-2.7262,-2.7262,-2.7262,-2.7262,-2.7262,-2.7262,-2.7262,-2.7262,-2.7262,-2.6177,-2.4796,-2.4285,-2.2902,-2.1522,-2.1019,-2.0925,-2.0925,-2.0925,-2.0925,-2.0925,-2.0925,-2.0925,-2.0925,-2.0925,-2.0925,-2.0925,-2.0925,-2.0925,-2.0925,-2.0925,-2.181,-2.271,-2.3311,-2.3809,-2.4599,-2.5674,-2.508,-2.4992,-2.5994,-2.5392,-2.4992,-2.4992,-2.4295,-2.4187,-2.4894,-2.5791,-2.6114,-2.5828,-2.7448,-2.8191,-2.7935,-2.888,-2.9425,-2.9663,-2.9891,-2.9994,-2.9994,-2.9994,-2.9994,-2.9994,-2.9994,-2.9994,-2.9994,-2.9994,-2.9994,-2.9994,-2.9994,-2.9994,-2.9994,-2.9994,-2.9994,-2.9994,-3.3645,-3.3674,-3.3819,-3.4327,-3.4008,-3.3833,-3.4341,-3.3993,-3.3791,-3.4218,-3.4347,-3.4534,-3.4971,-3.4668,-3.4414,-3.4414,-3.4264,-3.3962,-3.352,-3.2577,-3.2074,-3.2074,-3.0901,-3.0585,-3.1448,-3.1001,-3.1035,-3.1562,-3.2001,-3.2215,-3.2227,-3.2805,-3.3081,-3.3081,-3.3081,-3.2982,-3.2711,-3.1901,-3.0902,-2.9806,-2.8991,-2.8175,-2.7262,-2.7262,-2.7262,-2.7262,-2.7262,-2.7262,-2.7262,-2.7262,-2.7262,-2.7262,-2.7262,-2.5868,-2.4088,-2.4088,-2.261,-2.0925,-2.0925,-2.0925,-2.0925,-2.0925,-2.0925,-2.0925,-2.0925,-2.098,-2.1036,-2.1036,-2.1091,-2.1243,-2.1441,-2.1545,-2.1545,-2.1854,-2.3349,-2.4454,-2.4644,-2.5379,-2.6259,-2.7435,-2.6597,-2.6267,-2.6855,-2.6714,-2.6673,-2.6855,-2.5977,-2.5331,-2.5153,-2.6656,-2.7192,-2.6575,-2.8005,-2.8938,-2.9301,-2.9404,-2.9632,-2.9994,-2.9994,-2.9994,-2.9994,-2.9994,-2.9994,-2.9994,-2.9994,-2.9994,-2.9994,-2.9994,-2.9994,-2.9994,-2.9994,-2.9994,-2.9994,-2.9994,-2.9994,-2.9994,-3.4211,-3.4327,-3.4341,-3.4399,-3.4356,-3.4341,-3.4399,-3.4356,-3.4327,-3.4394,-3.437,-3.4414,-3.4481,-3.4414,-3.4414,-3.4414,-3.3742,-3.3589,-3.4264,-3.2875,-3.2074,-3.2074,-3.1695,-3.1267,-3.0675,-3.1072,-3.1587,-3.2139,-3.219,-3.2215,-3.2227,-3.2805,-3.3081,-3.3081,-3.3081,-3.2624,-3.1713,-3.1625,-3.0531,-2.8806,-2.8724,-2.8175,-2.7262,-2.7262,-2.7262,-2.7262,-2.7262,-2.7262,-2.7262,-2.7262,-2.7262,-2.7262,-2.7262,-2.5868,-2.4088,-2.4088,-2.261,-2.0925,-2.0925,-2.0925,-2.0925,-2.0925,-2.0925,-2.0925,-2.0925,-2.1171,-2.1401,-2.1401,-2.1648,-2.2175,-2.3212,-2.3414,-2.3835,-2.4878,-2.5197,-2.5713,-2.6643,-2.6523,-2.6824,-2.8342,-2.7477,-2.7207,-2.8311,-2.7467,-2.7227,-2.8013,-2.741,-2.709,-2.7276,-2.801,-2.8445,-2.8346,-2.8899,-2.9259,-2.9301,-2.9715,-2.9953,-2.9994,-2.9994,-2.9994,-2.9994,-2.9994,-2.9994,-2.9994,-2.9994,-2.9994,-2.9994,-2.9994,-2.9994,-2.9994,-2.9994,-2.9994,-2.9994,-2.9994,-2.9994,-2.9994,-3.3717,-3.3848,-3.3964,-3.4356,-3.4414,-3.4414,-3.4414,-3.4414,-3.4414,-3.4414,-3.4414,-3.4414,-3.4414,-3.4414,-3.4414,-3.4414,-3.3659,-3.3157,-3.303,-3.2001,-3.1365,-3.1215,-3.1073,-3.1204,-3.1562,-3.1775,-3.2164,-3.2729,-3.2729,-3.2729,-3.2742,-3.2968,-3.3081,-3.3081,-3.3081,-3.2537,-3.1536,-3.0991,-2.9988,-2.8631,-2.8081,-2.762,-2.7262,-2.7262,-2.7262,-2.7262,-2.7262,-2.7262,-2.7262,-2.7262,-2.7262,-2.7262,-2.7262,-2.5868,-2.4088,-2.4088,-2.261,-2.0925,-2.0925,-2.0925,-2.0972,-2.1187,-2.1242,-2.129,-2.1497,-2.1655,-2.1759,-2.1759,-2.1862,-2.2379,-2.3525,-2.3728,-2.4149,-2.5307,-2.6041,-2.6554,-2.6973,-2.725,-2.7723,-2.8307,-2.7811,-2.7531,-2.7864,-2.7592,-2.7442,-2.7481,-2.7501,-2.7567,-2.7742,-2.837,-2.8808,-2.8808,-2.9374,-2.9715,-2.9715,-2.9901,-2.9994,-2.9994,-2.9994,-2.9994,-2.9994,-2.9994,-2.9994,-2.9994,-2.9994,-2.9994,-2.9994,-2.9994,-2.9994,-2.9994,-2.9994,-2.9994,-2.9994,-2.9774,-2.9774,-2.9774,-3.363,-3.3746,-3.3891,-3.4341,-3.4414,-3.4414,-3.4414,-3.4414,-3.4414,-3.4414,-3.4414,-3.4332,-3.4045,-3.4264,-3.4196,-3.3756,-3.3227,-3.2648,-3.2146,-3.129,-3.0843,-3.0953,-3.0989,-3.1436,-3.219,-3.2378,-3.2667,-3.3081,-3.3081,-3.2993,-3.283,-3.283,-3.2918,-3.3081,-3.281,-3.2077,-3.1169,-3.017,-2.9176,-2.8269,-2.7536,-2.7262,-2.7262,-2.7262,-2.7262,-2.7262,-2.7262,-2.7262,-2.7262,-2.7262,-2.7262,-2.7251,-2.6965,-2.5382,-2.3601,-2.3601,-2.2316,-2.0941,-2.1052,-2.1076,-2.1163,-2.1513,-2.16,-2.1663,-2.1902,-2.2037,-2.214,-2.2251,-2.2267,-2.2695,-2.3858,-2.4277,-2.4907,-2.6076,-2.724,-2.7879,-2.7766,-2.8096,-2.8381,-2.8513,-2.8178,-2.7915,-2.8064,-2.8066,-2.8026,-2.7889,-2.7995,-2.8084,-2.8117,-2.8737,-2.9178,-2.9188,-2.9714,-2.9994,-2.9994,-2.9994,-2.9994,-2.9994,-2.9994,-2.9994,-2.9994,-2.9994,-2.9994,-2.9994,-2.9994,-2.9994,-2.9994,-2.9994,-2.9994,-2.9994,-2.9994,-2.9994,-2.9879,-2.9669,-2.9554,-2.9448,-3.4283,-3.4399,-3.4399,-3.4414,-3.4414,-3.4414,-3.4414,-3.4414,-3.4414,-3.4414,-3.4414,-3.4113,-3.3297,-3.3894,-3.3756,-3.2232,-3.2146,-3.2074,-3.2074,-3.1177,-3.0966,-3.168,-3.1983,-3.2202,-3.2215,-3.2767,-3.3068,-3.3081,-3.3081,-3.278,-3.2227,-3.2227,-3.2528,-3.3081,-3.2077,-3.108,-3.017,-2.9176,-2.8175,-2.7357,-2.7262,-2.7262,-2.7262,-2.7262,-2.7262,-2.7262,-2.7262,-2.7262,-2.7262,-2.7262,-2.7262,-2.7156,-2.6081,-2.4205,-2.2526,-2.2526,-2.1725,-2.0996,-2.1346,-2.1336,-2.152,-2.1862,-2.1949,-2.1949,-2.1957,-2.2227,-2.2577,-2.2934,-2.3006,-2.3336,-2.4548,-2.5726,-2.6797,-2.799,-2.9207,-2.9869,-2.9649,-2.9176,-2.896,-2.9061,-2.8563,-2.8584,-2.9452,-2.8942,-2.899,-2.9911,-2.9549,-2.9086,-2.8478,-2.9204,-2.9659,-2.9984,-2.9994,-2.9994,-2.9994,-2.9994,-2.9994,-2.9994,-2.9994,-2.9994,-2.9994,-2.9994,-2.9994,-2.9994,-2.9994,-2.9994,-2.9994,-2.9994,-2.9994,-2.9994,-2.9994,-2.9879,-2.9554,-2.9554,-2.9343,-2.9026,-3.4283,-3.4414,-3.4414,-3.4414,-3.4414,-3.4414,-3.4414,-3.3962,-3.3742,-3.4346,-3.3465,-3.2733,-3.2506,-3.3157,-3.3157,-3.216,-3.1923,-3.1849,-3.1849,-3.1432,-3.1379,-3.1965,-3.2097,-3.239,-3.2792,-3.298,-3.3081,-3.3081,-3.3081,-3.298,-3.2805,-3.2805,-3.2537,-3.2077,-3.1713,-3.0722,-2.9176,-2.8817,-2.8175,-2.7262,-2.7262,-2.7262,-2.7262,-2.7262,-2.7262,-2.7262,-2.7262,-2.7262,-2.7262,-2.7262,-2.6764,-2.6237,-2.6143,-2.5022,-2.3655,-2.3824,-2.2698,-2.1354,-2.1703,-2.1798,-2.1878,-2.2227,-2.2323,-2.2378,-2.2625,-2.2768,-2.2879,-2.299,-2.3014,-2.356,-2.5626,-2.6273,-2.714,-2.9112,-2.9774,-2.9994,-2.9879,-2.9546,-2.9401,-2.9428,-2.909,-2.8935,-2.9207,-2.9299,-2.9248,-2.9132,-2.9116,-2.9245,-2.9464,-2.9702,-2.9879,-2.9994,-2.9994,-2.9994,-2.9994,-2.9994,-2.9994,-2.9994,-2.9994,-2.9994,-2.9994,-2.9994,-2.9994,-2.9994,-2.9994,-2.9994,-2.9994,-2.9994,-2.9879,-2.9774,-2.9774,-2.9564,-2.9237,-2.9036,-2.894,-2.8834,-3.4341,-3.4414,-3.4414,-3.4414,-3.4414,-3.4264,-3.3977,-3.3742,-3.3604,-3.3534,-3.2946,-3.229,-3.1709,-3.2264,-3.2326,-3.1611,-3.1638,-3.1694,-3.1602,-3.1699,-3.1851,-3.2202,-3.2416,-3.2704,-3.3068,-3.3081,-3.3081,-3.3081,-3.3081,-3.3081,-3.3081,-3.2711,-3.2176,-3.1536,-3.0812,-2.9818,-2.8724,-2.8362,-2.7809,-2.7262,-2.7262,-2.7262,-2.7262,-2.7262,-2.7262,-2.7262,-2.7262,-2.7262,-2.7282,-2.7448,-2.6814,-2.5996,-2.6435,-2.5365,-2.3994,-2.4235,-2.2975,-2.1719,-2.2061,-2.2156,-2.2243,-2.2593,-2.2688,-2.2744,-2.2966,-2.3014,-2.3127,-2.3568,-2.368,-2.4214,-2.6164,-2.6806,-2.758,-2.9112,-2.9669,-2.9994,-2.9879,-2.9669,-2.9554,-2.9448,-2.9343,-2.9237,-2.9132,-2.9448,-2.9459,-2.894,-2.9248,-2.9564,-2.9879,-2.9774,-2.9784,-2.9994,-2.9994,-2.9994,-2.9994,-2.9994,-2.9994,-2.9994,-2.9994,-2.9994,-2.9994,-2.9994,-2.9994,-2.9994,-2.9994,-2.9994,-2.9889,-2.9889,-2.9669,-2.9448,-2.9448,-2.9237,-2.893,-2.8727,-2.8621,-2.8534,-3.4414,-3.4414,-3.4414,-3.4414,-3.4414,-3.4113,-3.3367,-3.3825,-3.3756,-3.2376,-3.2648,-3.2448,-3.1097,-3.1355,-3.1345,-3.0788,-3.1369,-3.1641,-3.1493,-3.1964,-3.2277,-3.2277,-3.2792,-3.3081,-3.3081,-3.3081,-3.3081,-3.3081,-3.3081,-3.3081,-3.2982,-3.2077,-3.1536,-3.1347,-2.9543,-2.8631,-2.8538,-2.7631,-2.7262,-2.7262,-2.7262,-2.7262,-2.7262,-2.7262,-2.7262,-2.7262,-2.7293,-2.7303,-2.7376,-2.7723,-2.716,-2.6316,-2.6652,-2.5344,-2.3682,-2.3674,-2.2938,-2.2077,-2.2426,-2.2521,-2.2601,-2.2934,-2.3014,-2.3014,-2.3014,-2.3014,-2.3456,-2.4565,-2.4889,-2.5322,-2.6381,-2.7463,-2.8223,-2.8329,-2.9227,-2.9879,-2.9659,-2.9659,-2.9554,-2.9132,-2.9448,-2.9448,-2.9132,-2.9669,-2.9774,-2.9132,-2.9669,-2.9879,-2.9659,-2.9343,-2.9448,-2.9994,-2.9994,-2.9994,-2.9994,-2.9994,-2.9994,-2.9994,-2.9994,-2.9994,-2.9994,-2.9994,-2.9994,-2.9994,-2.9994,-2.9774,-2.9554,-2.9554,-2.9343,-2.9026,-2.9026,-2.893,-2.8621,-2.8621,-2.8534,-2.8389,-3.4414,-3.4414,-3.4414,-3.4414,-3.4414,-3.4346,-3.4113,-3.3241,-3.2733,-3.2932,-3.1576,-3.0801,-3.142,-3.1099,-3.1082,-3.1763,-3.1978,-3.2028,-3.2001,-3.2554,-3.2867,-3.2867,-3.3006,-3.3081,-3.3081,-3.3081,-3.3081,-3.3081,-3.3081,-3.2711,-3.1989,-3.1713,-3.0812,-2.936,-2.891,-2.8258,-2.7631,-2.7347,-2.7262,-2.7262,-2.7262,-2.7262,-2.7262,-2.7262,-2.7262,-2.7303,-2.7645,-2.7769,-2.7734,-2.7262,-2.6999,-2.6662,-2.6162,-2.5138,-2.3968,-2.3968,-2.3219,-2.2434,-2.2791,-2.2895,-2.2911,-2.299,-2.3014,-2.3014,-2.3014,-2.3672,-2.4445,-2.4778,-2.5525,-2.649,-2.7571,-2.8009,-2.8445,-2.9438,-2.9774,-2.9994,-2.9879,-2.9889,-2.9774,-2.9554,-2.9554,-2.9554,-2.9448,-2.9659,-2.9669,-2.9448,-2.9659,-2.9669,-2.9554,-2.9554,-2.9669,-2.9994,-2.9994,-2.9994,-2.9994,-2.9994,-2.9994,-2.9994,-2.9994,-2.9879,-2.9659,-2.9659,-2.9564,-2.9343,-2.9343,-2.9237,-2.9237,-2.9237,-2.9036,-2.8834,-2.8834,-2.8621,-2.8398,-2.8398,-2.8496,-2.8779,-3.4346,-3.4414,-3.4414,-3.4414,-3.4113,-3.3756,-3.3395,-3.2662,-3.2015,-3.1723,-3.0859,-3.056,-3.1111,-3.1036,-3.1298,-3.2139,-3.2215,-3.2328,-3.2591,-3.2905,-3.3081,-3.3081,-3.2982,-3.2982,-3.3081,-3.2982,-3.2982,-3.3081,-3.2624,-3.2164,-3.1625,-3.0722,-2.9726,-2.8724,-2.8269,-2.7809,-2.7262,-2.7262,-2.7262,-2.7262,-2.7262,-2.7262,-2.7282,-2.7479,-2.7562,-2.7624,-2.8079,-2.8235,-2.8208,-2.8036,-2.7246,-2.638,-2.6157,-2.4998,-2.3599,-2.3599,-2.3164,-2.2768,-2.2966,-2.3014,-2.3014,-2.3014,-2.3014,-2.3014,-2.3014,-2.3456,-2.4223,-2.5305,-2.6054,-2.7032,-2.8668,-2.8996,-2.9217,-2.9879,-2.9889,-2.9774,-2.9774,-2.9774,-2.9774,-2.9659,-2.9669,-2.9764,-2.9659,-2.9659,-2.9669,-2.9343,-2.9554,-2.9554,-2.9343,-2.9343,-2.9554,-2.9774,-2.9774,-2.9774,-2.9774,-2.9994,-2.9994,-2.9774,-2.9774,-2.9669,-2.9343,-2.9343,-2.9237,-2.9132,-2.9132,-2.9026,-2.893,-2.893,-2.8727,-2.8514,-2.8514,-2.8408,-2.831,-2.8506,-2.8721,-2.8975,-3.4264,-3.4264,-3.4196,-3.4196,-3.352,-3.2791,-3.2218,-3.2001,-3.1429,-3.0152,-3.0483,-3.0817,-3.075,-3.1198,-3.1738,-3.229,-3.234,-3.2554,-3.3043,-3.3081,-3.3081,-3.3081,-3.2896,-3.2896,-3.3081,-3.2896,-3.281,-3.2896,-3.1989,-3.1448,-3.1169,-2.9452,-2.8631,-2.8445,-2.7631,-2.7262,-2.7262,-2.7262,-2.7303,-2.7365,-2.7365,-2.7396,-2.75,-2.7883,-2.8028,-2.809,-2.8556,-2.8721,-2.8783,-2.9034,-2.7705,-2.5952,-2.6173,-2.4753,-2.3014,-2.3014,-2.3014,-2.3014,-2.3014,-2.3014,-2.3014,-2.3014,-2.3014,-2.3014,-2.3231,-2.3456,-2.4103,-2.6273,-2.6924,-2.7688,-2.9659,-2.9994,-2.9994,-2.9994,-2.9774,-2.9659,-2.9659,-2.9659,-2.9659,-2.9554,-2.9774,-2.9774,-2.9459,-2.9669,-2.9574,-2.9132,-2.9343,-2.9448,-2.9132,-2.9132,-2.9237,-2.9554,-2.9554,-2.9554,-2.9554,-2.9774,-2.9774,-2.9554,-2.9554,-2.9343,-2.9036,-2.9036,-2.9026,-2.9026,-2.9026,-2.893,-2.8737,-2.8727,-2.8621,-2.8398,-2.8398,-2.8437,-2.8545,-2.8898,-2.9004,-2.9219,-3.4414,-3.3811,-3.3367,-3.3367,-3.2791,-3.2218,-3.2146,-3.1489,-3.097,-3.0758,-3.0688,-3.083,-3.121,-3.175,-3.2315,-3.2893,-3.2943,-3.298,-3.3068,-3.3081,-3.3081,-3.3081,-3.3081,-3.3081,-3.3081,-3.3081,-3.2624,-3.1813,-3.1713,-3.0722,-2.9176,-2.8817,-2.8269,-2.7536,-2.7357,-2.7262,-2.7262,-2.7262,-2.7479,-2.7821,-2.7821,-2.8048,-2.8411,-2.8483,-2.8504,-2.8566,-2.9032,-2.9197,-2.9157,-2.8525,-2.7475,-2.6191,-2.5296,-2.4111,-2.3014,-2.3014,-2.3014,-2.3014,-2.3014,-2.3014,-2.3014,-2.3014,-2.3014,-2.3239,-2.4342,-2.5305,-2.6372,-2.7678,-2.8774,-2.9554,-2.9889,-2.9994,-2.9994,-2.9994,-2.9994,-2.9994,-2.9994,-2.9994,-2.9774,-2.9237,-2.9237,-2.9142,-2.8834,-2.8834,-2.894,-2.9132,-2.9132,-2.9132,-2.9132,-2.9132,-2.9132,-2.9132,-2.9132,-2.9343,-2.9554,-2.9659,-2.9659,-2.9554,-2.9343,-2.9036,-2.8727,-2.8727,-2.8621,-2.8398,-2.8621,-2.8727,-2.8737,-2.893,-2.9026,-2.9026,-2.9026,-2.9053,-2.9184,-2.9253,-2.9616,-3.0019,-3.3171,-3.2875,-3.2577,-3.2577,-3.2001,-3.1476,-3.1476,-3.0771,-3.0381,-3.0688,-3.0669,-3.0922,-3.1738,-3.2051,-3.2441,-3.3031,-3.3081,-3.3081,-3.2896,-3.2982,-3.3081,-3.3081,-3.2982,-3.2624,-3.2164,-3.2264,-3.1813,-3.0812,-3.026,-2.9543,-2.8724,-2.7987,-2.7547,-2.7081,-2.688,-2.7109,-2.7431,-2.7431,-2.7785,-2.8297,-2.8297,-2.8421,-2.8638,-2.8887,-2.899,-2.9052,-2.9508,-2.9673,-2.9497,-2.8493,-2.7463,-2.6273,-2.5212,-2.4008,-2.3014,-2.3014,-2.3014,-2.3014,-2.3014,-2.3014,-2.3127,-2.3792,-2.3456,-2.3456,-2.5305,-2.5634,-2.6063,-2.7795,-2.8668,-2.9217,-2.9879,-2.9994,-2.9994,-2.9994,-2.9879,-2.9669,-2.9564,-2.9564,-2.9353,-2.893,-2.9036,-2.9026,-2.893,-2.893,-2.893,-2.9132,-2.893,-2.893,-2.893,-2.8717,-2.8717,-2.8717,-2.9132,-2.9343,-2.9343,-2.9554,-2.9459,-2.9142,-2.893,-2.8717,-2.8514,-2.8621,-2.8621,-2.8514,-2.8824,-2.893,-2.893,-2.893,-2.893,-2.8854,-2.8965,-2.9075,-2.9213,-2.9675,-2.9976,-3.0234,-3.229,-3.2074,-3.1783,-3.1783,-3.1206,-3.062,-3.062,-3.0126,-2.9993,-3.0545,-3.0721,-3.116,-3.2114,-3.234,-3.2591,-3.3043,-3.3068,-3.2982,-3.2797,-3.2896,-3.2995,-3.2982,-3.2624,-3.2077,-3.1347,-3.1359,-3.0812,-2.9806,-2.9084,-2.8538,-2.8269,-2.7357,-2.6951,-2.6947,-2.684,-2.7084,-2.7696,-2.7795,-2.8161,-2.8773,-2.8773,-2.8835,-2.897,-2.9332,-2.9466,-2.9508,-2.987,-2.9994,-2.9774,-2.8562,-2.7463,-2.6273,-2.5101,-2.3999,-2.3344,-2.3231,-2.3231,-2.3344,-2.3344,-2.356,-2.3999,-2.4667,-2.4119,-2.3888,-2.5735,-2.5634,-2.5744,-2.7795,-2.8339,-2.8784,-2.9774,-2.9879,-2.9784,-2.9784,-2.9669,-2.9343,-2.9132,-2.9132,-2.9026,-2.8737,-2.893,-2.9026,-2.892,-2.892,-2.892,-2.892,-2.8717,-2.8631,-2.8631,-2.8398,-2.8291,-2.8398,-2.9036,-2.9237,-2.9036,-2.9248,-2.9142,-2.8737,-2.8621,-2.8514,-2.8291,-2.8621,-2.8737,-2.8727,-2.9036,-2.9132,-2.9132,-2.8834,-2.8893,-2.9023,-2.9125,-2.9153,-2.9407,-3.0074,-3.0264,-3.041,-3.3003,-3.1988,-3.097,-3.097,-3.0343,-2.9856,-2.9856,-2.9869,-2.9993,-3.0545,-3.1035,-3.1562,-3.2152,-3.2692,-3.3031,-3.3081,-3.2896,-3.281,-3.3081,-3.2649,-3.2562,-3.2723,-3.2077,-3.1625,-3.1625,-3.0711,-2.9806,-2.8817,-2.8724,-2.8081,-2.6996,-2.69,-2.7018,-2.71,-2.7394,-2.7747,-2.8186,-2.8466,-2.8835,-2.9259,-2.9259,-2.9508,-2.9891,-2.9932,-2.9942,-2.9953,-2.9984,-2.9994,-2.9774,-2.8562,-2.7463,-2.6273,-2.4753,-2.4326,-2.4214,-2.388,-2.3991,-2.4326,-2.4556,-2.5415,-2.6054,-2.4991,-2.4778,-2.4667,-2.4889,-2.5634,-2.6707,-2.7902,-2.889,-2.9554,-2.9659,-2.9343,-2.9132,-2.9132,-2.9132,-2.9132,-2.9132,-2.9132,-2.9026,-2.8737,-2.8737,-2.8621,-2.8398,-2.8398,-2.8398,-2.8398,-2.8291,-2.8291,-2.8291,-2.8291,-2.8398,-2.8621,-2.8737,-2.8727,-2.8737,-2.8727,-2.8727,-2.8737,-2.8408,-2.8291,-2.8291,-2.8621,-2.8737,-2.8727,-2.9036,-2.9132,-2.9132,-2.9026,-2.9373,-2.9755,-2.9677,-3.0078,-3.0468,-3.0527,-3.0708,-3.084,-3.1158,-3.0646,-3.0203,-3.0203,-3.0011,-2.9792,-2.9792,-3.008,-3.0495,-3.1035,-3.1562,-3.2114,-3.2692,-3.2943,-3.3081,-3.3081,-3.2982,-3.2896,-3.2896,-3.2723,-3.2636,-3.2711,-3.1989,-3.1347,-3.0711,-2.9806,-2.8806,-2.7809,-2.7809,-2.7631,-2.7177,-2.7069,-2.7087,-2.715,-2.7332,-2.7804,-2.8441,-2.8625,-2.9096,-2.9517,-2.9632,-2.9724,-2.9774,-2.9994,-2.9994,-2.9994,-2.9994,-2.9879,-2.9438,-2.7454,-2.6915,-2.6726,-2.4642,-2.4103,-2.388,-2.2998,-2.344,-2.4103,-2.4214,-2.4214,-2.4317,-2.5322,-2.4326,-2.3991,-2.7051,-2.6825,-2.649,-2.8668,-2.9227,-2.9237,-2.9237,-2.9343,-2.9343,-2.9132,-2.9237,-2.9343,-2.9132,-2.893,-2.8834,-2.8727,-2.8514,-2.8398,-2.8291,-2.8291,-2.8291,-2.8291,-2.8291,-2.8291,-2.8291,-2.8291,-2.8408,-2.8408,-2.8398,-2.8514,-2.8737,-2.8737,-2.8621,-2.8398,-2.8408,-2.8408,-2.8514,-2.8824,-2.9036,-2.9248,-2.9343,-2.9448,-2.9363,-2.9337,-2.9341,-2.955,-2.9957,-3.0138,-3.0348,-3.0643,-3.0858,-3.0889,-3.0203,-2.9934,-2.9792,-2.9792,-2.9792,-2.9792,-2.9792,-3.0269,-3.0809,-3.1323,-3.1863,-3.2441,-3.3018,-3.3081,-3.3081,-3.2982,-3.2909,-3.281,-3.2723,-3.2438,-3.2164,-3.2176,-3.1347,-3.0429,-2.951,-2.862,-2.7809,-2.7167,-2.7262,-2.7334,-2.7383,-2.7195,-2.7192,-2.7372,-2.757,-2.8061,-2.8689,-2.8991,-2.9372,-2.9774,-2.9889,-2.9879,-2.9659,-2.9774,-2.9774,-2.9679,-2.9679,-2.9564,-2.9122,-2.714,-2.6599,-2.6509,-2.442,-2.3656,-2.3544,-2.3207,-2.3648,-2.4317,-2.4428,-2.3991,-2.3776,-2.5533,-2.4531,-2.4094,-2.7599,-2.7276,-2.6717,-2.8572,-2.892,-2.9026,-2.9132,-2.9237,-2.9237,-2.9132,-2.9343,-2.9343,-2.9036,-2.8834,-2.8631,-2.8621,-2.8398,-2.8291,-2.8291,-2.8291,-2.8291,-2.8291,-2.8291,-2.8291,-2.8291,-2.8291,-2.8291,-2.8291,-2.8291,-2.8408,-2.8621,-2.8621,-2.8514,-2.8291,-2.8408,-2.8514,-2.8727,-2.9142,-2.9343,-2.9448,-2.9554,-2.9635,-2.9682,-2.9577,-2.966,-2.9857,-3.0217,-3.0407,-3.0449,-3.0771,-3.0889,-3.0889,-3.0758,-3.0266,-2.9792,-2.9792,-2.9792,-2.9792,-2.9804,-3.0269,-3.0809,-3.1336,-3.1876,-3.2441,-3.3018,-3.3081,-3.2982,-3.2711,-3.2562,-3.2475,-3.2723,-3.1777,-3.1146,-3.089,-2.9966,-2.8936,-2.7923,-2.7241,-2.69,-2.69,-2.7177,-2.7393,-2.7641,-2.7249,-2.7422,-2.8053,-2.8063,-2.8511,-2.9132,-2.9448,-2.9774,-2.9994,-2.9994,-2.9879,-2.9554,-2.9554,-2.9343,-2.9132,-2.9132,-2.9132,-2.892,-2.7824,-2.6608,-2.5406,-2.3863,-2.3199,-2.3311,-2.4744,-2.5186,-2.5287,-2.5516,-2.5406,-2.5296,-2.5516,-2.5626,-2.5634,-2.567,-2.6536,-2.7384,-2.7394,-2.8067,-2.8727,-2.9026,-2.893,-2.8834,-2.9026,-2.9132,-2.9036,-2.8727,-2.8737,-2.8621,-2.8291,-2.8291,-2.8291,-2.8291,-2.8291,-2.8291,-2.8291,-2.8291,-2.8291,-2.8291,-2.8291,-2.8291,-2.8291,-2.8291,-2.8291,-2.8291,-2.8291,-2.8291,-2.8291,-2.8621,-2.8737,-2.8737,-2.9353,-2.9448,-2.9132,-2.9448,-2.9713,-2.9806,-2.9806,-3.0118,-3.069,-3.07,-3.0738,-3.0889,-3.0898,-3.0898,-3.0898,-3.0062,-2.9934,-2.9792,-2.9792,-2.9792,-2.993,-3.0306,-3.0821,-3.1348,-3.1901,-3.2466,-3.288,-3.3056,-3.2896,-3.281,-3.2711,-3.2562,-3.2388,-3.2213,-3.127,-3.0339,-2.9418,-2.8669,-2.8204,-2.7923,-2.7241,-2.69,-2.69,-2.7486,-2.7703,-2.7564,-2.7895,-2.8021,-2.8083,-2.839,-2.8599,-2.8834,-2.9353,-2.9554,-2.9353,-2.9669,-2.9659,-2.9554,-2.9343,-2.9343,-2.9448,-2.9132,-2.9036,-2.8504,-2.6509,-2.6063,-2.5854,-2.3751,-2.3631,-2.4069,-2.3743,-2.4181,-2.4837,-2.4948,-2.4948,-2.5177,-2.6309,-2.5735,-2.5507,-2.7413,-2.7394,-2.7267,-2.8174,-2.8717,-2.893,-2.8834,-2.9142,-2.9248,-2.8834,-2.9036,-2.9036,-2.8727,-2.8514,-2.8514,-2.8514,-2.8398,-2.8291,-2.8291,-2.8291,-2.8291,-2.8291,-2.8291,-2.8398,-2.8621,-2.8621,-2.8717,-2.8814,-2.8814,-2.8814,-2.8814,-2.8717,-2.8621,-2.8621,-2.8824,-2.9142,-2.9353,-2.9554,-2.9669,-2.969,-2.9987,-2.9987,-2.9846,-3.0268,-3.0442,-3.0348,-3.0902,-3.11,-3.1218,-3.145,-3.1566,-3.1566,-2.9792,-2.9792,-2.9792,-2.9792,-2.9792,-2.998,-3.0532,-3.106,-3.1587,-3.2139,-3.2717,-3.3081,-3.3081,-3.2896,-3.2636,-3.255,-3.2388,-3.1937,-3.1294,-3.0441,-2.9326,-2.8121,-2.7379,-2.701,-2.701,-2.687,-2.6699,-2.6699,-2.7513,-2.7832,-2.7839,-2.8258,-2.8371,-2.8236,-2.8502,-2.8621,-2.8727,-2.9036,-2.9248,-2.9237,-2.891,-2.8688,-2.8688,-2.8359,-2.8252,-2.8368,-2.8698,-2.8388,-2.7628,-2.6182,-2.5735,-2.5406,-2.364,-2.3743,-2.4616,-2.3855,-2.4514,-2.5397,-2.5397,-2.5726,-2.64,-2.7305,-2.6409,-2.5954,-2.8067,-2.795,-2.7609,-2.8398,-2.8717,-2.8824,-2.8727,-2.9046,-2.9142,-2.893,-2.9036,-2.9036,-2.8727,-2.8514,-2.8514,-2.8514,-2.8408,-2.8291,-2.8291,-2.8291,-2.8291,-2.8398,-2.8514,-2.8621,-2.8824,-2.8834,-2.893,-2.9132,-2.9132,-2.9132,-2.9132,-2.9036,-2.9036,-2.8834,-2.9026,-2.9237,-2.9564,-2.9727,-2.9925,-3.0062,-3.0396,-3.0366,-3.0359,-3.08,-3.1007,-3.0948,-3.1446,-3.1556,-3.1556,-3.1672,-3.1787,-3.1787,-2.9792,-2.9792,-2.9792,-2.9792,-2.9792,-2.9993,-3.0595,-3.1085,-3.1599,-3.2202,-3.2754,-3.3081,-3.3081,-3.2896,-3.2636,-3.2388,-3.2125,-3.1472,-3.026,-2.9418,-2.8391,-2.7284,-2.6284,-2.5742,-2.5742,-2.6207,-2.6516,-2.6557,-2.7477,-2.8027,-2.8208,-2.844,-2.856,-2.8621,-2.8408,-2.8408,-2.8631,-2.8737,-2.893,-2.9227,-2.7931,-2.7384,-2.7159,-2.7041,-2.6726,-2.6636,-2.7736,-2.7403,-2.6418,-2.6309,-2.5406,-2.4394,-2.3303,-2.3855,-2.4837,-2.4837,-2.5735,-2.6636,-2.6636,-2.7413,-2.8291,-2.8291,-2.7511,-2.6971,-2.8077,-2.8291,-2.8291,-2.8291,-2.8291,-2.8398,-2.8621,-2.8737,-2.8834,-2.9026,-2.9026,-2.892,-2.8727,-2.8737,-2.8631,-2.8398,-2.8398,-2.8398,-2.8398,-2.8398,-2.8504,-2.8727,-2.8727,-2.8834,-2.9132,-2.9132,-2.9132,-2.9132,-2.9132,-2.9132,-2.9132,-2.9448,-2.9448,-2.9132,-2.9132,-2.9363,-2.9731,-3.0033,-3.0237,-3.0299,-3.0758,-3.1075,-3.1124,-3.1503,-3.1757,-3.1787,-3.2133,-3.2133,-3.1903,-3.1903,-3.1913,-3.1913,-2.9792,-2.9792,-2.9792,-2.9792,-2.9792,-3.0118,-3.1072,-3.1323,-3.175,-3.2754,-3.3006,-3.3081,-3.3081,-3.2896,-3.2636,-3.2388,-3.2025,-3.1282,-3.026,-2.9326,-2.8308,-2.7284,-2.6284,-2.5742,-2.5742,-2.6014,-2.6356,-2.6695,-2.7442,-2.7894,-2.8048,-2.8485,-2.8532,-2.8398,-2.8291,-2.8291,-2.8408,-2.8621,-2.8271,-2.7473,-2.7375,-2.6825,-2.6036,-2.6735,-2.6952,-2.6825,-2.6853,-2.6744,-2.6191,-2.442,-2.3528,-2.3303,-2.3087,-2.442,-2.6073,-2.6073,-2.6961,-2.796,-2.796,-2.8067,-2.8291,-2.8291,-2.8067,-2.796,-2.8291,-2.8514,-2.8514,-2.8291,-2.8601,-2.893,-2.8737,-2.8824,-2.893,-2.8834,-2.8834,-2.8727,-2.8408,-2.8514,-2.8737,-2.8621,-2.8824,-2.892,-2.892,-2.892,-2.892,-2.9036,-2.9036,-2.9132,-2.9448,-2.9448,-2.9564,-2.9774,-2.9774,-2.9774,-2.9774,-2.9889,-2.9774,-2.9448,-2.9669,-3.0075,-3.0426,-3.0529,-3.0766,-3.1137,-3.1581,-3.1717,-3.1492,-3.1952,-3.2041,-3.1787,-3.2133,-3.2258,-3.2248,-3.2383,-3.2498,-3.2498,-2.9792,-2.9792,-2.9792,-2.9792,-3.0005,-3.0457,-3.126,-3.1612,-3.2089,-3.2968,-3.3081,-3.3081,-3.3081,-3.2896,-3.255,-3.2213,-3.1472,-3.0543,-2.951,-2.8577,-2.7568,-2.6552,-2.6004,-2.5742,-2.5742,-2.583,-2.6221,-2.6745,-2.7492,-2.7943,-2.8291,-2.8529,-2.8631,-2.8514,-2.8398,-2.8291,-2.8291,-2.7853,-2.7394,-2.6816,-2.5726,-2.4948,-2.4701,-2.5516,-2.5516,-2.5177,-2.6191,-2.5753,-2.4531,-2.2757,-2.2869,-2.3855,-2.3855,-2.5406,-2.7403,-2.7403,-2.7853,-2.8291,-2.8291,-2.8291,-2.8291,-2.8291,-2.8291,-2.8291,-2.8291,-2.8408,-2.8514,-2.8291,-2.8504,-2.8717,-2.8514,-2.8727,-2.8824,-2.8514,-2.8717,-2.8824,-2.8514,-2.8717,-2.893,-2.893,-2.9026,-2.9132,-2.9132,-2.9132,-2.9132,-2.9343,-2.9343,-2.9448,-2.9774,-2.9774,-2.9879,-2.9994,-3.0212,-3.0325,-3.0325,-3.0543,-3.0646,-3.0432,-3.0196,-3.0446,-3.1029,-3.1117,-3.1344,-3.1723,-3.2055,-3.2014,-3.1911,-3.2156,-3.2248,-3.2018,-3.2373,-3.2487,-3.2498,-3.2612,-3.2727,-3.2727,-2.9792,-2.9792,-2.9792,-2.9792,-3.0244,-3.0783,-3.1311,-3.1863,-3.2416,-3.3006,-3.3081,-3.3081,-3.3081,-3.281,-3.2463,-3.2125,-3.0913,-2.9795,-2.8773,-2.7746,-2.6733,-2.5732,-2.5742,-2.5742,-2.5742,-2.581,-2.6153,-2.6874,-2.7432,-2.7984,-2.8495,-2.8337,-2.8398,-2.8621,-2.8184,-2.796,-2.796,-2.6961,-2.64,-2.6045,-2.3966,-2.3079,-2.3167,-2.4172,-2.3958,-2.3199,-2.5194,-2.4642,-2.2869,-2.1873,-2.3087,-2.5058,-2.5058,-2.6509,-2.8408,-2.8408,-2.8408,-2.8408,-2.8408,-2.8291,-2.8291,-2.8291,-2.8291,-2.8291,-2.8291,-2.8291,-2.8291,-2.8291,-2.8291,-2.8291,-2.8291,-2.8514,-2.8631,-2.8408,-2.8814,-2.9026,-2.8834,-2.9036,-2.9237,-2.9237,-2.9237,-2.9237,-2.9237,-2.9237,-2.9373,-2.9772,-2.9782,-2.9928,-3.0232,-3.0232,-3.0232,-3.0232,-3.0605,-3.0801,-3.0801,-3.1184,-3.1412,-3.1485,-3.0853,-3.0874,-3.1505,-3.1634,-3.184,-3.2178,-3.2323,-3.2373,-3.2373,-3.2373,-3.2373,-3.2373,-3.2612,-3.2727,-3.2727,-3.2727,-3.2727,-3.2747,-2.9792,-2.9792,-2.9792,-2.9792,-3.0244,-3.0783,-3.1311,-3.1863,-3.2416,-3.3006,-3.3081,-3.3081,-3.3081,-3.2736,-3.2388,-3.2313,-3.1003,-2.9795,-2.8773,-2.7746,-2.6733,-2.5732,-2.5742,-2.5742,-2.5742,-2.6103,-2.6504,-2.6924,-2.7084,-2.7525,-2.831,-2.7276,-2.7295,-2.8291,-2.7187,-2.6744,-2.6744,-2.6527,-2.5305,-2.3528,-2.376,-2.2877,-2.1645,-2.332,-2.3536,-2.3087,-2.3311,-2.3311,-2.2982,-2.2757,-2.4309,-2.63,-2.63,-2.7403,-2.8631,-2.8631,-2.8631,-2.8631,-2.8631,-2.8514,-2.8291,-2.8291,-2.8291,-2.8291,-2.8291,-2.8291,-2.8291,-2.8291,-2.8291,-2.8291,-2.8291,-2.8514,-2.8737,-2.8621,-2.893,-2.9132,-2.9026,-2.9343,-2.9554,-2.9554,-2.9774,-2.9889,-2.9889,-2.9889,-3.0054,-3.0563,-3.0594,-3.076,-3.1174,-3.1184,-3.1184,-3.1184,-3.1247,-3.1288,-3.1288,-3.135,-3.1567,-3.195,-3.1777,-3.1777,-3.195,-3.1901,-3.2148,-3.2644,-3.2592,-3.2612,-3.2612,-3.2612,-3.2612,-3.2612,-3.2737,-3.2727,-3.2727,-3.2727,-3.2727,-3.2789,-2.9792,-2.9792,-2.9892,-3.0193,-3.0696,-3.1235,-3.1763,-3.2328,-3.278,-3.3043,-3.3081,-3.3081,-3.3081,-3.281,-3.2288,-3.1649,-3.0351,-2.905,-2.7934,-2.6924,-2.6187,-2.5742,-2.5742,-2.5742,-2.5742,-2.6162,-2.6592,-2.7012,-2.7256,-2.7466,-2.7492,-2.6844,-2.6518,-2.6518,-2.5845,-2.5507,-2.5397,-2.4863,-2.3975,-2.2982,-2.2546,-2.1881,-2.1318,-2.2877,-2.2765,-2.1979,-2.1979,-2.2425,-2.2974,-2.2974,-2.4531,-2.6527,-2.6527,-2.7413,-2.8514,-2.8621,-2.8737,-2.8737,-2.893,-2.8824,-2.8708,-2.8708,-2.8708,-2.8717,-2.8514,-2.8514,-2.8514,-2.8291,-2.8291,-2.8408,-2.8514,-2.8717,-2.893,-2.893,-2.9353,-2.9564,-2.9448,-2.9669,-2.9867,-3.023,-3.0271,-3.0481,-3.0739,-3.077,-3.0853,-3.106,-3.1071,-3.1164,-3.136,-3.1381,-3.1381,-3.1381,-3.1619,-3.1743,-3.1743,-3.2002,-3.223,-3.2426,-3.2426,-3.2426,-3.2426,-3.2426,-3.254,-3.2727,-3.2727,-3.2727,-3.2727,-3.2727,-3.2727,-3.2727,-3.2727,-3.2727,-3.2727,-3.2727,-3.2882,-3.312]},{"header":{"parameterUnit":"m.s-1","parameterCategory":1,"la1":30.6,"la2":28.766,"lo1":-90.7593,"lo2":-88.6598,"dy":0.0162,"dx":0.0183,"nx":116,"ny":114,"refTime":"2023-06-19T06:00:00:Z","depth":0,"parameterNumber":3,"parameterNumberName":"V-component_of_WINDS"},"data":[0.0,0.0,0.0,0.0,0.0,0.0,0.0,0.0,0.0,0.0,0.0,0.0,0.0,0.0,0.0,0.0,0.0,0.0,0.0,0.0,0.0,0.0,0.0,0.0,0.0,0.0,0.0,0.0,0.0,0.0,0.0,0.0,0.0,0.0,0.0,0.0,0.0,0.0,0.0,0.0,0.0,0.0,0.0,0.0,0.0,0.0,0.0,0.0,0.0,0.0,0.0,0.0,0.0,0.0,0.0,0.0,0.0,0.0,0.0,0.0,0.0,0.0,0.0,0.0,0.0,0.0,0.0,0.0,0.0,0.0,0.0,0.0,0.0,0.0,0.0,0.0,0.0,0.0,0.0,0.0,0.0,0.0,0.0,0.0,0.0,0.0,0.0,0.0,0.0,0.0,0.0,0.0,0.0,0.0,0.0,0.0,0.0,0.0,0.0,0.0,0.0,0.0,0.0,0.0,0.0,0.0,0.0,0.0,0.0,0.0,0.0,0.0,0.0,0.0,0.0,0.0,0.0,0.0,0.0,0.0,0.0,0.0,0.0,0.0,0.0,0.0,0.0,0.0,0.0,0.0,0.0,0.0,0.0,0.0,0.0,0.0,0.0,0.0,0.0,0.0,0.0,0.0,0.0,0.0,0.0,0.0,0.0,0.0,0.0,0.0,0.0,0.0,0.0,0.0,0.0,0.0,0.0,0.0,0.0,0.0,0.0,0.0,0.0,0.0,0.0,0.0,0.0,0.0,0.0,0.0,0.0,0.0,0.0,0.0,0.0,0.0,0.0,0.0,0.0,0.0,0.0,0.0,0.0,0.0,0.0,0.0,0.0,0.0,0.0,0.0,0.0,0.0,0.0,0.0,0.0,0.0,0.0,0.0,0.0,0.0,0.0,0.0,0.0,0.0,0.0,0.0,0.0,0.0,0.0,0.0,0.0,0.0,0.0,0.0,0.0,0.0,0.0,0.0,0.0,0.0,0.0,0.0,0.0,0.0,0.0,0.0,0.0,0.0,0.0,0.0,0.0,0.0,0.0,0.0,0.0,0.0,0.0,0.0,0.0,0.0,0.0,0.0,0.0,0.0,0.0,0.0,0.0,0.0,0.0,0.0,0.0,0.0,0.0,0.0,0.0,0.0,0.0,0.0,0.0,0.0,0.0,0.0,0.0,0.0,0.0,0.0,0.0,0.0,0.0,0.0,0.0,0.0,0.0,0.0,0.0,0.0,0.0,0.0,0.0,0.0,0.0,0.0,0.0,0.0,0.0,0.0,0.0,0.0,0.0,0.0,0.0,0.0,0.0,0.0,0.0,0.0,0.0,0.0,0.0,0.0,0.0,0.0,0.0,0.0,0.0,0.0,0.0,0.0,0.0,0.0,0.0,0.0,0.0,0.0,0.0,0.0,0.0,0.0,0.0,0.0,0.0,0.0,0.0,0.0,0.0,0.0,0.0,0.0,0.0,0.0,0.0,0.0,0.0,0.0,0.0,0.0,0.0,0.0,0.0,0.0,0.0,0.0,0.0,0.0,0.0,0.0,0.0,0.0,0.0,0.0,0.0,0.0,0.0,0.0,0.0,0.0,0.0,0.0,0.0,0.0,0.0,0.0,0.0,0.0,0.0,0.0,0.0,0.0,0.0,0.0,0.0,0.0,0.0,0.0,0.0,0.0,0.0,0.0,0.0,0.0,0.0,0.0,0.0,0.0,0.0,0.0,0.0,0.0,0.0,0.0,0.0,0.0,0.0,0.0,0.0,0.0,0.0,0.0,0.0,0.0,0.0,0.0,0.0,0.0,0.0,0.0,0.0,0.0,0.0,0.0,0.0,0.0,0.0,0.0,0.0,0.0,0.0,0.0,0.0,0.0,0.0,0.0,0.0,0.0,0.0,0.0,0.0,0.0,0.0,0.0,0.0,0.0,0.0,0.0,0.0,0.0,0.0,0.0,0.0,0.0,0.0,0.0,0.0,0.0,0.0,0.0,0.0,0.0,0.0,0.0,0.0,0.0,0.0,0.0,0.0,0.0,0.0,0.0,0.0,0.0,0.0,0.0,0.0,0.0,0.0,0.0,0.0,0.0,0.0,0.0,0.0,0.0,0.0,0.0,0.0,0.0,0.0,0.0,0.0,0.0,0.0,0.0,0.0,0.0,0.0,0.0,0.0,0.0,0.0,0.0,0.0,0.0,0.0,0.0,0.0,0.0,0.0,0.0,0.0,0.0,0.0,0.0,0.0,0.0,0.0,0.0,0.0,0.0,0.0,0.0,0.0,0.0,0.0,0.0,0.0,0.0,0.0,0.0,0.0,0.0,0.0,0.0,0.0,0.0,0.0,0.0,0.0,0.0,0.0,0.0,0.0,0.0,0.0,0.0,0.0,0.0,0.0,0.0,0.0,0.0,0.0,0.0,0.0,0.0,0.0,0.0,0.0,0.0,0.0,0.0,0.0,0.0,0.0,0.0,0.0,0.0,0.0,0.0,0.0,0.0,0.0,0.0,0.0,0.0,0.0,0.0,0.0,0.0,0.0,0.0,0.0,0.0,0.0,0.0,0.0,0.0,0.0,0.0,0.0,0.0,0.0,0.0,0.0,0.0,0.0,0.0,0.0,0.0,0.0,0.0,0.0,0.0,0.0,0.0,0.0,0.0,0.0,0.0,0.0,0.0,0.0,0.0,0.0,0.0,0.0,0.0,0.0,0.0,0.0,0.0,0.0,0.0,0.0,0.0,0.0,0.0,0.0,0.0,0.0,0.0,0.0,0.0,0.0,0.0,0.0,0.0,0.0,0.0,0.0,0.0,0.0,0.0,0.0,0.0,0.0,0.0,0.0,0.0,0.0,0.0,0.0,0.0,0.0,0.0,0.0,0.0,0.0,0.0,0.0,0.0,0.0,0.0,0.0,0.0,0.0,0.0,0.0,0.0,0.0,0.0,0.0,0.0,0.0,0.0,0.0,0.0,0.0,0.0,0.0,0.0,0.0,0.0,0.0,0.0,0.0,0.0,0.0,0.0,0.0,0.0,0.0,0.0,0.0,0.0,0.0,0.0,0.0,0.0,0.0,0.0,0.0,0.0,0.0,0.0,0.0,0.0,0.0,0.0,0.0,0.0,0.0,0.0,0.0,0.0,0.0,0.0,0.0,0.0,0.0,0.0,0.0,0.0,0.0,0.0,0.0,0.0,0.0,0.0,0.0,0.0,0.0,0.0,0.0,0.0,0.0,0.0,0.0,0.0,0.0,0.0,0.0,0.0,0.0,0.0,0.0,0.0,0.0,0.0,0.0,0.0,0.0,0.0,0.0,0.0,0.0,0.0,0.0,0.0,0.0,0.0,0.0,0.0,0.0,0.0,0.0,0.0,0.0,0.0,0.0,0.0,0.0,0.0,0.0,0.0,0.0,0.0,0.0,0.0,0.0,0.0,0.0,0.0,0.0,0.0,0.0,0.0,0.0,0.0,0.0,0.0,0.0,0.0,0.0,0.0,0.0,0.0,0.0,0.0,0.0,0.0,0.0,0.0,0.0,0.0,0.0,0.0,0.0,0.0,0.0,0.0,0.0,0.0,0.0,0.0,0.0,0.0,0.0,0.0,0.0,0.0,0.0,0.0,0.0,0.0,0.0,0.0,0.0,0.0,0.0,0.0,0.0,0.0,0.0,0.0,0.0,0.0,0.0,0.0,0.0,0.0,0.0,0.0,0.0,0.0,0.0,0.0,0.0,0.0,0.0,0.0,0.0,0.0,0.0,0.0,0.0,0.0,0.0,0.0,0.0,0.0,0.0,0.0,0.0,0.0,0.0,0.0,0.0,0.0,0.0,0.0,0.0,0.0,0.0,0.0,0.0,0.0,0.0,0.0,0.0,0.0,0.0,0.0,0.0,0.0,0.0,0.0,0.0,0.0,0.0,0.0,0.0,0.0,0.0,0.0,0.0,0.0,0.0,0.0,0.0,0.0,0.0,0.0,0.0,0.0,0.0,0.0,0.0,0.0,0.0,0.0,0.0,0.0,0.0,0.0,0.0,0.0,0.0,0.0,0.0,0.0,0.0,0.0,0.0,0.0,0.0,0.0,0.0,0.0,0.0,0.0,0.0,0.0,0.0,0.0,0.0,0.0,0.0,0.0,0.0,0.0,0.0,0.0,0.0,0.0,0.0,0.0,0.0,0.0,0.0,0.0,0.0,0.0,0.0,0.0,0.0,0.0,0.0,0.0,0.0,0.0,0.0,0.0,0.0,0.0,0.0,0.0,0.0,0.0,0.0,0.0,0.0,0.0,0.0,0.0,0.0,0.0,0.0,0.0,0.0,0.0,0.0,0.0,0.0,0.0,0.0,0.0,0.0,0.0,0.0,0.0,0.0,0.0,0.0,0.0,0.0,0.0,0.0,0.0,0.0,0.0,0.0,0.0,0.0,0.0,0.0,0.0,0.0,0.0,0.0,0.0,0.0,0.0,0.0,0.0,0.0,0.0,0.0,0.0,0.0,0.0,0.0,0.0,0.0,0.0,0.0,0.0,0.0,0.0,0.0,0.0,0.0,0.0,0.0,0.0,0.0,0.0,0.0,0.0,0.0,0.0,0.0,0.0,0.0,0.0,0.0,0.0,0.0,0.0,0.0,0.0,0.0,0.0,0.0,0.0,0.0,0.0,0.0,0.0,0.0,0.0,0.0,0.0,0.0,0.0,0.0,0.0,0.0,0.0,0.0,0.0,0.0,0.0,0.0,0.0,0.0,0.0,0.0,0.0,0.0,0.0,0.0,0.0,0.0,0.0,0.0,0.0,0.0,0.0,0.0,0.0,0.0,0.0,0.0,0.0,0.0,0.0,0.0,0.0,0.0,0.0,0.0,0.0,0.0,0.0,0.0,0.0,0.0,0.0,0.0,0.0,0.0,0.0,0.0,0.0,0.0,0.0,0.0,0.0,0.0,0.0,0.0,0.0,0.0,0.0,0.0,0.0,0.0,0.0,0.0,0.0,0.0,0.0,0.0,0.0,0.0,0.0,0.0,0.0,0.0,0.0,0.0,0.0,0.0,0.0,0.0,0.0,0.0,0.0,0.0,0.0,0.0,0.0,0.0,0.0,0.0,0.0,0.0,0.0,0.0,0.0,0.0,0.0,0.0,0.0,0.0,0.0,0.0,0.0,0.0,0.0,0.0,0.0,0.0,0.0,0.0,0.0,0.0,0.0,0.0,0.0,0.0,0.0,0.0,0.0,0.0,0.0,0.0,0.0,0.0,0.0,0.0,0.0,0.0,0.0,0.0,0.0,0.0,0.0,0.0,0.0,0.0,0.0,0.0,0.0,0.0,0.0,0.0,0.0,0.0,0.0,0.0,0.0,0.0,0.0,0.0,0.0,0.0,0.0,0.0,0.0,0.0,0.0,0.0,0.0,0.0,0.0,0.0,0.0,0.0,0.0,0.0,0.0,0.0,0.0,0.0,0.0,0.0,0.0,0.0,0.0,0.0,0.0,0.0,0.0,0.0,0.0,0.0,0.0,0.0,0.0,0.0,0.0,0.0,0.0,0.0,0.0,0.0,0.0,0.0,0.0,0.0,0.0,0.0,0.0,0.0,0.0,0.0,0.0,0.0,0.0,0.0,0.0,0.0,0.0,0.0,0.0,0.0,0.0,0.0,0.0,0.0,0.0,0.0,0.0,0.0,0.0,0.0,0.0,0.0,0.0,0.0,0.0,0.0,0.0,0.0,0.0,0.0,0.0,0.0,0.0,0.0,0.0,0.0,0.0,0.0,0.0,0.0,0.0,0.0,0.0,0.0,0.0,0.0,0.0,0.0,0.0,0.0,0.0,0.0,0.0,0.0,0.0,0.0,0.0,0.0,0.0,0.0,0.0,0.0,0.0,0.0,0.0,0.0,0.0,0.0,0.0,0.0,0.0,0.0,0.0,0.0,0.0,0.0,0.0,0.0,0.0,0.0,0.0,0.0,0.0,0.0,0.0,0.0,0.0,0.0,0.0,0.0,0.0,0.0,0.0,0.0,0.0,0.0,0.0,0.0,0.0,0.0,0.0,0.0,0.0,0.0,0.0,0.0,0.0,0.0,0.0,0.0,0.0,0.0,0.0,0.0,0.0,0.0,0.0,0.0,0.0,0.0,0.0,0.0,0.0,-4.465,-4.4346,0.0,0.0,0.0,0.0,0.0,0.0,0.0,0.0,0.0,0.0,0.0,0.0,0.0,0.0,0.0,0.0,0.0,0.0,0.0,0.0,0.0,0.0,0.0,0.0,0.0,0.0,0.0,0.0,0.0,0.0,0.0,0.0,0.0,0.0,0.0,0.0,0.0,0.0,0.0,0.0,0.0,0.0,0.0,0.0,0.0,0.0,0.0,0.0,0.0,0.0,0.0,0.0,0.0,0.0,0.0,0.0,0.0,0.0,0.0,0.0,0.0,0.0,0.0,0.0,0.0,0.0,0.0,0.0,0.0,0.0,0.0,0.0,0.0,0.0,0.0,0.0,0.0,0.0,0.0,0.0,0.0,0.0,0.0,0.0,0.0,0.0,0.0,0.0,0.0,0.0,0.0,0.0,0.0,0.0,0.0,0.0,0.0,0.0,0.0,0.0,0.0,0.0,0.0,0.0,0.0,0.0,0.0,0.0,0.0,0.0,0.0,0.0,0.0,0.0,-4.4825,-4.4676,0.0,0.0,0.0,0.0,0.0,0.0,0.0,0.0,0.0,0.0,0.0,0.0,0.0,0.0,0.0,0.0,0.0,0.0,0.0,0.0,0.0,0.0,0.0,0.0,0.0,0.0,0.0,0.0,0.0,0.0,0.0,0.0,0.0,0.0,0.0,0.0,0.0,0.0,0.0,0.0,0.0,0.0,0.0,0.0,0.0,0.0,0.0,0.0,0.0,0.0,0.0,0.0,0.0,0.0,0.0,0.0,0.0,0.0,0.0,0.0,0.0,0.0,0.0,0.0,0.0,0.0,0.0,0.0,0.0,0.0,0.0,0.0,0.0,0.0,0.0,0.0,0.0,0.0,0.0,0.0,0.0,0.0,0.0,0.0,0.0,0.0,0.0,0.0,0.0,0.0,0.0,0.0,0.0,0.0,0.0,0.0,0.0,0.0,0.0,0.0,0.0,0.0,0.0,0.0,0.0,0.0,0.0,0.0,-4.4687,-4.4611,-4.4455,-4.4478,-4.4592,-4.4762,-4.457,-4.4763,-4.518,-4.4726,0.0,0.0,0.0,0.0,0.0,0.0,0.0,0.0,0.0,0.0,0.0,0.0,0.0,0.0,0.0,0.0,0.0,0.0,0.0,0.0,0.0,0.0,0.0,0.0,0.0,0.0,0.0,0.0,0.0,0.0,0.0,0.0,0.0,0.0,0.0,0.0,0.0,0.0,-3.089,-3.1646,-3.2116,-3.2409,0.0,0.0,0.0,0.0,0.0,0.0,0.0,0.0,0.0,0.0,0.0,0.0,0.0,0.0,0.0,0.0,0.0,0.0,0.0,0.0,0.0,0.0,0.0,0.0,0.0,0.0,0.0,0.0,0.0,0.0,0.0,0.0,0.0,0.0,0.0,0.0,0.0,0.0,0.0,0.0,0.0,0.0,0.0,0.0,-4.297,-4.3085,0.0,0.0,0.0,0.0,0.0,0.0,0.0,0.0,0.0,0.0,0.0,0.0,0.0,-4.4493,-4.4546,-4.4872,-4.4709,-4.4024,-4.425,-4.3886,-4.2984,-4.3234,-4.3234,-4.3043,-4.3234,0.0,-4.5201,-4.5118,0.0,0.0,0.0,0.0,0.0,0.0,0.0,0.0,0.0,0.0,0.0,0.0,0.0,0.0,0.0,0.0,0.0,0.0,0.0,0.0,0.0,0.0,0.0,0.0,0.0,0.0,0.0,0.0,0.0,0.0,0.0,0.0,0.0,0.0,0.0,0.0,-3.0691,-3.0695,-3.0711,-3.1054,-3.1227,-3.1313,-3.2492,-3.3619,-3.4628,-3.5016,0.0,0.0,0.0,0.0,0.0,0.0,0.0,0.0,0.0,0.0,0.0,0.0,0.0,0.0,0.0,0.0,0.0,0.0,0.0,0.0,0.0,0.0,0.0,0.0,0.0,0.0,0.0,0.0,0.0,0.0,0.0,0.0,0.0,0.0,0.0,0.0,0.0,0.0,0.0,-4.4165,-4.4344,-4.4132,-4.399,-4.4037,0.0,0.0,0.0,0.0,0.0,0.0,0.0,0.0,0.0,-4.4676,-4.4266,-4.4142,-4.4322,-4.4015,-4.3694,-4.335,-4.335,-4.3101,-4.2659,-4.2698,-4.2657,-4.2555,-4.2657,-4.3138,-4.3825,-4.4284,-4.4614,-4.4849,0.0,0.0,0.0,0.0,-4.4318,-4.4221,0.0,0.0,0.0,0.0,0.0,0.0,0.0,0.0,0.0,0.0,0.0,0.0,0.0,0.0,0.0,-2.9251,0.0,0.0,0.0,0.0,0.0,0.0,0.0,0.0,0.0,0.0,0.0,0.0,-3.07,-3.0691,-3.0707,-3.0653,-3.0645,-3.0719,-3.1263,-3.2387,-3.3944,-3.4397,-3.4972,0.0,0.0,0.0,0.0,0.0,0.0,0.0,0.0,0.0,0.0,0.0,0.0,0.0,0.0,0.0,0.0,0.0,0.0,0.0,0.0,0.0,0.0,0.0,0.0,0.0,0.0,0.0,0.0,0.0,0.0,0.0,0.0,0.0,0.0,0.0,0.0,0.0,0.0,-4.5017,-4.5302,-4.5052,-4.5007,-4.4943,0.0,0.0,0.0,0.0,0.0,0.0,-4.4493,-4.4493,-4.4556,-4.4657,-4.4113,-4.3819,-4.3848,-4.3234,-4.2755,-4.2489,-4.2374,-4.212,-4.1806,-4.1759,-4.1711,-4.1665,-4.1711,-4.1958,-4.2352,-4.317,-4.3916,-4.4548,-4.4445,-4.4247,-4.4071,-4.407,-4.3924,-4.3671,0.0,0.0,0.0,0.0,0.0,0.0,0.0,0.0,0.0,0.0,0.0,0.0,0.0,0.0,-2.8842,-2.9188,-2.9377,-2.9533,0.0,0.0,0.0,0.0,0.0,0.0,0.0,0.0,0.0,-3.0697,-3.0697,-3.0697,-3.069,-3.069,-3.0703,-3.07,-3.0668,-3.1174,-3.2154,-3.3866,-3.464,-3.473,0.0,0.0,0.0,0.0,0.0,0.0,0.0,0.0,0.0,0.0,0.0,0.0,0.0,0.0,0.0,0.0,0.0,0.0,0.0,0.0,0.0,0.0,0.0,0.0,0.0,0.0,0.0,0.0,0.0,0.0,0.0,0.0,0.0,0.0,0.0,0.0,0.0,0.0,0.0,-4.5342,-4.514,0.0,0.0,0.0,0.0,-4.4411,-4.443,-4.4519,-4.4751,-4.4776,-4.4554,-4.4072,-4.4076,-4.3694,-4.287,-4.289,-4.2374,-4.1374,-4.1435,-4.0832,-3.9664,-3.9841,-3.9838,-3.9664,-3.9841,-4.0426,-4.1241,-4.2117,-4.2607,-4.2867,-4.3152,-4.2776,-4.213,-4.2964,-4.2604,-4.1789,0.0,0.0,0.0,0.0,0.0,0.0,0.0,0.0,0.0,0.0,0.0,0.0,0.0,-2.8845,-2.8779,-2.916,-2.9256,-2.9457,-2.9767,0.0,0.0,0.0,0.0,0.0,0.0,0.0,-3.069,-3.069,-3.069,-3.069,-3.069,-3.0695,-3.0707,-3.07,-3.0621,-3.1088,-3.1979,-3.3223,-3.4088,-3.4671,-3.5611,-3.5965,0.0,0.0,0.0,0.0,0.0,0.0,0.0,0.0,0.0,0.0,0.0,0.0,0.0,0.0,0.0,0.0,0.0,0.0,0.0,0.0,0.0,0.0,0.0,0.0,0.0,0.0,0.0,0.0,0.0,0.0,0.0,0.0,0.0,0.0,0.0,0.0,0.0,-4.5096,-4.503,0.0,-4.4849,-4.4726,-4.4745,-4.4953,-4.4976,-4.5,-4.5109,-4.4595,-4.42,-4.3996,-4.2986,-4.2298,-4.203,-4.138,-4.0941,-4.073,-4.0309,-3.9976,-3.9693,-3.9439,-3.9305,-3.9245,-3.9331,-3.9633,-4.008,-4.0209,-4.116,-4.2528,-4.2631,-4.2484,-4.2233,-4.2385,-4.2198,-4.1846,0.0,0.0,0.0,0.0,0.0,0.0,0.0,0.0,0.0,0.0,0.0,-2.8749,-2.891,-2.8651,-2.8651,-2.9138,-2.926,-2.9514,-2.9899,0.0,0.0,0.0,0.0,0.0,0.0,-3.0683,-3.069,-3.069,-3.069,-3.069,-3.069,-3.0688,-3.0692,-3.0665,-3.0613,-3.107,-3.1932,-3.2858,-3.3725,-3.4544,-3.5555,-3.5951,-3.593,0.0,0.0,0.0,0.0,0.0,0.0,0.0,0.0,0.0,0.0,0.0,0.0,0.0,0.0,0.0,0.0,0.0,0.0,0.0,0.0,0.0,0.0,0.0,0.0,0.0,0.0,0.0,0.0,0.0,0.0,0.0,0.0,0.0,0.0,-4.515,-4.5262,-4.509,-4.5113,-4.509,-4.4981,-4.4957,-4.5045,-4.5277,-4.5297,-4.5297,-4.5297,-4.4475,-4.3883,-4.3615,-4.2221,-4.1342,-4.1016,-4.0344,-3.9998,-4.002,-3.9604,-3.9452,-3.9551,-3.9245,-3.9101,-3.9101,-3.9101,-3.9192,-3.935,-3.9165,-3.996,-4.1329,-4.1612,-4.1633,-4.1522,-4.148,-4.1274,-4.1004,0.0,0.0,0.0,0.0,0.0,0.0,0.0,0.0,0.0,0.0,-2.8515,-2.8368,-2.8576,-2.8362,-2.8456,-2.9042,-2.9401,-2.9723,-2.9988,-3.0376,0.0,0.0,0.0,0.0,-3.0595,-3.0661,-3.069,-3.0683,-3.069,-3.069,-3.069,-3.0688,-3.0665,-3.0602,-3.0604,-3.1052,-3.1901,-3.2806,-3.3606,-3.4344,-3.5447,-3.5932,-3.5995,0.0,0.0,0.0,0.0,0.0,0.0,0.0,0.0,0.0,0.0,0.0,0.0,0.0,0.0,0.0,0.0,0.0,0.0,0.0,0.0,0.0,0.0,0.0,0.0,0.0,0.0,0.0,0.0,0.0,0.0,0.0,0.0,0.0,-4.3713,-4.4456,-4.5115,-4.5379,-4.5379,-4.5339,-4.5317,-4.5239,-4.522,-4.5258,-4.5239,-4.522,-4.5258,-4.4418,-4.3577,-4.2813,-4.1915,-4.0958,-3.9914,-3.9935,-3.9739,-3.9324,-3.9376,-3.9272,-3.9129,-3.9101,-3.9101,-3.9101,-3.9101,-3.9101,-3.9101,-3.9101,-3.9101,-3.9194,-4.0011,-4.012,-3.9845,-4.0232,-3.9825,-3.9101,0.0,0.0,0.0,0.0,0.0,0.0,0.0,0.0,0.0,0.0,-2.8551,-2.8474,-2.8518,-2.8362,-2.8551,-2.9191,-2.9514,-2.9829,-3.019,0.0,0.0,0.0,0.0,0.0,-3.0381,-3.0492,-3.0492,-3.0348,-3.0519,-3.0574,-3.0472,-3.0593,-3.0621,-3.0604,-3.0597,-3.14,-3.275,-3.296,-3.3892,-3.5262,-3.5655,-3.5899,-3.5991,0.0,0.0,0.0,0.0,0.0,0.0,0.0,0.0,0.0,0.0,0.0,0.0,0.0,0.0,0.0,0.0,0.0,0.0,0.0,0.0,0.0,0.0,0.0,0.0,0.0,0.0,0.0,0.0,0.0,0.0,0.0,-4.2126,-4.3518,-4.4057,-4.4882,-4.5419,-4.54,-4.4883,-4.4729,-4.526,-4.4188,-4.373,-4.4322,-4.3825,-4.3749,-4.4341,-4.2985,-4.2374,-4.2794,-4.1203,-4.0186,-3.9899,-3.9628,-3.9532,-3.959,-3.9305,-3.9245,-3.9401,-3.9192,-3.9101,-3.9101,-3.9101,-3.9101,-3.9101,-3.9101,-3.9219,-3.9395,-3.9444,-3.9397,-3.9298,-3.9416,-3.9305,-3.9101,0.0,0.0,0.0,0.0,0.0,0.0,0.0,0.0,0.0,0.0,-2.85,-2.8458,-2.8353,-2.8327,-2.8583,-2.9295,-2.955,-2.9874,-3.0312,0.0,0.0,0.0,0.0,-3.0244,-3.0184,-3.0294,-3.0275,-3.0151,-3.0287,-3.0372,-3.04,-3.0442,-3.0501,-3.0559,-3.0897,-3.1794,-3.3041,-3.3357,-3.4295,-3.5553,-3.5637,-3.5726,-3.5814,-3.5945,-3.5957,-3.5876,-3.5845,-3.5822,-3.5838,-3.5836,0.0,0.0,0.0,0.0,0.0,0.0,0.0,0.0,0.0,0.0,0.0,0.0,0.0,0.0,0.0,0.0,0.0,0.0,0.0,0.0,0.0,0.0,0.0,0.0,-4.1416,-4.272,-4.3181,-4.3972,-4.4475,-4.4364,-4.3924,-4.379,-4.4228,-4.3266,-4.2843,-4.3278,-4.2919,-4.28,-4.3126,-4.1998,-4.1525,-4.1911,-4.0511,-3.9721,-3.9609,-3.9433,-3.9357,-3.9396,-3.9219,-3.9165,-3.9324,-3.9165,-3.9101,-3.9101,-3.9101,-3.9101,-3.9101,-3.9101,-3.9192,-3.9324,0.0,0.0,0.0,0.0,-3.9101,-3.9101,0.0,0.0,0.0,0.0,0.0,0.0,0.0,0.0,0.0,0.0,0.0,-2.8362,-2.8099,-2.8191,-2.8565,-2.9279,-2.9548,-2.9878,0.0,0.0,0.0,-3.007,-3.0068,-3.0008,-2.9946,-3.0028,-3.0032,-3.0018,-2.9985,-3.0106,-3.0333,-3.0316,-3.0421,-3.0655,-3.1279,-3.2081,-3.3051,-3.3749,-3.4606,-3.5507,-3.5503,-3.5519,-3.5585,-3.5887,-3.5993,-3.5996,-3.601,-3.6005,-3.6003,-3.6004,0.0,0.0,0.0,0.0,0.0,0.0,0.0,0.0,0.0,0.0,0.0,0.0,0.0,0.0,0.0,0.0,0.0,0.0,0.0,0.0,0.0,0.0,0.0,0.0,-4.1008,-4.1662,-4.1662,-4.2283,-4.275,-4.2887,-4.2775,-4.2699,-4.2755,-4.2376,-4.2128,-4.22,-4.2124,-4.2011,-4.1863,-4.1269,0.0,0.0,0.0,-3.9452,-3.921,-3.9317,-3.9237,-3.8979,-3.9073,-3.9101,-3.9101,-3.9101,-3.9101,-3.9101,-3.9101,-3.9101,-3.9101,-3.9101,-3.9129,-3.9137,-3.9129,-3.9245,-3.9427,-3.9192,-3.9101,-3.9101,0.0,0.0,0.0,0.0,0.0,0.0,0.0,0.0,0.0,-2.8376,-2.8326,-2.8201,-2.7876,-2.8063,-2.8404,-2.8883,-2.9343,-2.9791,0.0,0.0,-2.9798,-2.9924,-2.9793,-2.9681,-2.9608,-2.9713,-2.9713,-2.9533,-2.9796,-2.9939,-3.0003,-3.0155,-3.0644,-3.1376,-3.0873,-3.1751,-3.3594,-3.3226,-3.3997,-3.5503,-3.5515,-3.567,-3.5902,-3.5987,-3.6002,-3.6001,-3.6009,-3.5994,-3.5997,-3.5999,-3.5989,-3.6581,-4.0023,0.0,0.0,0.0,0.0,0.0,0.0,0.0,0.0,0.0,0.0,0.0,0.0,0.0,0.0,0.0,0.0,0.0,0.0,0.0,0.0,-4.0177,-4.0509,-4.0739,-4.0739,-4.0893,-4.1456,-4.2753,-4.2333,-4.2068,-4.2449,-4.1206,-4.0564,-4.1017,-4.0446,-4.0327,-4.0917,-4.0209,-4.0126,-4.0747,-3.9813,-3.929,-3.9272,-3.9129,-3.9064,-3.8979,-3.9073,0.0,-3.9101,-3.9101,-3.9101,-3.9101,-3.9101,-3.9101,-3.9101,-3.9101,-3.9219,-3.9401,-3.9192,-3.9129,-3.9165,-3.9129,-3.9101,-3.9101,0.0,0.0,0.0,0.0,0.0,0.0,0.0,0.0,0.0,0.0,-2.8676,-2.8554,-2.821,-2.8309,-2.8576,-2.8997,-2.9418,0.0,0.0,-2.9381,-2.9152,-2.9048,-2.8929,-2.8915,-2.906,-2.9114,-2.9175,-2.9246,-2.9435,-2.9551,-2.966,-2.9763,-3.038,-3.1446,-3.1135,-3.2,-3.3712,-3.3945,-3.4544,-3.535,-3.5337,-3.5445,-3.5611,-3.5814,-3.5893,-3.5898,-3.5903,-3.5908,-3.5894,-3.5895,-3.5908,-3.6355,-3.896,-3.9977,-4.0304,0.0,0.0,0.0,0.0,0.0,0.0,0.0,0.0,0.0,0.0,0.0,0.0,0.0,0.0,-4.03,-4.0138,0.0,-4.0229,-4.0392,-4.0457,-4.0489,-4.0489,-4.0489,-4.0748,-4.1418,-4.1113,-4.0901,-4.0995,-4.0113,-3.9646,-3.9885,-3.9548,-3.9466,-3.9723,-3.9496,-3.9511,-3.985,-3.9361,-3.912,-3.9156,-3.9073,-3.9064,-3.9064,-3.9073,-3.9101,-3.9101,-3.9101,-3.9101,-3.9101,-3.9101,-3.9101,-3.9101,-3.9101,-3.9165,-3.9298,-3.9137,-3.9165,-3.9272,-3.9156,-3.938,-3.9751,0.0,0.0,0.0,0.0,0.0,0.0,0.0,0.0,0.0,0.0,0.0,-2.8942,-2.8558,-2.8569,-2.8773,0.0,0.0,0.0,0.0,-2.8894,-2.862,-2.8322,-2.8174,-2.8218,-2.8478,-2.8478,-2.8615,-2.891,-2.8975,-2.9097,-2.9279,-2.9467,-3.0189,-3.1328,-3.1686,-3.2593,-3.3975,-3.4808,-3.5134,-3.5097,-3.5097,-3.5077,-3.5122,-3.5438,-3.5668,-3.5799,-3.5806,-3.5795,-3.5807,-3.5807,-3.5794,-3.6103,-3.7901,-3.899,-3.9785,-4.0732,-4.1003,0.0,0.0,0.0,0.0,0.0,0.0,0.0,0.0,-4.0759,-4.0673,-4.0519,-4.0489,-4.0454,-4.0403,-4.0315,-4.0334,-4.0573,-4.0539,-4.0489,-4.0489,-4.0473,-4.0339,-4.0062,-4.0022,-3.9899,-3.9575,-3.9369,-3.9183,-3.9073,-3.9101,-3.9064,-3.8851,-3.9017,-3.9073,-3.8921,-3.8979,-3.9007,-3.9007,-3.9073,-3.9101,-3.9101,-3.9101,-3.9101,-3.9101,-3.9101,-3.9101,-3.9101,-3.9101,-3.9101,-3.9101,-3.9287,-3.937,-3.9425,-3.9538,-3.9757,-3.9927,-3.949,-3.99,-4.0624,0.0,0.0,0.0,0.0,0.0,0.0,0.0,0.0,0.0,0.0,0.0,0.0,0.0,0.0,0.0,0.0,0.0,0.0,-2.9254,-2.8879,-2.8633,-2.8651,-2.829,-2.8102,-2.8065,-2.8065,-2.8102,-2.821,-2.8448,-2.8658,-2.8902,-2.9734,-3.0567,-3.1422,-3.2232,-3.3484,-3.5021,-3.4783,-3.4678,-3.4661,-3.4661,-3.468,-3.468,-3.4721,-3.5182,-3.5794,-3.5805,-3.5804,-3.5801,-3.5801,-3.5803,-3.6112,-3.7859,-3.947,-4.0767,-4.0952,0.0,-4.1003,-4.1064,-4.1038,-4.098,-4.0907,-4.0839,-4.0807,0.0,-4.0788,-4.079,-4.0765,-4.0765,-4.0733,-4.0673,-4.0607,-4.0579,-4.0588,-4.0539,-4.0489,-4.0489,-4.0339,-4.012,-3.988,-3.9963,-3.9899,-3.9383,-3.9298,-3.921,-3.895,-3.8921,-3.8921,-3.891,-3.8939,-3.895,-3.8997,-3.8997,-3.9036,-3.9073,-3.9101,-3.9101,-3.9101,-3.9101,-3.9101,-3.9101,-3.9101,-3.9101,-3.9101,-3.9101,-3.9101,-3.9157,-3.9937,-4.0364,-4.057,-4.111,-4.1446,-4.1515,-4.0589,-4.0754,-4.146,0.0,0.0,0.0,0.0,0.0,0.0,0.0,0.0,0.0,0.0,0.0,0.0,0.0,0.0,0.0,0.0,0.0,0.0,-2.8424,-2.8066,-2.7707,-2.7426,-2.7272,-2.7161,-2.7189,-2.7189,-2.7296,-2.7507,-2.7816,-2.8316,-2.8927,-2.9528,-3.0516,-3.1873,-3.1642,-3.2717,-3.4679,-3.4626,-3.4602,-3.4583,-3.4614,-3.4597,-3.4598,-3.4602,-3.4812,-3.5162,-3.5586,-3.5736,0.0,0.0,-3.5773,-3.6165,-3.8218,-3.9165,-3.9693,-4.0701,-4.1029,0.0,-4.1095,-4.1085,-4.1038,-4.098,-4.0935,-4.0907,-4.0828,-4.0804,-4.08,-4.0803,-4.079,-4.079,-4.0759,-4.07,-4.0654,-4.0612,-4.0569,-4.0508,-4.0339,-4.0251,-4.0233,-4.0321,-4.0396,-4.0088,-3.9221,-3.9129,-3.9045,-3.8892,-3.8939,-3.8968,-3.8968,-3.8968,-3.8979,-3.9064,-3.9064,-3.9073,-3.9101,-3.9101,-3.9101,-3.9101,-3.9101,-3.9101,-3.9101,-3.9101,-3.938,-3.9863,-3.9863,-4.0123,-4.0568,-4.094,-4.1194,-4.136,-4.1624,-4.2137,-4.2592,-4.1501,-4.1609,-4.2296,0.0,0.0,0.0,0.0,0.0,0.0,0.0,0.0,0.0,0.0,0.0,0.0,0.0,0.0,0.0,0.0,0.0,0.0,0.0,-2.7601,-2.7195,-2.6623,-2.6503,0.0,-2.642,-2.6505,-2.6623,-2.6871,-2.7251,-2.7967,-2.9044,-2.9562,-3.0492,-3.1755,-3.1436,-3.2229,-3.3789,-3.4124,-3.4399,-3.4604,-3.4607,-3.4599,-3.4599,-3.4602,-3.4597,-3.4661,-3.5196,-3.5522,0.0,0.0,-3.5728,-3.6163,-3.8471,-3.8968,-3.9,-4.055,-4.1052,-4.1091,-4.1106,-4.1109,-4.1091,-4.1045,-4.1011,-4.098,-4.0869,-4.0828,-4.0796,-4.0788,-4.0803,-4.079,-4.079,-4.0746,-4.0687,-4.0621,-4.0598,-4.0527,-4.0304,-4.0387,-4.0551,-4.0777,-4.0903,-4.0624,-3.9806,-3.9517,-3.9266,-3.8968,-3.9007,-3.9036,-3.9036,-3.9036,-3.9064,-3.9101,-3.9101,-3.9101,-3.9101,-3.9101,-3.9101,-3.9101,-3.9342,-3.9454,-3.9472,-3.9695,-4.0123,-4.0717,-4.0774,-4.1138,-4.1649,-4.1872,-4.2033,-4.2165,-4.2408,-4.2932,-4.3474,-4.2687,-4.275,-4.3211,0.0,0.0,0.0,0.0,0.0,0.0,0.0,0.0,0.0,0.0,0.0,0.0,0.0,0.0,0.0,0.0,0.0,0.0,0.0,-2.7926,-2.7517,-2.6888,-2.6505,-2.6208,-2.5997,-2.6208,-2.6314,-2.6314,-2.6792,-2.772,-2.9121,-3.0119,-3.059,-3.0715,-3.2166,-3.2677,-3.2505,-3.3164,-3.3897,-3.4599,-3.461,-3.4611,-3.4592,-3.4599,-3.4597,-3.4586,-3.463,0.0,0.0,0.0,-3.5708,-3.6106,-3.8471,-3.919,0.0,-4.0639,-4.1052,-4.1091,-4.1091,-4.1106,-4.1095,-4.1095,-4.1059,-4.0996,-4.0988,-4.0878,-4.0807,-4.0807,-4.08,-4.079,-4.079,-4.0746,-4.0687,-4.0621,-4.0598,-4.0573,-4.0489,-4.0826,-4.1086,-4.1082,-4.1376,-4.1553,-4.1516,-4.081,-4.0011,-3.9157,-3.9101,-3.9101,-3.9101,-3.9101,-3.9101,-3.9101,-3.9101,-3.9101,-3.9101,-3.9101,-3.9101,-3.9101,-3.9955,-4.0346,-4.0383,-4.1163,-4.1534,-4.1553,-4.1689,-4.1791,-4.1866,-4.2623,-4.2959,-4.3062,-4.3874,-4.4258,-4.4277,-4.4383,-4.4345,-4.4218,0.0,0.0,0.0,0.0,0.0,0.0,0.0,0.0,0.0,0.0,0.0,0.0,0.0,0.0,0.0,0.0,0.0,0.0,0.0,-2.7718,-2.7181,-2.6708,-2.626,-2.597,-2.5873,-2.5782,-2.5729,-2.5841,-2.6007,-2.7102,-2.9042,-2.973,-3.0629,-3.162,-3.2281,-3.2519,-3.2393,-3.2629,-3.3351,-3.4336,-3.4325,-3.445,-3.4641,-3.5143,-3.5322,-3.5325,0.0,0.0,0.0,-3.5701,-3.62,-3.7045,-3.8277,-3.9077,-3.9736,-4.0762,-4.1072,-4.1108,-4.1108,-4.1065,-4.1046,-4.1086,-4.1084,-4.1046,-4.1003,-4.0971,-4.0926,-4.0888,-4.0837,-4.0781,-4.0668,-4.0726,-4.072,-4.0549,-4.0564,-4.0485,-4.0157,-4.019,-4.0514,-4.133,-4.152,-4.1813,-4.2333,-4.1181,-4.0271,-3.9974,-3.9435,-3.9101,-3.9101,-3.9101,-3.9101,-3.9101,-3.9658,-3.9955,-3.9955,-4.0494,-4.0754,-4.0754,-4.1051,-4.12,-4.12,-4.1479,-4.1887,-4.2389,-4.243,-4.2835,-4.3492,-4.3743,-4.398,-4.4165,-4.4465,-4.4632,-4.4667,-4.4551,-4.4487,-4.443,0.0,0.0,0.0,0.0,0.0,0.0,0.0,0.0,0.0,0.0,0.0,0.0,0.0,0.0,0.0,0.0,0.0,0.0,0.0,0.0,-2.8053,-2.7624,-2.695,-2.6504,-2.6381,-2.5648,-2.5307,-2.539,-2.6374,-2.7931,-3.0005,-3.034,-3.1028,-3.1992,-3.2141,-3.2249,-3.2388,-3.2385,-3.312,-3.4182,-3.4189,-3.4476,-3.4996,-3.5494,-3.5703,0.0,0.0,0.0,0.0,-3.5701,-3.6372,-3.7362,-3.8149,-3.9233,-4.0316,-4.0898,-4.1054,-4.105,-4.1052,-4.103,-4.1029,-4.1085,-4.1106,-4.1095,-4.1059,-4.1018,-4.0996,-4.0943,-4.0839,-4.0699,-4.0617,-4.0913,-4.1089,-4.0883,-4.1146,-4.1174,-4.0557,-4.0517,-4.0734,-4.1295,-4.1491,-4.1794,-4.2314,-4.1181,-4.0401,-4.0401,-3.9584,-3.9101,-3.9101,-3.9398,-3.9547,-3.9547,-4.0383,-4.0828,-4.0828,-4.133,-4.1739,-4.2017,-4.2076,-4.2255,-4.2552,-4.2611,-4.292,-4.3423,-4.3463,-4.3849,-4.444,-4.444,-4.4551,-4.4712,-4.4712,-4.4745,-4.4796,-4.4685,-4.4605,-4.457,0.0,0.0,0.0,0.0,0.0,0.0,0.0,0.0,0.0,0.0,0.0,0.0,0.0,0.0,0.0,0.0,0.0,0.0,0.0,0.0,0.0,-2.9467,-2.8438,-2.776,-2.7506,-2.586,-2.5098,-2.5334,-2.7954,-3.0079,-3.1623,-3.1655,-3.1655,-3.1674,-3.1756,-3.2021,-3.2388,-3.2384,-3.3069,-3.4222,-3.4242,-3.4764,-3.5526,-3.5701,0.0,0.0,0.0,0.0,0.0,-3.58,-3.6342,-3.7204,-3.8208,-3.9704,-4.1076,-4.1026,-4.101,-4.101,-4.1008,-4.0994,-4.1015,-4.1088,-4.1105,-4.1091,-4.11,-4.1052,-4.1006,-4.1003,-4.0779,-4.0623,-4.0662,-4.1287,-4.1755,-4.1531,-4.22,-4.245,-4.1552,-4.1642,-4.1555,-4.0947,-4.1268,-4.1553,-4.159,-4.0866,-4.042,-4.0457,-3.9621,-3.912,-3.9157,-3.9937,-4.042,-4.0457,-4.1237,-4.1664,-4.1664,-4.1702,-4.211,-4.2853,-4.3013,-4.3482,-4.4314,-4.443,-4.4487,-4.4515,-4.4632,-4.4685,-4.4712,-4.4749,-4.4768,-4.4768,-4.4806,-4.4825,-4.4851,-4.4978,-4.4928,-4.4772,0.0,0.0,0.0,0.0,0.0,0.0,0.0,0.0,0.0,0.0,0.0,0.0,0.0,0.0,0.0,0.0,0.0,0.0,0.0,0.0,0.0,0.0,0.0,0.0,0.0,0.0,0.0,0.0,0.0,-3.0497,-2.9256,-2.9625,-2.9799,-2.9849,-3.1192,-3.1862,-3.1955,-3.1957,-3.2838,-3.4271,0.0,-3.5298,-3.5609,0.0,0.0,0.0,0.0,0.0,0.0,-3.7127,-3.7843,-3.9065,-3.9976,-4.0614,-4.1022,-4.1066,-4.0994,-4.0946,-4.1043,-4.1033,-4.1025,-4.1082,-4.1097,-4.1105,-4.1091,-4.1095,-4.1064,-4.1078,-4.0906,-4.0892,-4.1349,-4.1668,-4.1805,-4.1604,-4.1848,-4.1675,-4.0596,-4.035,-4.0346,-4.0645,-4.0691,-4.094,-4.1534,-4.0866,-4.0643,-4.1237,-3.9918,-3.938,-4.003,-4.0271,-4.0661,-4.1274,-4.2073,-4.2482,-4.2482,-4.3095,-4.3485,-4.3689,-4.372,-4.3923,-4.4285,-4.4344,-4.4401,-4.4515,-4.4542,-4.4605,-4.4749,-4.5353,-4.567,-4.5868,-4.6474,-4.6701,-4.6701,-4.6641,-4.6588,-4.6561,0.0,0.0,0.0,0.0,0.0,0.0,0.0,0.0,0.0,0.0,0.0,0.0,0.0,0.0,0.0,0.0,0.0,0.0,0.0,0.0,0.0,0.0,0.0,0.0,0.0,0.0,0.0,0.0,0.0,0.0,0.0,-3.1028,-3.1161,-3.1217,-3.2222,-3.2733,-3.2967,0.0,0.0,0.0,0.0,0.0,0.0,0.0,0.0,0.0,0.0,0.0,0.0,-3.8504,-3.8946,-3.9751,-4.0654,-4.0995,-4.1041,-4.1097,-4.1045,-4.0991,-4.1036,-4.1027,-4.1019,-4.1084,-4.1104,-4.1097,-4.1105,-4.1091,-4.1075,-4.102,-4.1131,-4.1319,-4.1559,-4.2329,-4.2722,-4.2144,-4.2411,-4.2238,-4.0845,-4.0337,-4.0103,-4.0113,-3.9946,-4.016,-4.0977,-4.0661,-4.0717,-4.1534,-4.0401,-4.003,-4.0866,-4.1256,-4.1664,-4.211,-4.2909,-4.3336,-4.3336,-4.3763,-4.4005,-4.4005,-4.4097,-4.4207,-4.4401,-4.444,-4.4758,-4.5251,-4.5251,-4.5493,-4.593,-4.6384,-4.6599,-4.6771,-4.7226,-4.7397,-4.7397,-4.7318,-4.7238,-4.7211,0.0,0.0,0.0,0.0,0.0,0.0,0.0,0.0,0.0,0.0,0.0,0.0,0.0,0.0,0.0,0.0,0.0,0.0,0.0,0.0,0.0,0.0,0.0,0.0,0.0,0.0,0.0,0.0,0.0,0.0,0.0,0.0,0.0,0.0,0.0,0.0,0.0,0.0,0.0,0.0,0.0,0.0,0.0,0.0,0.0,0.0,0.0,0.0,0.0,0.0,-3.9835,-3.9932,-4.0745,-4.104,-4.1091,-4.1105,-4.1091,-4.1082,-4.1041,-4.1013,-4.1023,-4.1084,-4.1108,-4.1104,-4.109,-4.1076,-4.1064,-4.1049,-4.1432,-4.1793,-4.1831,-4.3116,-4.3828,-4.2772,-4.325,-4.3156,-4.1454,-4.0882,-4.0386,-3.9765,-3.9533,-3.9733,-4.0476,-4.055,-4.0884,-4.1702,-4.1107,-4.1014,-4.172,-4.2407,-4.2853,-4.2965,-4.3633,-4.4005,-4.4005,-4.4005,-4.4005,-4.4005,-4.4319,-4.4522,-4.4665,-4.4915,-4.5526,-4.6354,-4.6354,-4.6752,-4.7397,-4.751,-4.7567,-4.7567,-4.7681,-4.7719,-4.7719,-4.7719,-4.764,-4.7559,0.0,0.0,0.0,0.0,0.0,0.0,0.0,0.0,0.0,0.0,-3.5679,-3.5607,0.0,0.0,0.0,0.0,0.0,0.0,0.0,0.0,0.0,0.0,0.0,0.0,0.0,0.0,0.0,0.0,0.0,0.0,0.0,0.0,0.0,0.0,0.0,0.0,0.0,0.0,0.0,0.0,0.0,0.0,0.0,0.0,0.0,0.0,0.0,0.0,0.0,0.0,-4.0784,-4.0706,-4.0938,-4.1004,-4.1027,-4.1075,-4.1062,-4.1022,-4.1073,-4.103,-4.1023,-4.1084,-4.1108,-4.1081,-4.1037,-4.0961,-4.1104,-4.1692,-4.1716,-4.2019,-4.333,-4.3829,-4.3711,-4.2751,-4.2751,-4.2295,-4.0577,-4.0594,-4.0715,-4.0591,-4.0933,-4.1219,-4.1367,-4.1386,-4.172,-4.2519,-4.2463,-4.2445,-4.2575,-4.2723,-4.3095,-4.3763,-4.3931,-4.4005,-4.4005,-4.4005,-4.4005,-4.4005,-4.4878,-4.5346,-4.551,-4.6393,-4.6906,-4.7188,-4.7188,-4.7264,-4.7453,-4.8174,-4.8458,-4.8534,-4.9197,-4.9462,-4.9462,-4.9462,-4.9462,-4.9435,0.0,0.0,0.0,0.0,0.0,0.0,0.0,-3.5917,-3.6054,-3.6523,-3.6102,-3.5766,-3.5748,-3.571,0.0,0.0,0.0,0.0,0.0,0.0,0.0,0.0,0.0,0.0,0.0,0.0,-3.7071,-3.5917,0.0,0.0,-3.42,-3.419,-3.5296,-3.7295,0.0,0.0,0.0,0.0,0.0,0.0,0.0,0.0,0.0,0.0,0.0,0.0,0.0,0.0,0.0,0.0,-4.1093,-4.1016,-4.1035,-4.1059,-4.1062,-4.1136,-4.1094,-4.1053,-4.1082,-4.1087,-4.1054,-4.1097,-4.1108,-4.1078,-4.1025,-4.1291,-4.1625,-4.1816,-4.2422,-4.3099,-4.3786,-4.4302,-4.4319,-4.3333,-4.3262,-4.2824,-4.138,-4.1335,-4.1391,-4.133,-4.1493,-4.1757,-4.2184,-4.2222,-4.2556,-4.3355,-4.3429,-4.3429,-4.3429,-4.3429,-4.3596,-4.3986,-4.4005,-4.4005,-4.4005,-4.4451,-4.4674,-4.4692,-4.5662,-4.6207,-4.6392,-4.6958,-4.7511,-4.8079,-4.8079,-4.8306,-4.8723,-4.914,-4.9311,-4.9349,-4.9746,-4.9898,-4.9898,-4.9898,-4.9898,-4.9898,0.0,0.0,0.0,0.0,0.0,0.0,0.0,-3.6069,-3.6152,-3.6829,-3.6986,-3.6855,-3.642,-3.6072,-3.5816,0.0,0.0,0.0,0.0,0.0,0.0,0.0,0.0,0.0,0.0,0.0,0.0,-3.7736,-3.8099,0.0,0.0,0.0,0.0,0.0,-4.0557,-3.9926,-3.8916,0.0,0.0,0.0,0.0,-4.0609,0.0,0.0,0.0,0.0,0.0,0.0,0.0,0.0,-4.1127,-4.1069,-4.1057,-4.109,-4.1127,-4.1167,-4.1144,-4.1108,-4.1108,-4.1081,-4.1074,-4.1078,-4.1207,-4.1281,-4.1206,-4.1818,-4.236,-4.2245,-4.3192,-4.4039,-4.4072,-4.4627,-4.4782,-4.3824,-4.3719,-4.3373,-4.2303,-4.2183,-4.2181,-4.2062,-4.2087,-4.2352,-4.3002,-4.3058,-4.3318,-4.3949,-4.4005,-4.4005,-4.4005,-4.4005,-4.4005,-4.4005,-4.4005,-4.411,-4.4327,-4.4984,-4.5411,-4.5693,-4.6582,-4.7128,-4.7314,-4.7636,-4.8226,-4.8951,-4.8951,-4.9311,-4.9898,-4.9898,-4.9898,-4.9898,-4.9898,-4.9898,-4.9898,-4.9898,-4.9898,-4.9898,0.0,0.0,0.0,0.0,0.0,0.0,0.0,-3.6487,-3.5927,-3.6,-3.8711,-4.0028,-3.8426,-3.6797,-3.5795,0.0,0.0,0.0,0.0,0.0,0.0,0.0,0.0,0.0,0.0,0.0,0.0,-3.8513,-3.7888,0.0,0.0,0.0,0.0,0.0,0.0,-4.0615,-4.0403,-4.0388,0.0,0.0,0.0,0.0,0.0,0.0,0.0,0.0,0.0,-4.1106,-4.108,0.0,-4.0998,-4.0998,-4.0933,-4.1035,-4.1171,-4.1123,-4.1091,-4.1108,-4.1108,-4.1052,-4.102,-4.1013,-4.1517,-4.1966,-4.186,-4.2439,-4.3181,-4.377,-4.3843,-4.4059,-4.4836,-4.4838,-4.448,-4.3662,-4.3371,-4.2972,-4.2156,-4.2548,-4.2903,-4.2903,-4.3427,-4.3819,-4.3875,-4.3893,-4.3912,-4.3986,-4.4005,-4.4005,-4.4005,-4.4005,-4.4005,-4.4005,-4.4005,-4.4451,-4.535,-4.5326,-4.5817,-4.6851,-4.7658,-4.8123,-4.8296,-4.9229,-4.9709,-4.9784,-4.9784,-4.9822,-4.9898,-4.9898,-4.9898,-4.9898,-4.9898,-4.9898,-4.9898,-4.9898,-4.9898,-4.9871,0.0,0.0,0.0,0.0,0.0,0.0,-3.7459,-3.7052,-3.6957,-3.7405,-3.853,-3.9432,-3.9788,-3.9225,-3.801,0.0,0.0,0.0,0.0,0.0,0.0,0.0,0.0,0.0,0.0,0.0,-3.9946,-3.9971,-3.9619,0.0,0.0,0.0,0.0,0.0,0.0,-4.0729,-4.0713,-4.0628,0.0,0.0,0.0,0.0,0.0,0.0,0.0,0.0,0.0,0.0,-4.0926,-4.0889,-4.0884,-4.0862,-4.0709,-4.0709,-4.0796,-4.0894,-4.0909,-4.0929,-4.0929,-4.0902,-4.0874,-4.0882,-4.1498,-4.2071,-4.1938,-4.2898,-4.3797,-4.37,-4.399,-4.4298,-4.4382,-4.426,-4.4002,-4.3576,-4.3472,-4.3268,-4.2788,-4.3156,-4.3454,-4.336,-4.3738,-4.4005,-4.4005,-4.4005,-4.4005,-4.4005,-4.4005,-4.4005,-4.4005,-4.4005,-4.4005,-4.4005,-4.4506,-4.501,-4.5492,-4.6458,-4.7193,-4.7725,-4.8671,-4.9125,-4.9211,-4.9692,-4.9898,-4.9898,-4.9898,-4.9898,-4.9898,-4.9898,-4.9898,-4.9898,-4.9898,-4.9898,-4.9898,-4.9898,-4.9898,-4.9879,0.0,0.0,0.0,0.0,0.0,-3.8651,-3.8325,-3.8267,-3.8434,-3.8967,-3.8871,-3.9219,-4.0442,-4.066,-3.9743,-3.737,0.0,0.0,0.0,0.0,0.0,0.0,0.0,0.0,0.0,0.0,-4.0849,-4.0888,-4.0796,-4.0784,0.0,0.0,-4.0847,-4.0988,0.0,0.0,0.0,0.0,0.0,0.0,0.0,0.0,0.0,0.0,0.0,0.0,0.0,0.0,0.0,0.0,0.0,-4.1253,0.0,0.0,0.0,0.0,-4.0653,-4.0713,-4.0711,-4.0749,-4.0839,-4.1061,-4.1683,-4.2246,-4.2351,-4.3385,-4.4169,-4.3706,-4.4033,-4.4327,-4.3974,-4.3818,-4.3638,-4.3505,-4.3419,-4.3281,-4.3124,-4.3389,-4.3575,-4.3458,-4.373,-4.3961,-4.3974,-4.3974,-4.4005,-4.4005,-4.4005,-4.4005,-4.4005,-4.4005,-4.4005,-4.4005,-4.4841,-4.5475,-4.5847,-4.7286,-4.8222,-4.866,-4.9351,-4.9721,-4.9759,-4.9871,-4.9898,-4.9898,-4.9898,-4.9898,-4.9898,-4.9898,-4.9898,-4.9898,-4.9898,-4.9898,-4.9898,-4.9898,-4.9898,-4.9898,0.0,0.0,0.0,0.0,0.0,0.0,-4.0281,-4.0258,-4.028,-4.0282,-4.0288,-4.0288,-4.0307,-4.0423,-4.0462,-4.0346,0.0,0.0,0.0,0.0,0.0,0.0,0.0,0.0,0.0,0.0,0.0,-4.0901,-4.089,-4.0901,-4.0894,-4.0895,-4.0926,-4.0996,0.0,0.0,0.0,0.0,0.0,0.0,0.0,0.0,0.0,0.0,0.0,0.0,0.0,0.0,0.0,0.0,0.0,0.0,0.0,0.0,0.0,0.0,-4.0304,-4.0496,-4.0501,-4.0597,-4.0887,-4.1699,-4.2174,-4.2671,-4.3331,-4.3919,-4.4261,-4.4109,-4.4058,-4.3986,-4.3912,-4.367,-4.3471,-4.3387,-4.3069,-4.281,-4.2792,-4.2978,-4.3123,-4.3123,-4.3529,-4.3837,-4.3897,-4.3942,-4.4005,-4.4005,-4.4005,-4.4005,-4.4005,-4.4005,-4.4005,-4.4005,-4.4841,-4.5754,-4.6688,-4.7567,-4.8565,-4.9673,-4.9692,-4.9778,-4.9898,-4.9898,-4.9898,-4.9898,-4.9898,-4.9898,-4.9898,-4.9898,-4.9898,-4.9898,-4.9898,-4.9898,-4.9898,-4.9898,-4.9898,-4.9852,0.0,0.0,0.0,0.0,0.0,0.0,0.0,-4.0306,-4.0304,-4.0298,-4.0315,-4.0315,-4.0315,-4.0348,-4.0392,-4.0458,0.0,0.0,0.0,0.0,0.0,0.0,0.0,0.0,0.0,0.0,0.0,0.0,-4.0721,-4.0762,-4.0908,-4.0757,-4.074,-4.0795,-4.0755,-4.0781,0.0,0.0,0.0,0.0,0.0,0.0,-4.2941,0.0,0.0,0.0,0.0,0.0,0.0,0.0,0.0,0.0,0.0,0.0,0.0,0.0,0.0,-4.1532,-4.1521,-4.1561,-4.1656,-4.1857,-4.2427,-4.2944,-4.3047,-4.368,-4.4109,-4.3717,-4.3605,-4.349,-4.3087,-4.2902,-4.2768,-4.2537,-4.2338,-4.2133,-4.1984,-4.2501,-4.2904,-4.2904,-4.3493,-4.3961,-4.3974,-4.3974,-4.4005,-4.4005,-4.4005,-4.4005,-4.4005,-4.4562,-4.4878,-4.4878,-4.5786,-4.6701,-4.7585,-4.8645,-4.934,-4.9692,-4.9788,-4.9871,-4.9898,-4.9898,-4.9898,-4.9898,-4.9898,-4.9898,-4.9898,-4.9898,-4.9898,-4.9898,-4.9898,-4.9898,-4.9898,-4.9898,-4.9898,-4.9852,0.0,0.0,0.0,0.0,0.0,0.0,0.0,-4.031,-4.031,-4.031,-4.031,-4.031,-4.031,-4.0291,-4.0325,-4.0425,0.0,0.0,0.0,0.0,0.0,0.0,0.0,0.0,0.0,0.0,0.0,0.0,0.0,-4.074,-4.0863,-4.0726,-4.0701,-4.0747,-4.0682,-4.0719,0.0,0.0,0.0,0.0,0.0,0.0,-4.3388,0.0,0.0,0.0,0.0,0.0,0.0,0.0,0.0,0.0,0.0,0.0,0.0,0.0,-4.1757,-4.189,-4.1838,-4.1893,-4.2001,-4.2216,-4.2585,-4.2922,-4.3051,-4.3423,-4.3535,-4.2978,-4.2959,-4.2921,-4.2356,-4.2328,-4.2264,-4.2061,-4.1788,-4.1657,-4.1744,-4.2262,-4.2716,-4.3051,-4.3597,-4.3929,-4.3929,-4.3974,-4.4005,-4.4005,-4.4302,-4.4488,-4.4488,-4.5287,-4.5881,-4.6197,-4.6792,-4.7359,-4.7996,-4.907,-4.9615,-4.9692,-4.9843,-4.9898,-4.9898,-4.9898,-4.9898,-4.9898,-4.9898,-4.9898,0.0,-4.9898,-4.9898,-4.9898,-4.9898,-4.9898,-4.9879,-4.9769,-4.9712,-4.9655,0.0,0.0,0.0,0.0,0.0,0.0,0.0,0.0,-4.031,-4.031,-4.031,-4.031,-4.031,-4.031,-4.031,-4.031,0.0,0.0,0.0,0.0,0.0,0.0,0.0,0.0,0.0,0.0,0.0,-4.0732,-4.0746,-4.0738,-4.0706,0.0,-4.0723,-4.0758,-4.0758,-4.0796,0.0,0.0,0.0,0.0,0.0,0.0,0.0,0.0,0.0,0.0,0.0,0.0,0.0,0.0,0.0,0.0,0.0,0.0,0.0,0.0,0.0,0.0,0.0,-4.1716,-4.2098,-4.2706,-4.2693,-4.265,-4.3188,0.0,0.0,0.0,-4.2192,-4.2333,-4.1753,-4.1856,-4.2019,-4.1874,-4.1463,-4.1373,-4.1864,-4.2162,-4.2621,-4.3461,-4.3701,-4.3804,-4.3804,-4.3929,-4.4023,-4.4098,-4.4841,-4.5324,-4.5379,-4.6141,-4.6921,-4.7716,-4.7791,-4.7895,-4.809,-4.8977,-4.9506,-4.9692,-4.9843,-4.9898,-4.9898,-4.9898,-4.9898,-4.9898,-4.9898,-4.9898,-4.9898,-4.9898,-4.9898,-4.9898,-4.9898,-4.9898,-4.9852,-4.9518,-4.9452,-4.9427,0.0,0.0,0.0,0.0,0.0,0.0,0.0,0.0,0.0,0.0,-4.031,-4.031,-4.031,-4.031,-4.031,0.0,0.0,0.0,0.0,0.0,0.0,0.0,0.0,0.0,0.0,0.0,0.0,-4.0191,-4.0192,-4.0119,-3.9946,-3.9962,0.0,0.0,-4.0326,0.0,0.0,0.0,0.0,0.0,0.0,0.0,0.0,0.0,0.0,0.0,-4.4079,-4.3726,0.0,0.0,0.0,0.0,0.0,0.0,0.0,0.0,-4.1835,-4.1764,-4.168,0.0,-4.2359,-4.2485,-4.265,-4.2722,0.0,0.0,0.0,0.0,0.0,-4.1561,-4.1356,-4.1542,-4.1631,-4.1391,-4.1255,-4.1209,-4.1163,-4.1846,-4.2544,-4.3141,-4.3582,-4.3837,-4.3883,-4.3915,-4.422,-4.4934,-4.5175,-4.5565,-4.6197,-4.6977,-4.7582,-4.7932,-4.8548,-4.8866,-4.8898,-4.9502,-4.9741,-4.9692,-4.9843,-4.9898,-4.9898,-4.9898,-4.9898,-4.9898,-4.9898,-4.9898,-4.9898,-4.9898,-4.9898,-4.9898,-4.9898,-4.9898,-4.9852,-4.9518,-4.9809,-5.022,0.0,0.0,0.0,0.0,0.0,0.0,0.0,0.0,0.0,0.0,0.0,0.0,0.0,0.0,0.0,0.0,0.0,0.0,0.0,0.0,0.0,0.0,0.0,0.0,0.0,0.0,0.0,0.0,0.0,-3.9775,0.0,0.0,0.0,0.0,0.0,0.0,0.0,0.0,0.0,0.0,-4.3619,0.0,0.0,0.0,0.0,0.0,-4.3563,-4.3267,0.0,-4.2657,-4.2346,-4.2103,0.0,0.0,0.0,0.0,-4.1094,-4.0984,-4.0879,-4.142,-4.2003,-4.1913,-4.2015,-4.1979,-4.1578,0.0,0.0,0.0,0.0,-4.1001,-4.1192,-4.1255,-4.13,-4.1192,-4.1209,-4.1209,-4.1255,-4.1871,-4.2505,-4.2996,-4.3267,-4.3695,-4.4336,-4.442,-4.4837,-4.5788,-4.6197,-4.6587,-4.7033,-4.7813,-4.836,-4.8525,-4.9051,-4.934,-4.9434,-4.9673,-4.9788,-4.9788,-4.9871,-4.9898,-4.9898,-4.9898,-4.9898,-4.9898,-4.9898,-4.9898,-4.9898,-4.9898,-4.9898,-4.9879,-4.9741,-4.991,-5.0142,-4.9612,-4.9928,-5.0508,0.0,0.0,0.0,0.0,0.0,0.0,0.0,0.0,0.0,0.0,0.0,0.0,0.0,0.0,0.0,0.0,0.0,0.0,0.0,0.0,0.0,0.0,0.0,0.0,0.0,0.0,0.0,0.0,0.0,0.0,0.0,0.0,-3.9693,0.0,0.0,0.0,0.0,0.0,-4.32,-4.3103,-4.3823,0.0,0.0,0.0,0.0,0.0,0.0,0.0,0.0,-4.2038,-4.181,-4.17,-4.1139,0.0,0.0,0.0,0.0,0.0,-3.9952,-4.0528,-4.1206,-4.115,-4.1105,-4.1041,-4.0949,0.0,0.0,0.0,0.0,0.0,-4.1007,-4.1007,-4.1036,-4.1163,-4.1255,-4.1311,-4.1622,-4.2098,-4.2559,-4.3122,-4.3214,-4.3779,-4.5063,-4.522,-4.5671,-4.6605,-4.7311,-4.7757,-4.7887,-4.8537,-4.9012,-4.9211,-4.9321,-4.9525,-4.9721,-4.9721,-4.9807,-4.9898,-4.9898,-4.9898,-4.9898,-4.9898,-4.9898,-4.9898,-4.9898,-4.9898,-4.9898,-4.9898,-4.9852,-4.9816,-4.9638,-4.9952,-5.0422,-4.9805,-5.0105,-5.0758,0.0,0.0,0.0,0.0,0.0,0.0,0.0,0.0,0.0,0.0,0.0,0.0,0.0,0.0,0.0,0.0,0.0,0.0,0.0,0.0,0.0,0.0,0.0,0.0,0.0,0.0,0.0,0.0,0.0,0.0,-3.8931,-3.8931,-3.9463,-4.0413,0.0,-4.1487,-4.2595,-4.2857,-4.3223,-4.3666,-4.3693,0.0,0.0,0.0,0.0,0.0,0.0,0.0,0.0,-4.1303,-4.1019,-4.0693,-4.0468,0.0,0.0,0.0,0.0,0.0,-3.9901,-4.0154,-4.04,-4.048,-4.075,-4.0949,-4.0903,0.0,0.0,0.0,0.0,0.0,-4.04,-4.0676,-4.0995,-4.1163,-4.1311,-4.149,-4.1516,-4.2279,-4.3098,-4.3862,-4.4346,-4.4961,-4.5928,-4.607,-4.6505,-4.746,-4.7627,-4.7999,-4.8686,-4.8834,-4.9027,-4.9352,-4.9384,-4.9566,-4.9871,-4.9871,-4.9898,-4.9898,-4.9898,-4.9898,-4.9898,-4.9898,-4.9898,-4.9898,-4.9898,-4.9898,-4.9898,-4.9898,-4.9741,-4.9532,-5.0166,-5.0291,-5.0098,-5.0335,-5.0927,-5.165,0.0,0.0,0.0,0.0,0.0,0.0,0.0,0.0,0.0,0.0,0.0,0.0,0.0,0.0,0.0,0.0,0.0,0.0,0.0,0.0,0.0,0.0,0.0,0.0,0.0,0.0,0.0,0.0,0.0,-3.8851,-3.8792,-3.9061,-3.9583,-4.0317,-4.1056,-4.173,-4.2345,-4.2787,-4.2953,-4.2921,0.0,0.0,0.0,0.0,0.0,0.0,0.0,0.0,0.0,0.0,-4.0549,-4.0387,-4.0238,0.0,0.0,0.0,0.0,0.0,-3.9694,-3.9729,-3.9901,-4.0103,-4.0528,-4.0861,-4.0861,-4.0737,0.0,0.0,0.0,0.0,-4.0383,-4.0611,-4.0819,-4.1146,-4.1209,-4.1163,-4.1163,-4.2105,-4.3007,-4.3629,-4.4595,-4.5608,-4.6724,-4.6956,-4.7376,-4.8296,-4.8351,-4.8519,-4.889,-4.9012,-4.9179,-4.9384,-4.9525,-4.9673,-4.9898,-4.9898,-4.9898,-4.9898,-4.9898,-4.9898,-4.9898,-4.9898,-4.9898,-4.9898,-4.9898,-4.9797,-4.9625,-4.9625,-4.9671,-4.9728,-4.991,-5.038,-5.1019,-5.1475,-5.1868,-5.2207,0.0,0.0,0.0,0.0,0.0,0.0,0.0,0.0,0.0,0.0,0.0,0.0,0.0,0.0,0.0,0.0,0.0,0.0,0.0,0.0,0.0,0.0,0.0,0.0,0.0,0.0,-3.8707,-3.8707,-3.8596,-3.8638,-3.8752,-3.9306,-3.9847,-4.0349,-4.1285,-4.1778,-4.194,-4.2537,-4.2541,-4.2157,0.0,0.0,0.0,0.0,0.0,0.0,0.0,0.0,0.0,0.0,0.0,0.0,0.0,0.0,0.0,-3.9884,-3.9849,-3.9746,-3.9554,-3.9537,-3.9609,-3.9919,-4.0153,-4.0466,-4.0802,-4.0724,0.0,0.0,0.0,-4.04,-4.0577,-4.0689,-4.0849,-4.1071,-4.1244,-4.1319,-4.1319,-4.2464,-4.3464,-4.4086,-4.5149,-4.6378,-4.7608,-4.7842,-4.819,-4.8853,-4.8909,-4.8909,-4.8978,-4.9113,-4.9276,-4.9446,-4.9615,-4.9759,-4.9898,-4.9898,-4.9898,-4.9898,-4.9898,-4.9898,-4.9898,-4.9898,-4.9852,-4.9769,-4.9769,-4.9577,-4.927,-4.9458,-4.9691,-4.9861,-4.9947,-5.0794,-5.1999,-5.2382,-5.2498,-5.2498,0.0,0.0,0.0,0.0,0.0,0.0,0.0,0.0,0.0,0.0,0.0,0.0,0.0,0.0,0.0,0.0,0.0,0.0,0.0,0.0,0.0,0.0,0.0,0.0,0.0,-3.8707,-3.8707,-3.8707,-3.8336,-3.8308,-3.8613,-3.9397,-4.0203,-4.0921,-4.1046,-4.1471,-4.2167,-4.2103,-4.2062,-4.1979,-4.1895,0.0,0.0,0.0,0.0,0.0,0.0,0.0,0.0,0.0,0.0,0.0,0.0,0.0,-3.9901,-3.9729,-3.9642,-3.9501,-3.9501,-3.9644,-3.9783,-3.9834,-3.9454,0.0,-4.0849,-4.0549,0.0,-4.0497,0.0,-4.0806,-4.0642,-4.0896,-4.1117,-4.0965,-4.1864,-4.2549,-4.2549,-4.3982,-4.5337,-4.6205,-4.6836,-4.7627,-4.862,-4.8746,-4.8834,-4.8909,-4.8909,-4.8978,-4.9179,-4.9179,-4.9358,-4.9663,-4.9692,-4.9759,-4.9898,-4.9898,-4.9898,-4.9898,-4.9898,-4.9898,-4.9898,-4.9898,-4.9741,-4.9446,-4.9446,-4.922,-4.8906,-4.9668,-4.9732,-4.9593,-5.1037,-5.1955,-5.2454,-5.248,-5.2498,-5.2498,0.0,0.0,0.0,0.0,0.0,0.0,0.0,0.0,0.0,0.0,0.0,0.0,0.0,0.0,0.0,0.0,0.0,0.0,0.0,0.0,0.0,0.0,0.0,-3.7948,-3.7791,-3.8016,-3.8016,-3.7756,-3.806,-3.8554,-3.9221,-3.9658,0.0,-4.0778,-4.0961,-4.1244,-4.1525,-4.1464,-4.1087,-4.0525,-4.0477,-4.0068,0.0,0.0,0.0,0.0,0.0,0.0,0.0,0.0,-4.0003,-3.9867,0.0,-3.9156,-3.9119,-3.8974,-3.892,-3.8936,-3.9272,-3.9644,-3.9885,-3.9834,-3.9594,0.0,0.0,-4.0802,-4.058,-4.0594,-4.0866,-4.1041,-4.0836,-4.0901,-4.1012,-4.0918,-4.1682,-4.2358,-4.2647,-4.4316,-4.5744,-4.6463,-4.748,-4.8309,-4.8768,-4.8839,-4.8909,-4.8909,-4.8909,-4.8978,-4.9179,-4.9276,-4.9434,-4.9692,-4.9759,-4.9843,-4.9898,-4.9898,-4.9898,-4.9898,-4.9898,-4.9797,-4.9596,-4.9596,-4.9377,-4.9038,-4.9038,-4.9094,-4.9214,-4.9509,-4.9991,-5.0696,-5.1806,-5.2327,-5.2498,-5.2498,-5.2498,-5.2498,0.0,0.0,0.0,0.0,0.0,0.0,0.0,0.0,0.0,0.0,0.0,0.0,0.0,0.0,0.0,0.0,0.0,0.0,0.0,0.0,0.0,0.0,0.0,-3.7658,-3.7273,-3.7754,-3.7869,-3.7562,-3.8373,-3.9041,-3.9561,0.0,0.0,0.0,-4.0822,-4.0814,-4.0607,-4.059,-4.0052,-3.9279,-3.9226,-3.8887,0.0,0.0,0.0,0.0,0.0,0.0,0.0,0.0,-3.9259,0.0,0.0,0.0,0.0,-3.8502,-3.8574,-3.8827,-3.9202,-3.9435,-3.9662,-3.9645,0.0,0.0,-4.0563,-4.0659,-4.0594,-4.0659,-4.0913,-4.1041,-4.0918,-4.0888,-4.0957,-4.1198,-4.1871,-4.2569,-4.3144,-4.4781,-4.6185,-4.6739,-4.7787,-4.8605,-4.8822,-4.8874,-4.8909,-4.8909,-4.8909,-4.9012,-4.9244,-4.9352,-4.9506,-4.9778,-4.9843,-4.9898,-4.9898,-4.9898,-4.9852,-4.9741,-4.9741,-4.9625,-4.9415,-4.927,-4.9005,-4.8677,-4.8899,-4.9065,-4.9299,-4.9793,-5.0641,-5.1719,-5.2281,-5.2498,-5.2498,-5.2498,-5.2498,-5.2498,0.0,0.0,0.0,0.0,0.0,0.0,0.0,0.0,0.0,0.0,0.0,0.0,0.0,0.0,0.0,0.0,0.0,0.0,0.0,0.0,0.0,0.0,0.0,-3.7812,-3.7422,-3.8136,-3.8426,-3.8298,-3.9355,-3.9709,-3.9409,-4.0144,0.0,0.0,-4.0468,-4.0154,-3.9594,-3.9437,-3.9049,-3.8463,-3.8334,-3.8278,-3.8278,0.0,0.0,0.0,0.0,0.0,0.0,0.0,-3.7822,0.0,0.0,0.0,0.0,-3.8334,-3.8772,-3.9272,-3.9272,-3.904,-3.8898,0.0,0.0,0.0,-4.0087,-3.9952,-3.9868,-4.071,-4.0888,-4.0888,-4.0888,-4.0888,-4.1129,-4.1871,-4.2664,-4.3491,-4.4233,-4.5562,-4.6671,-4.7132,-4.7838,-4.8458,-4.8874,-4.8909,-4.8909,-4.8909,-4.8909,-4.9061,-4.9365,-4.9415,-4.9566,-4.9898,-4.9898,-4.9898,-4.9898,-4.9898,-4.9741,-4.9396,-4.9384,-4.9384,-4.9384,-4.8971,-4.8623,-4.8361,-4.9095,-4.9241,-4.9057,-5.0651,-5.1774,-5.2498,-5.2498,-5.2498,-5.2498,-5.2498,-5.2498,-5.2498,0.0,0.0,0.0,0.0,0.0,0.0,0.0,0.0,0.0,0.0,0.0,0.0,0.0,0.0,0.0,0.0,0.0,0.0,0.0,0.0,0.0,0.0,0.0,0.0,0.0,0.0,-3.8849,-3.8952,-3.9166,-3.9518,0.0,0.0,0.0,-3.9575,0.0,0.0,-3.8668,-3.8668,-3.8222,-3.7531,-3.7472,-3.7131,-3.6723,0.0,0.0,0.0,0.0,0.0,0.0,0.0,0.0,0.0,0.0,0.0,0.0,-3.7648,-3.8124,-3.8717,-3.9148,-3.9731,-4.0103,-3.9749,0.0,0.0,0.0,-4.0286,0.0,0.0,-4.0888,-4.0888,-4.0888,-4.1302,-4.1733,-4.194,-4.3095,-4.4212,-4.4975,-4.6081,-4.715,-4.7879,-4.8364,-4.8697,-4.8874,-4.8909,-4.8978,-4.9113,-4.9113,-4.9244,-4.9585,-4.9615,-4.9702,-4.9879,-4.9898,-4.9797,-4.9566,-4.9566,-4.9346,-4.8971,-4.8748,-4.8623,-4.8605,-4.8495,-4.8561,-4.872,-4.8938,-4.964,-5.0669,-5.1701,-5.2281,-5.2498,-5.2498,-5.2498,-5.2498,-5.2498,-5.2498,-5.2498,0.0,0.0,0.0,0.0,0.0,0.0,0.0,0.0,0.0,0.0,0.0,0.0,0.0,0.0,0.0,0.0,0.0,0.0,0.0,0.0,0.0,0.0,0.0,0.0,0.0,-3.9158,-3.9261,0.0,0.0,0.0,0.0,0.0,0.0,-3.8723,0.0,-3.8035,-3.7764,-3.7764,-3.731,-3.6662,-3.6662,-3.6383,-3.6037,0.0,0.0,0.0,0.0,0.0,0.0,0.0,0.0,0.0,0.0,0.0,0.0,-3.7429,-3.801,-3.8827,-3.9435,-3.9969,0.0,-4.0334,-4.0689,-4.0972,-4.0832,-4.0693,-4.06,-4.0823,-4.0888,-4.0974,-4.1267,-4.1681,-4.2181,-4.2785,-4.3664,-4.4659,-4.5635,-4.6433,-4.7194,-4.8114,-4.8458,-4.8714,-4.8874,-4.8909,-4.8978,-4.9179,-4.9197,-4.9358,-4.9692,-4.9692,-4.9759,-4.9898,-4.9769,-4.9607,-4.9415,-4.922,-4.8971,-4.8586,-4.8402,-4.8229,-4.805,-4.805,-4.8384,-4.8949,-4.9582,-5.0597,-5.181,-5.2299,-5.2498,-5.2498,-5.2498,-5.2498,-5.2498,-5.2498,-5.2498,-5.2498,0.0,0.0,0.0,0.0,0.0,0.0,0.0,0.0,0.0,0.0,0.0,0.0,0.0,0.0,0.0,0.0,0.0,0.0,0.0,0.0,0.0,0.0,0.0,0.0,0.0,0.0,0.0,0.0,0.0,0.0,0.0,0.0,-3.8613,-3.7889,0.0,-3.744,-3.6845,-3.6845,-3.6492,-3.5973,-3.5973,-3.5973,-3.591,-3.5767,0.0,0.0,0.0,0.0,0.0,0.0,0.0,0.0,0.0,0.0,-3.7429,-3.7488,-3.8383,-3.9415,-3.9817,-3.9902,-4.0086,-4.0943,-4.11,-4.1082,-4.1192,-4.1093,-4.0957,-4.0888,-4.094,-4.1198,-4.1871,-4.2095,-4.2647,-4.4044,-4.4388,-4.4902,-4.6125,-4.6566,-4.7053,-4.7937,-4.8231,-4.8458,-4.8785,-4.882,-4.8925,-4.9127,-4.9179,-4.934,-4.9692,-4.9692,-4.9731,-4.9852,-4.9518,-4.9334,-4.9302,-4.8937,-4.8586,-4.8229,-4.8229,-4.805,-4.7717,-4.779,-4.8297,-4.9202,-5.0741,-5.181,-5.2498,-5.2498,-5.2498,-5.2498,-5.2498,-5.2498,-5.2498,-5.2498,-5.2498,-5.2498,0.0,0.0,0.0,0.0,0.0,0.0,0.0,0.0,0.0,0.0,0.0,0.0,0.0,0.0,0.0,0.0,0.0,0.0,0.0,0.0,0.0,0.0,0.0,0.0,0.0,0.0,0.0,0.0,0.0,0.0,0.0,0.0,0.0,-3.7115,0.0,-3.6305,-3.6211,-3.6211,-3.6022,-3.5752,-3.5752,-3.5718,-3.5619,-3.5554,-3.5554,0.0,0.0,0.0,0.0,0.0,0.0,0.0,-3.6085,-3.6784,-3.7488,-3.7937,-3.8662,-3.9325,-3.9415,-4.0037,0.0,-4.0849,-4.1192,-4.1408,-4.1255,-4.1492,-4.1578,-4.1009,-4.1336,-4.1802,-4.1957,-4.2975,-4.3889,-4.4234,-4.4957,-4.5645,-4.6151,-4.6678,-4.7151,-4.7578,-4.7893,-4.8093,-4.819,-4.8172,-4.8421,-4.8934,-4.8949,-4.9246,-4.9843,-4.9596,-4.9476,-4.9506,-4.9137,-4.88,-4.855,-4.8439,-4.821,-4.7824,-4.7824,-4.7783,-4.7735,-4.8369,-4.9438,-5.0832,-5.181,-5.2335,-5.2498,-5.2498,-5.2498,-5.2498,-5.2498,-5.2498,-5.2498,-5.2498,-5.2498,-5.2498,0.0,0.0,0.0,0.0,0.0,0.0,0.0,0.0,0.0,0.0,0.0,0.0,0.0,0.0,0.0,0.0,0.0,0.0,0.0,0.0,0.0,0.0,0.0,0.0,0.0,0.0,0.0,0.0,0.0,0.0,0.0,0.0,0.0,-3.629,0.0,-3.5846,-3.5748,-3.5748,-3.5668,-3.5589,-3.5589,-3.5554,-3.5504,-3.5504,-3.5504,-3.5504,-3.5504,0.0,0.0,0.0,0.0,0.0,0.0,0.0,-3.6951,-3.7472,-3.8124,-3.8827,-3.9365,0.0,0.0,-4.1401,-4.1939,-4.2282,-4.2131,-4.2527,-4.2775,-4.2439,-4.2445,-4.2664,-4.3026,-4.3885,-4.4593,-4.4939,-4.5593,-4.6137,-4.6554,-4.6926,-4.724,-4.7705,-4.7911,-4.7992,-4.7992,-4.821,-4.8495,-4.8863,-4.9132,-4.9389,-4.9655,-4.9488,-4.9302,-4.9123,-4.8765,-4.8458,-4.8306,-4.813,-4.7888,-4.7717,-4.7717,-4.8098,-4.8858,-4.9275,-5.0144,-5.1339,-5.2136,-5.2498,-5.2498,-5.2498,-5.2498,-5.2498,-5.2498,-5.2498,-5.2498,-5.2498,-5.2498,-5.2498,0.0,0.0,0.0,0.0,0.0,0.0,0.0,0.0,0.0,0.0,0.0,0.0,0.0,0.0,0.0,0.0,0.0,0.0,0.0,0.0,0.0,0.0,0.0,0.0,0.0,0.0,0.0,0.0,0.0,0.0,0.0,0.0,0.0,-3.5638,0.0,-3.5589,-3.5504,-3.5504,-3.5504,-3.5504,-3.5359,-3.5359,-3.5504,-3.5294,-3.5359,-3.5439,-3.5439,-3.5439,-3.5439,-3.5439,0.0,0.0,0.0,0.0,-3.6445,-3.7152,-3.7897,-3.873,-3.9771,0.0,-4.1418,-4.2452,-4.2992,-4.3315,-4.3315,-4.3701,-4.4109,-4.4109,-4.3812,-4.3694,-4.4317,-4.4727,-4.5155,-4.5783,-4.6087,-4.6411,-4.6926,-4.7062,-4.7258,-4.7788,-4.7829,-4.7829,-4.7829,-4.8251,-4.8621,-4.8829,-4.9265,-4.9476,-4.9415,-4.927,-4.9057,-4.8711,-4.8402,-4.819,-4.819,-4.7866,-4.7717,-4.7717,-4.7844,-4.8677,-5.009,-5.0234,-5.0741,-5.1538,-5.2208,-5.2498,-5.2498,-5.2498,-5.2498,-5.2498,-5.2498,-5.2498,-5.2498,-5.2498,-5.2498,-5.2498,0.0,0.0,0.0,0.0,0.0,0.0,0.0,0.0,0.0,0.0,0.0,0.0,0.0,0.0,0.0,0.0,0.0,0.0,-3.7562,0.0,0.0,-3.6707,-3.6707,-3.6646,0.0,0.0,0.0,0.0,0.0,0.0,0.0,0.0,0.0,-3.5504,0.0,0.0,-3.5504,-3.5504,-3.5504,-3.5439,-3.4758,-3.4905,-3.5439,-3.4572,-3.4654,-3.5213,-3.5001,-3.5082,-3.5213,-3.5001,-3.5082,0.0,0.0,0.0,-3.7241,-3.8691,-3.9536,-4.0238,-4.1,0.0,-4.2961,0.0,-4.4218,-4.4112,-4.4112,-4.453,-4.4952,-4.4952,-4.4904,-4.4892,-4.4997,-4.554,-4.6014,-4.6119,-4.6381,-4.6572,-4.6684,-4.6888,-4.7025,-4.7116,-4.7116,-4.7116,-4.7116,-4.7548,-4.8023,-4.8531,-4.8655,-4.8934,-4.9384,-4.8783,-4.8402,-4.8364,-4.801,-4.7783,-4.7783,-4.7741,-4.7717,-4.7717,-4.8424,-4.922,-5.0108,-5.0814,-5.1574,-5.2353,-5.2444,-5.2498,-5.2498,-5.2498,-5.2498,-5.2498,-5.2498,-5.2498,-5.2498,-5.2358,-5.2405,-5.2452,0.0,0.0,0.0,0.0,0.0,0.0,0.0,0.0,0.0,0.0,0.0,0.0,0.0,0.0,0.0,-3.7455,-3.7121,-3.6951,-3.6951,-3.689,-3.6723,-3.643,-3.643,-3.6258,-3.591,0.0,0.0,0.0,0.0,0.0,0.0,-3.5504,-3.5504,0.0,0.0,0.0,0.0,-3.5052,-3.5067,-3.5424,-3.4558,-3.4706,-3.5439,-3.4787,-3.4787,-3.5148,-3.5001,-3.4935,-3.5001,-3.4935,-3.4935,-3.5067,-3.5264,0.0,0.0,0.0,-3.9122,-4.0277,-4.1405,-4.236,-4.3175,-4.3944,-4.468,-4.5152,-4.5152,-4.5666,-4.6187,-4.6187,-4.6187,-4.6076,-4.5791,-4.6103,-4.6429,-4.6429,-4.6637,-4.6842,-4.6842,-4.6934,-4.6998,-4.6998,-4.6998,-4.7043,-4.7088,-4.7524,-4.7941,-4.8271,-4.8549,-4.8728,-4.8783,-4.8476,-4.819,-4.797,-4.7783,-4.7717,-4.7717,-4.7717,-4.7717,-4.7717,-4.8532,-4.9329,-5.0108,-5.0923,-5.1737,-5.2498,-5.2498,-5.2498,-5.2498,-5.2498,-5.2498,-5.2498,-5.2498,-5.2498,-5.2498,-5.2452,-5.2405,-5.2358,0.0,0.0,0.0,0.0,0.0,0.0,0.0,0.0,0.0,0.0,0.0,0.0,0.0,0.0,0.0,0.0,-3.6554,-3.6196,-3.6196,-3.6196,-3.6196,-3.6196,-3.6196,-3.5958,-3.5504,0.0,0.0,0.0,0.0,0.0,-3.5504,-3.5504,-3.5504,0.0,-3.5504,0.0,0.0,0.0,0.0,0.0,-3.4491,-3.4639,-3.5359,-3.4854,-3.4802,-3.5016,-3.4868,-3.4802,-3.4868,-3.4802,-3.4905,-3.5037,-3.4999,-3.5985,0.0,0.0,0.0,-4.0966,-4.23,0.0,-4.3562,-4.424,-4.517,-4.5952,-4.606,-4.6569,-4.6998,-4.6998,-4.6998,-4.6888,-4.6495,-4.659,-4.6684,-4.6684,-4.6888,-4.6998,-4.6998,-4.6998,-4.6998,-4.6998,-4.6998,-4.7043,-4.7133,-4.7609,-4.7959,-4.8056,-4.8421,-4.855,-4.8306,-4.819,-4.801,-4.7699,-4.7717,-4.7717,-4.7717,-4.7717,-4.7717,-4.7717,-4.8731,-4.9528,-5.0108,-5.114,-5.1919,-5.2498,-5.2498,-5.2498,-5.2498,-5.2498,-5.2498,-5.2498,-5.2498,-5.2498,-5.2452,-5.2387,-5.2358,-5.2264,0.0,0.0,0.0,0.0,0.0,0.0,0.0,0.0,0.0,0.0,0.0,0.0,-3.7424,-3.6814,-3.6492,-3.643,-3.591,-3.5569,-3.5569,-3.5569,-3.5569,-3.5569,-3.5569,0.0,-3.5504,-3.5504,0.0,0.0,0.0,0.0,-3.5504,-3.5504,-3.5504,-3.5504,-3.5504,-3.5504,-3.5504,0.0,0.0,0.0,0.0,-3.4691,-3.5148,-3.4221,-3.4235,-3.4698,-3.4481,-3.4563,-3.4698,-3.4481,-3.4928,-3.5546,-3.5561,-3.6895,-3.8707,0.0,0.0,0.0,-4.4215,-4.4384,-4.4698,-4.5798,-4.6147,-4.6328,-4.6835,-4.6962,-4.6998,-4.6998,-4.6998,-4.6998,-4.6934,-4.698,-4.698,-4.698,-4.6998,-4.6998,-4.6998,-4.6998,-4.6998,-4.6998,-4.6998,-4.698,-4.6998,-4.7567,-4.7901,-4.7901,-4.8153,-4.8306,-4.8306,-4.7929,-4.7699,-4.7717,-4.7717,-4.7717,-4.7717,-4.7717,-4.7717,-4.7735,-4.9293,-5.0053,-5.0144,-5.1719,-5.2462,-5.2498,-5.2498,-5.2498,-5.2498,-5.2498,-5.2498,-5.2498,-5.2498,-5.2405,-5.2311,-5.215,-5.2102,-5.2084,0.0,0.0,0.0,0.0,0.0,0.0,0.0,0.0,0.0,0.0,0.0,0.0,0.0,-3.6196,-3.5846,-3.5846,-3.5619,-3.5504,-3.5504,-3.5504,-3.5504,-3.5504,-3.5504,-3.5504,-3.5504,-3.5504,0.0,0.0,0.0,-3.5504,-3.5504,-3.5504,-3.5504,-3.5504,-3.5359,-3.5294,-3.5294,-3.4654,0.0,0.0,0.0,-3.4016,-3.4288,-3.4235,-3.4399,-3.4698,-3.4481,-3.4481,-3.4554,-3.4947,-3.5238,-3.5554,-3.5907,-3.7518,-3.9517,-4.1215,-4.2407,-4.319,-4.3519,-4.3972,-4.4524,-4.5425,-4.5903,-4.6332,-4.6888,-4.6998,-4.6998,-4.6998,-4.6998,-4.6998,-4.6998,-4.6998,-4.6998,-4.6998,-4.6998,-4.6998,-4.6998,-4.6998,-4.6998,-4.6998,-4.6998,-4.7043,-4.7133,-4.732,-4.7518,-4.7627,-4.7728,-4.7829,-4.7888,-4.7783,-4.7717,-4.7717,-4.7717,-4.7717,-4.7717,-4.7717,-4.7717,-4.7735,-4.9329,-5.009,-5.0144,-5.1756,-5.2498,-5.2498,-5.2498,-5.2498,-5.2498,-5.2498,-5.2498,-5.2498,-5.2405,-5.2358,-5.2264,-5.215,-5.2054,-5.1956,0.0,0.0,0.0,0.0,0.0,0.0,0.0,0.0,0.0,-3.7764,0.0,0.0,0.0,0.0,-3.5359,-3.5294,-3.5294,-3.5294,-3.5294,-3.5294,-3.5359,-3.5424,-3.5359,-3.5359,-3.5504,-3.5439,0.0,0.0,0.0,0.0,0.0,-3.5504,-3.5439,-3.5359,-3.5001,-3.5001,0.0,0.0,0.0,-3.4153,-3.3865,-3.3879,-3.4167,-3.4467,-3.4549,-3.4563,-3.4481,-3.4534,-3.4823,-3.5536,-3.6079,-3.6633,-3.7218,-3.8675,-4.0582,-4.2267,-4.2883,-4.3084,-4.3235,-4.3638,-4.4186,-4.4838,-4.5477,-4.607,-4.6572,-4.6888,-4.6998,-4.6998,-4.6998,-4.6998,-4.6998,-4.6998,-4.6998,-4.6998,-4.6998,-4.6998,-4.6998,-4.6998,-4.6998,-4.6998,-4.6998,-4.7043,-4.7133,-4.7178,-4.7294,-4.7407,-4.7511,-4.7615,-4.7717,-4.7717,-4.7717,-4.7717,-4.7717,-4.7717,-4.7717,-4.7717,-4.7717,-4.7735,-4.9329,-5.009,-5.0144,-5.1756,-5.2498,-5.2498,-5.2498,-5.2498,-5.2498,-5.2498,-5.2498,-5.2498,-5.2358,-5.2264,-5.2216,-5.2102,-5.1956,-5.1858,0.0,0.0,0.0,0.0,0.0,0.0,0.0,0.0,-3.7131,-3.6492,0.0,0.0,0.0,0.0,0.0,-3.4854,-3.4854,-3.4868,-3.4854,-3.4868,-3.4935,-3.5148,-3.5001,-3.5082,-3.5504,-3.5294,-3.5294,0.0,0.0,0.0,0.0,0.0,-3.5424,-3.5148,-3.4438,-3.4505,-3.5082,0.0,-3.4259,-3.4721,-3.4177,-3.4206,-3.4631,-3.4802,-3.4668,-3.4414,-3.4414,-3.4854,-3.5519,-3.6259,-3.7501,-3.8815,-3.9365,-4.0579,-4.1997,-4.2851,-4.3235,-4.3432,0.0,0.0,0.0,-4.4333,-4.491,-4.5425,-4.607,-4.659,-4.698,-4.6998,-4.6998,-4.6998,-4.6998,-4.6998,-4.6998,-4.6998,-4.6998,-4.6998,-4.6998,-4.6998,-4.6998,-4.6998,-4.6998,-4.6998,-4.6998,-4.7187,-4.732,-4.7302,-4.7554,-4.7717,-4.7717,-4.7717,-4.7717,-4.7717,-4.7717,-4.7717,-4.7717,-4.7717,-4.7717,-4.7735,-4.9329,-5.009,-5.0144,-5.1756,-5.2498,-5.2498,-5.2498,-5.2498,-5.2498,-5.2498,-5.2498,-5.2498,-5.2358,-5.2216,-5.2102,-5.1956,-5.1808,-5.169,0.0,0.0,0.0,0.0,0.0,0.0,-3.7822,-3.7531,-3.7131,0.0,0.0,0.0,-3.5569,-3.5294,-3.4639,-3.3325,-3.3768,-3.3919,-3.3463,-3.3851,-3.4206,-3.4543,-3.492,-3.5228,-3.5504,-3.5439,-3.5439,0.0,0.0,0.0,0.0,0.0,0.0,0.0,-3.5067,-3.4639,-3.4153,-3.3241,-3.2591,-3.229,-3.3073,-3.3199,-3.3059,-3.4167,-3.4549,-3.4631,-3.4631,-3.5348,-3.6456,-3.7237,-3.8356,-3.9579,-4.061,-4.1236,-4.1738,-4.2476,-4.2883,-4.3084,-4.3174,0.0,0.0,0.0,0.0,0.0,-4.597,-4.6332,-4.6542,-4.6934,-4.6998,-4.6998,-4.6998,-4.6998,-4.6998,-4.6998,-4.6998,-4.6998,-4.6998,-4.6998,-4.6998,-4.6998,-4.6998,-4.6998,-4.6998,-4.7133,-4.7249,-4.732,-4.7468,-4.7615,-4.7699,-4.7717,-4.7717,-4.7717,-4.7717,-4.7717,-4.7717,-4.7717,-4.7717,-4.7735,-4.9329,-5.009,-5.0144,-5.1756,-5.2498,-5.2498,-5.2405,-5.2358,-5.2358,-5.2358,-5.2311,-5.2198,-5.2054,-5.2005,-5.1956,-5.179,-5.174,-5.169,0.0,0.0,0.0,0.0,0.0,-3.7822,-3.7071,-3.6951,-3.6723,0.0,0.0,0.0,-3.4787,-3.4274,-3.3561,-3.2478,-3.2847,-3.2918,-3.2621,-3.2932,-3.3367,-3.363,-3.3948,-3.4303,-3.4505,-3.4787,-3.492,0.0,0.0,0.0,0.0,0.0,0.0,0.0,0.0,0.0,0.0,0.0,-3.2028,-3.2074,-3.2706,-3.3059,-3.3283,-3.4235,-3.4616,-3.4593,-3.4855,-3.5703,-3.6788,-3.8111,-3.9594,-4.1053,-4.1805,-4.2013,-4.2077,-4.2664,-4.2883,-4.3007,-4.3235,-4.3372,-4.3611,-4.4006,0.0,0.0,-4.5649,-4.602,-4.6332,-4.6888,-4.6998,-4.6998,-4.6998,-4.6998,-4.6998,-4.6998,-4.6998,-4.6998,-4.6998,-4.6998,-4.6998,-4.6998,-4.6998,-4.6998,-4.6998,-4.7178,-4.7249,-4.732,-4.7468,-4.7615,-4.7717,-4.7717,-4.7717,-4.7717,-4.7717,-4.7717,-4.7717,-4.7717,-4.7717,-4.7735,-4.9329,-5.009,-5.0144,-5.1756,-5.2369,-5.2114,-5.2246,-5.215,-5.1871,-5.2054,-5.2102,-5.2102,-5.1956,-5.1907,-5.1858,-5.174,-5.1521,-5.1367,0.0,0.0,-3.7531,-3.731,-3.731,-3.7071,-3.643,-3.6305,-3.6006,0.0,-3.5082,-3.4639,-3.3506,-3.2763,-3.2191,-3.1856,-3.1928,-3.1928,-3.1869,-3.2101,-3.2331,-3.2618,-3.269,-3.2903,-3.3283,-3.3796,-3.4124,0.0,0.0,0.0,0.0,0.0,0.0,0.0,0.0,0.0,0.0,0.0,-3.2304,-3.3213,-3.2763,-3.3283,-3.4399,-3.4735,-3.4794,-3.4656,-3.5346,-3.6103,-3.7141,-3.9241,-4.1149,-4.268,-4.2837,-4.2775,-4.2696,-4.299,-4.3113,-4.3174,-4.3509,-4.3568,-4.3628,-4.3628,-4.4006,0.0,-4.5144,-4.5683,-4.6284,-4.6888,-4.6998,-4.6998,-4.6998,-4.6998,-4.6998,-4.6998,-4.6998,-4.6998,-4.6998,-4.6998,-4.6998,-4.6998,-4.6998,-4.6998,-4.7043,-4.7187,-4.732,-4.7302,-4.7572,-4.7717,-4.7717,-4.7717,-4.7717,-4.7717,-4.7717,-4.7717,-4.7717,-4.7717,-4.7717,-4.7735,-4.9329,-5.009,-5.0144,-5.171,-5.2114,-5.1601,-5.2018,-5.1822,-5.121,-5.1622,-5.1907,-5.2036,-5.1907,-5.1858,-5.1858,-5.169,-5.1297,-5.0982,-3.7764,0.0,-3.7251,-3.6662,-3.6616,-3.6383,-3.5797,-3.5683,-3.5554,-3.5213,-3.4572,-3.3713,-3.2621,-3.2393,-3.1756,-3.0368,-3.0771,-3.0983,-3.0508,-3.0921,-3.1429,-3.1942,-3.2475,-3.3101,-3.4041,-3.363,-3.3699,-3.4312,0.0,0.0,0.0,0.0,0.0,0.0,0.0,0.0,0.0,-3.2889,-3.296,-3.3575,-3.2692,-3.2975,-3.4016,-3.4654,-3.5259,-3.5933,-3.6577,-3.8012,-3.9861,-4.1943,-4.2798,-4.299,-4.2899,-4.2899,-4.2837,-4.2899,-4.3129,-4.3372,-4.3432,-4.3509,-4.3628,-4.3628,-4.3671,0.0,-4.5037,-4.5407,-4.5784,-4.6778,-4.6998,-4.6998,-4.6998,-4.6998,-4.6998,-4.6998,-4.6998,-4.6998,-4.6998,-4.6998,-4.6998,-4.6998,-4.6998,-4.7043,-4.7133,-4.7249,-4.7345,-4.745,-4.7615,-4.7717,-4.7717,-4.7717,-4.7717,-4.7717,-4.7717,-4.7717,-4.7717,-4.7717,-4.7717,-4.7735,-4.9329,-5.009,-5.0144,-5.1263,-5.1633,-5.1378,-5.1398,-5.1262,-5.1052,-5.1017,-5.1315,-5.179,-5.174,-5.174,-5.169,-5.114,-5.1193,-5.147,-3.6951,-3.6677,-3.6383,-3.6037,-3.5973,-3.5861,-3.5569,-3.5504,-3.5294,-3.4572,-3.3269,-3.2191,-3.1683,-3.1267,-3.0709,-2.9856,-3.0139,-3.0279,-3.0075,-3.0419,-3.0859,-3.1246,-3.1616,-3.2114,-3.2648,-3.2648,-3.3003,-3.3768,0.0,0.0,0.0,0.0,0.0,0.0,0.0,0.0,0.0,-3.3422,-3.3536,-3.379,-3.3312,-3.3616,-3.4399,-3.514,-3.5613,-3.6117,-3.7428,-3.928,-4.1278,-4.2361,-4.2834,-4.3007,-4.3007,-4.2945,-4.2899,-4.3084,-4.3267,-4.3432,-4.3509,-4.3568,-4.3628,-4.3628,-4.3628,0.0,0.0,-4.5303,-4.5614,-4.6778,-4.6998,-4.6998,-4.6998,-4.6998,-4.6998,-4.6998,-4.6998,-4.6998,-4.6998,-4.6998,-4.6998,-4.6998,-4.6998,-4.7043,-4.7088,-4.716,-4.7338,-4.7511,-4.7615,-4.7717,-4.7717,-4.7717,-4.7717,-4.7717,-4.7717,-4.7717,-4.7717,-4.7717,-4.7717,-4.7735,-4.9329,-5.009,-5.0144,-5.1017,-5.1396,-5.1294,-5.0822,-5.057,-5.055,-5.0366,-5.0659,-5.1245,-5.0875,-5.0946,-5.1193,-5.0928,-5.0785,-5.075,-3.6258,0.0,-3.5504,-3.5504,-3.5504,-3.5504,-3.5504,-3.5359,-3.4854,-3.3728,-3.206,-3.097,-3.097,-3.0355,-2.9934,-2.9934,-2.9934,-3.0011,-3.0152,-3.0292,-3.052,-3.0698,-3.0836,-3.1061,-3.1185,-3.1676,-3.2232,-3.3003,0.0,0.0,0.0,0.0,0.0,0.0,0.0,0.0,0.0,-3.3973,-3.4194,-3.4384,-3.443,-3.4806,-3.5377,-3.5893,-3.609,-3.6325,-3.8424,-4.0528,-4.2332,-4.2269,-4.2585,-4.2945,-4.3068,-4.3007,-4.3023,-4.3251,-4.3372,-4.3432,-4.3568,-4.3628,-4.3628,-4.3628,-4.3628,-4.3889,0.0,0.0,0.0,-4.6619,-4.6934,-4.6998,-4.6998,-4.6998,-4.6998,-4.6998,-4.6998,-4.6998,-4.6998,-4.6998,-4.6998,-4.6998,-4.6998,-4.6998,-4.7043,-4.7178,-4.7312,-4.7511,-4.7615,-4.7717,-4.7717,-4.7717,-4.7717,-4.7717,-4.7717,-4.7717,-4.7717,-4.7717,-4.7717,-4.7735,-4.9329,-5.0027,-4.9929,-5.0784,-5.1069,-5.0929,-5.0185,-4.9861,-4.9855,-4.9705,-5.0011,-5.055,-4.9993,-5.0181,-5.0803,-5.0694,-5.0366,-5.005,-3.5619,-3.5569,0.0,-3.5504,-3.5504,-3.5504,-3.5504,-3.4905,-3.4056,-3.2974,-3.1882,-3.1145,-3.1145,-3.0646,-3.0292,-3.0292,-3.0292,-3.0368,-3.0368,-3.0368,-3.052,-3.0698,-3.0698,-3.111,-3.1942,-3.1394,-3.1468,-3.2218,-3.2861,-3.2932,0.0,0.0,0.0,0.0,-3.4461,0.0,0.0,-3.4543,-3.499,-3.6193,-3.6186,-3.6378,-3.6689,-3.6887,-3.7327,-3.8117,-4.0386,-4.2173,-4.3432,-4.3295,-4.3174,-4.3052,-4.2961,-4.3007,-4.3096,-4.3113,-4.3355,-4.3568,-4.3628,-4.3628,-4.3628,-4.3628,-4.3628,-4.3789,-4.4446,0.0,-4.5477,-4.6168,0.0,-4.6998,-4.6998,0.0,0.0,-4.6998,-4.6998,-4.6998,-4.6998,-4.6998,-4.6998,-4.6998,-4.6998,-4.7043,-4.7196,-4.7356,-4.7468,-4.7511,-4.7615,-4.7717,-4.7717,-4.7717,-4.7717,-4.7717,-4.7717,-4.7717,-4.7717,-4.7717,-4.7717,-4.7735,-4.9329,-4.9766,-4.9137,-5.0119,-5.0146,-4.9334,-4.9325,-4.9205,-4.9006,-4.9006,-4.9351,-4.9936,-4.9804,-5.0181,-5.0749,-5.0124,-5.0237,-5.0622,-3.5504,-3.5504,0.0,-3.5504,-3.5504,-3.5344,-3.4905,-3.3616,-3.2492,-3.1928,-3.1009,-3.0368,-3.0368,-3.0292,-3.0228,-3.0228,-3.0292,-3.0444,-3.0533,-3.0609,-3.0685,-3.0836,-3.0836,-3.1048,-3.1468,-3.1123,-3.1334,-3.2074,-3.1955,-3.2448,0.0,0.0,0.0,0.0,-3.4986,-3.4905,-3.4854,-3.5385,-3.5917,-3.6413,-3.7159,-3.7723,-3.8115,-3.7801,-3.8572,-4.01,-4.148,-4.2648,-4.3568,-4.3568,-4.3312,-4.3113,-4.3251,-4.319,-4.3113,-4.3355,-4.3492,-4.3628,-4.3628,-4.3848,-4.4064,-4.3671,-4.4105,-4.4618,-4.4892,-4.5425,-4.5953,-4.6542,0.0,0.0,0.0,0.0,0.0,0.0,-4.6998,-4.6998,-4.6998,-4.6998,-4.6998,-4.6998,-4.6998,-4.7043,-4.7088,-4.7249,-4.7363,-4.7363,-4.7572,-4.7717,-4.7717,-4.7717,-4.7717,-4.7717,-4.7717,-4.7717,-4.7717,-4.7407,-4.7407,-4.7735,-4.859,-4.8986,-4.9039,-4.949,-4.9688,-4.9612,-4.8855,-4.8623,-4.8883,-4.8497,-4.8731,-4.9231,-4.89,-4.9385,-5.0124,-4.9529,-4.9646,-5.0124,-3.5504,0.0,0.0,-3.5504,-3.5294,-3.4839,-3.3822,-3.242,-3.1368,-3.1057,-3.0355,-2.9869,-2.9869,-2.9935,-2.9999,-2.9999,-3.0213,-3.0364,-3.054,-3.0683,-3.0849,-3.0986,-3.0986,-3.0986,-3.0986,-3.0986,-3.1259,-3.1809,-3.1468,-3.2087,0.0,0.0,0.0,0.0,-3.5424,-3.5302,-3.497,-3.6053,-3.6669,-3.6919,-3.7846,-3.8725,-3.9391,-3.8856,-3.9879,-4.1625,-4.2173,-4.2912,-4.3568,-4.3568,-4.3372,-4.3235,-4.3432,-4.3312,-4.3235,-4.3654,-4.3772,-4.3906,-4.4047,-4.4373,-4.4597,-4.4162,-4.4674,-4.5303,-4.5303,-4.5751,-4.6284,-4.6684,-4.6888,0.0,0.0,0.0,-4.6998,-4.6998,0.0,-4.6998,-4.6998,-4.6998,-4.6998,-4.6998,-4.6998,-4.6998,-4.6998,-4.7187,-4.7302,-4.7302,-4.7554,-4.7717,-4.7717,-4.7717,-4.7717,-4.7717,-4.7717,-4.7615,-4.7468,-4.7196,-4.7107,-4.7276,-4.8028,-4.8398,-4.8502,-4.8925,-4.9214,-4.9376,-4.845,-4.8227,-4.8606,-4.8163,-4.8275,-4.8606,-4.8163,-4.8623,-4.9529,-4.905,-4.9171,-4.9512,-3.5504,-3.5504,0.0,-3.5504,-3.4839,-3.3822,-3.2349,-3.1796,-3.122,-3.0508,-3.0228,-3.0075,-3.0075,-2.9956,-2.9844,-2.9844,-3.0004,-3.009,-3.009,-3.0686,-3.0986,-3.0986,-3.0986,-3.0986,-3.0986,-3.0986,-3.0986,-3.1061,-3.175,-3.2074,0.0,0.0,0.0,0.0,-3.5133,-3.5863,-3.6447,-3.6477,-3.721,-3.8362,-3.8377,-3.9188,-4.0409,-4.0185,-4.1111,-4.2585,-4.2585,-4.3035,-4.3568,-4.3432,-4.3372,-4.3372,-4.3174,-4.3235,-4.3476,-4.4013,-4.4316,-4.4597,-4.5091,-4.525,-4.525,-4.525,-4.525,-4.5303,-4.5303,-4.5751,-4.6186,-4.6235,-4.6637,-4.6998,-4.6998,-4.6998,-4.6998,-4.6998,-4.6998,0.0,0.0,-4.6998,-4.6998,-4.6998,-4.6998,-4.6998,-4.6998,-4.7187,-4.7302,-4.7302,-4.7554,-4.7717,-4.7717,-4.7717,-4.7717,-4.7717,-4.7717,-4.745,-4.6908,-4.7302,-4.7044,-4.6165,-4.7929,-4.819,-4.7182,-4.849,-4.8714,-4.8049,-4.8001,-4.8001,-4.8001,-4.8001,-4.8001,-4.8001,-4.8001,-4.8386,-4.8944,-4.8883,-4.8883,-4.8944,0.0,0.0,0.0,0.0,-3.4461,-3.3685,-3.2001,-3.132,-3.0605,-2.9693,-2.9655,-2.9527,-2.9132,-2.9233,-2.943,-2.9779,-2.9978,-3.0294,-3.0673,-3.0882,-3.0986,-3.0986,-3.0986,-3.0986,-3.0986,-3.0986,-3.0986,-3.0986,-3.1259,-3.1882,0.0,0.0,0.0,0.0,-3.5806,-3.6282,-3.6552,-3.7389,-3.8003,-3.8422,-3.8886,-3.9612,-4.0547,-4.094,-4.1722,-4.2648,-4.3113,-4.3432,-4.3568,-4.3568,-4.3492,-4.3372,-4.3432,-4.3432,-4.3552,-4.4202,-4.4446,-4.4614,-4.5144,-4.558,-4.5802,-4.5407,-4.5885,-4.6315,-4.597,-4.6332,-4.6731,-4.6731,-4.6888,-4.6998,-4.6998,-4.6998,-4.6998,-4.6998,-4.6998,-4.6998,0.0,-4.6998,-4.6998,-4.6998,-4.6998,-4.7043,-4.7133,-4.7232,-4.7363,-4.7425,-4.7615,-4.7717,-4.7717,-4.7717,-4.7717,-4.7717,-4.7363,-4.7258,-4.7407,-4.6406,-4.6362,-4.725,-4.7044,-4.7197,-4.7665,-4.8169,-4.8227,-4.8001,-4.8001,-4.8001,-4.8001,-4.8001,-4.8001,-4.8001,-4.8001,-4.8115,-4.8275,-4.8275,-4.856,-4.8821,-3.5133,-3.4677,-3.4312,-3.4312,-3.3891,-3.2989,-3.1529,-3.079,-3.017,-2.9487,-2.9269,-2.9001,-2.8618,-2.8833,-2.9158,-2.9494,-2.9861,-3.0294,-3.066,-3.0869,-3.1123,-3.1408,-3.1123,-3.1272,-3.175,-3.1272,-3.1272,-3.175,-3.1542,-3.216,0.0,0.0,0.0,0.0,-3.6297,-3.6731,-3.721,-3.8048,-3.8527,-3.8796,-3.9245,-4.0021,-4.0873,-4.1327,-4.1997,-4.271,-4.3372,-4.3628,-4.3628,-4.3628,-4.3568,-4.3509,-4.3568,-4.3568,-4.3611,-4.4276,-4.4652,-4.491,-4.5477,-4.6052,-4.6381,-4.5985,-4.6459,-4.6888,-4.659,-4.6731,-4.6998,-4.6998,-4.6998,-4.6998,-4.6998,-4.6998,-4.6998,-4.6998,-4.6998,-4.6998,0.0,-4.6998,-4.6998,-4.6998,-4.6998,-4.7043,-4.7196,-4.7249,-4.7363,-4.7511,-4.7615,-4.7717,-4.7717,-4.7717,-4.7615,-4.7407,-4.7214,-4.6999,-4.6753,-4.618,-4.6222,-4.6865,-4.6699,-4.6982,-4.7619,-4.7878,-4.8001,-4.8001,-4.8001,-4.8001,-4.8001,-4.8001,-4.8001,-4.8001,-4.8001,-4.8001,-4.8001,-4.8001,-4.8227,-4.8497,-3.4461,-3.423,-3.4177,-3.4163,-3.2989,-3.1809,-3.1123,-3.0329,-2.9805,-2.9779,-2.907,-2.8638,-2.8613,-2.8821,-2.9028,-2.9041,-2.9678,-3.015,-3.0176,-3.0686,-3.1334,-3.2015,-3.1394,-3.1676,-3.3157,-3.175,-3.175,-3.3143,-3.2434,-3.2861,0.0,0.0,0.0,0.0,-3.6567,-3.7255,-3.8392,-3.8422,-3.8826,-3.9424,-3.9424,-4.0285,-4.1459,-4.1525,-4.1981,-4.271,-4.3372,-4.3628,-4.3628,-4.3628,-4.3628,-4.3628,-4.3628,-4.3628,-4.373,-4.4333,-4.491,-4.5425,-4.607,-4.659,-4.6998,-4.6998,-4.6998,-4.6998,-4.6998,-4.6998,-4.6998,-4.6998,-4.6998,-4.6998,-4.6998,-4.6998,-4.6998,-4.6998,-4.6998,-4.6998,-4.6998,-4.6998,-4.6998,-4.6998,-4.6998,-4.7043,-4.7196,-4.7249,-4.7363,-4.7511,-4.7615,-4.7675,-4.7657,-4.7657,-4.7407,-4.6908,-4.7214,-4.666,-4.5197,-4.6567,-4.6619,-4.5286,-4.6885,-4.7452,-4.7132,-4.7734,-4.8001,-4.8001,-4.8001,-4.8001,-4.8001,-4.8001,-4.8001,-4.8001,-4.8001,-4.8001,-4.8001,-4.8001,-4.8001,-4.8001,-3.4312,-3.3408,-3.2506,-3.1955,-3.1542,-3.1198,-3.0849,-3.0355,-2.9835,-2.9274,-2.9152,-2.895,-2.8508,-2.893,-2.9386,-2.9816,-2.9973,-3.032,-3.0738,-3.0895,-3.1048,-3.1259,-3.1603,-3.2015,-3.2362,-3.2015,-3.2015,-3.2362,-3.2218,-3.2798,-3.4243,0.0,0.0,0.0,-3.7689,-3.8078,-3.8422,-3.8931,-3.926,-3.9409,-4.0021,-4.0409,-4.0873,-4.1933,-4.2443,-4.271,-4.3372,-4.3628,-4.3628,-4.3628,-4.3628,-4.3628,-4.3628,-4.3628,-4.3789,-4.4783,-4.5214,-4.5511,-4.6525,-4.6888,-4.6998,-4.6998,-4.6998,-4.6998,-4.6998,-4.6998,-4.6998,-4.6998,-4.6998,-4.6998,-4.6998,-4.6998,-4.6998,-4.6998,-4.6998,-4.6998,-4.6998,-4.6998,-4.6998,-4.6998,-4.7088,-4.7133,-4.7196,-4.7249,-4.7363,-4.7511,-4.7615,-4.7468,-4.6999,-4.6954,-4.6863,-4.6613,-4.59,-4.5749,-4.6165,-4.572,-4.5855,-4.6397,-4.6893,-4.7348,-4.7784,-4.7918,-4.8001,-4.8001,-4.8001,-4.8001,-4.8001,-4.8001,-4.8001,-4.8001,-4.8001,-4.8001,-4.8001,-4.8001,-4.8001,-4.8001,-3.3408,-3.2434,-3.1468,-3.1048,-3.0777,-3.0546,-3.0472,-3.0272,-2.9783,-2.8852,-2.9061,-2.9073,-2.844,-2.9145,-2.9784,-3.0038,-3.0359,-3.0647,-3.096,-3.1334,-3.1468,-3.1468,-3.216,-3.2706,-3.3059,-3.272,-3.2932,-3.3575,-3.3551,-3.4073,-3.5244,0.0,0.0,0.0,0.0,-3.8556,-3.8871,-3.926,-3.9625,-3.995,-4.0355,-4.0873,0.0,-4.2317,-4.2772,-4.3113,-4.3432,-4.3628,-4.3628,-4.3628,-4.3628,-4.3628,-4.3628,-4.3789,-4.4105,-4.4746,-4.532,-4.5852,-4.6477,-4.6842,-4.6998,-4.6998,-4.6998,-4.6998,-4.6998,-4.6998,-4.6998,-4.6998,-4.6998,-4.6998,-4.6998,-4.6998,-4.6998,-4.6998,-4.6778,-4.6637,-4.6637,-4.6637,-4.6525,-4.6297,-4.6572,-4.6684,-4.6459,-4.6972,-4.7151,-4.6817,-4.7107,-4.7107,-4.6707,-4.6454,-4.631,-4.6147,-4.5511,-4.5352,-4.5821,-4.5744,-4.6049,-4.6875,-4.7182,-4.7603,-4.8001,-4.8001,-4.8001,-4.8001,-4.8001,-4.8001,-4.8001,-4.8001,-4.8001,-4.8001,-4.8001,-4.8001,-4.8001,-4.8001,-4.8001,-4.8001,-3.2087,-3.1468,-3.0986,-3.0986,-3.0581,-3.0215,-3.015,-3.0072,-2.9645,-2.8698,-2.9021,-2.9165,-2.8575,-2.9525,-3.0255,-3.0255,-3.0699,-3.0986,-3.0986,-3.1603,-3.2015,-3.2074,-3.2791,-3.3561,-3.4312,-3.3699,-3.4031,-3.5478,-3.5365,-3.5732,0.0,0.0,0.0,0.0,0.0,-3.8856,-3.9424,-3.9424,-3.9824,-4.0478,-4.0615,-4.1393,-4.2585,-4.271,-4.3096,-4.3628,-4.3628,-4.3628,-4.3628,-4.3628,-4.3628,-4.3628,-4.3628,-4.4006,-4.4502,-4.4597,-4.5337,-4.6235,-4.6284,-4.6637,-4.6998,-4.6998,-4.6998,-4.6998,-4.6998,-4.6998,-4.6998,-4.6998,-4.6998,-4.6998,-4.6998,-4.6998,-4.6998,-4.6998,-4.659,-4.6284,-4.6186,-4.6186,-4.597,-4.5355,-4.5802,0.0,-4.5407,-4.6406,-4.6753,-4.5968,-4.631,-4.6548,-4.6436,-4.6,-4.5648,-4.5563,-4.5441,-4.5299,-4.499,-4.6169,-4.6787,-4.6908,-4.7653,-4.8001,-4.8001,-4.8001,-4.8001,-4.8001,-4.8001,-4.8001,-4.8001,-4.8001,-4.8001,-4.8001,-4.8001,-4.8001,-4.8001,-4.8001,-4.8001,-4.8001,-3.1334,-3.1123,-3.0986,-3.0986,-3.0895,-3.0673,-3.0215,-2.9732,-2.949,-2.9783,-2.9907,-2.9907,-2.9835,-3.0416,-3.083,-3.083,-3.0934,-3.0986,-3.0986,-3.1123,-3.1468,-3.2074,-3.2791,-3.3561,-3.4312,-3.4177,-3.4506,-3.5317,-3.5281,-3.5962,-3.7184,-3.7872,-3.8586,0.0,0.0,-3.9305,-3.9424,-3.9424,-3.9824,-4.0547,-4.1127,-4.1852,-4.2648,-4.3235,-4.3492,-4.3628,-4.3628,-4.3628,-4.3628,-4.3628,-4.3628,-4.3628,-4.3628,-4.4006,-4.4614,-4.5054,-4.5649,-4.6284,-4.6731,-4.6934,-4.6998,-4.6998,-4.6998,-4.6998,-4.6998,-4.6998,-4.6998,-4.6998,-4.6998,-4.6998,-4.6998,-4.6998,-4.6998,-4.6998,-4.6934,-4.6702,-4.6235,-4.6186,-4.597,-4.5355,-4.5614,-4.5511,-4.4763,-4.5459,-4.59,-4.5767,-4.59,-4.5732,-4.5003,-4.4895,-4.4804,-4.4691,-4.4791,-4.5077,-4.5445,-4.6386,-4.6886,-4.6908,-4.7653,-4.8001,-4.8001,-4.8001,-4.8001,-4.8001,-4.8001,-4.8001,-4.8001,-4.8001,-4.8001,-4.8001,-4.8001,-4.8001,-4.8001,-4.8001,-4.8001,-4.8001,-3.0616,-3.0542,-3.0634,-3.0934,-3.0738,-3.0555,-3.0568,-3.0098,-2.9678,-2.9632,-3.0164,-3.042,-3.0108,-3.0592,-3.0986,-3.0986,-3.0986,-3.1198,-3.1529,-3.1969,-3.2304,-3.2648,-3.3796,-3.4501,-3.4791,-3.5257,-3.5716,-3.6419,-3.6758,-3.7246,-3.7881,-3.8609,-3.9095,-3.9424,0.0,-3.9424,-3.9424,-3.9824,-4.0409,-4.1075,-4.1787,-4.2506,-4.3157,-4.3492,-4.3628,-4.3628,-4.3628,-4.3628,-4.3628,-4.3628,-4.3628,-4.3628,-4.3628,-4.4219,-4.4964,-4.5197,-4.5935,-4.6684,-4.6934,-4.6998,-4.6998,-4.6998,-4.6998,-4.6998,-4.6998,-4.6998,-4.6998,-4.6998,-4.6998,-4.6998,-4.6998,-4.6998,-4.6998,-4.6998,-4.6507,-4.6052,-4.5751,-4.5494,-4.5072,-4.4468,-4.4783,-4.4855,-4.435,-4.4652,-4.4855,-4.4855,-4.5214,-4.525,-4.491,-4.4897,-4.5003,-4.519,-4.5233,-4.5557,-4.6263,-4.667,-4.709,-4.7471,-4.7835,-4.8001,-4.8001,-4.8001,-4.8001,-4.8001,-4.8001,-4.8001,-4.8001,-4.8001,-4.8001,-4.8001,-4.8001,-4.8001,-4.8001,-4.8001,-4.8001,-4.8001,-3.0294,-3.032,-3.0451,-3.0908,-3.062,-3.0464,-3.0921,-3.0607,-3.016,-2.9615,-3.0387,-3.0823,-3.0266,-3.0672,-3.0986,-3.0986,-3.1123,-3.1394,-3.1809,-3.272,-3.3213,-3.3213,-3.4622,-3.5496,-3.5546,-3.6297,-3.6985,-3.7614,-3.8138,-3.8392,-3.8407,-3.9095,-3.9424,-3.9424,-3.9424,-3.9481,-3.9681,-4.0285,-4.1008,-4.1787,-4.238,-4.2974,-4.3628,-4.3628,-4.3628,-4.3628,-4.3628,-4.3628,-4.3628,-4.3628,-4.3628,-4.3628,-4.3628,-4.4356,-4.5303,-4.5303,-4.6102,-4.6998,-4.6998,-4.6998,-4.6998,-4.6998,-4.6998,-4.6998,-4.6998,-4.7122,-4.7247,-4.7247,-4.7372,-4.7433,-4.7322,-4.7275,-4.7275,-4.7133,-4.6323,-4.575,-4.5625,-4.5086,-4.4579,-4.4119,-4.4265,-4.437,-4.4474,-4.424,-4.4173,-4.4474,-4.4767,-4.5001,-4.5145,-4.5252,-4.5479,-4.5797,-4.5924,-4.6311,-4.6891,-4.7057,-4.7421,-4.8001,-4.8001,-4.8001,-4.8001,-4.8001,-4.8001,-4.8001,-4.8001,-4.8001,-4.8001,-4.8001,-4.8001,-4.8001,-4.8001,-4.8001,-4.8001,-4.8001,-4.8001,-4.8001,-3.0803,-3.0908,-3.0921,-3.0973,-3.0934,-3.0921,-3.0973,-3.0934,-3.0908,-3.0833,-3.0947,-3.0986,-3.0911,-3.0986,-3.0986,-3.0986,-3.1603,-3.1736,-3.1123,-3.2448,-3.3213,-3.3213,-3.4589,-3.5654,-3.6395,-3.703,-3.7644,-3.8302,-3.8362,-3.8392,-3.8407,-3.9095,-3.9424,-3.9424,-3.9424,-3.9753,-4.0409,-4.0478,-4.126,-4.2506,-4.2585,-4.2974,-4.3628,-4.3628,-4.3628,-4.3628,-4.3628,-4.3628,-4.3628,-4.3628,-4.3628,-4.3628,-4.3628,-4.4356,-4.5303,-4.5303,-4.6102,-4.6998,-4.6998,-4.6998,-4.6998,-4.6998,-4.6998,-4.6998,-4.6998,-4.7551,-4.8068,-4.8068,-4.8621,-4.8941,-4.8393,-4.8273,-4.8067,-4.7536,-4.7389,-4.7112,-4.6615,-4.594,-4.5538,-4.5578,-4.462,-4.4397,-4.5528,-4.4604,-4.443,-4.5713,-4.5394,-4.5085,-4.495,-4.5485,-4.5744,-4.5806,-4.6474,-4.6825,-4.6891,-4.7554,-4.7934,-4.8001,-4.8001,-4.8001,-4.8001,-4.8001,-4.8001,-4.8001,-4.8001,-4.8001,-4.8001,-4.8001,-4.8001,-4.8001,-4.8001,-4.8001,-4.8001,-4.8001,-4.8001,-4.8001,-3.0359,-3.0477,-3.0581,-3.0934,-3.0986,-3.0986,-3.0986,-3.0986,-3.0986,-3.0986,-3.0986,-3.0986,-3.0986,-3.0986,-3.0986,-3.0986,-3.1663,-3.216,-3.2318,-3.3283,-3.4229,-3.5127,-3.5745,-3.6535,-3.7614,-3.7868,-3.8332,-3.9005,-3.9005,-3.9005,-3.902,-3.929,-3.9424,-3.9424,-3.9424,-3.9824,-4.0547,-4.094,-4.1656,-4.2648,-4.3035,-4.3355,-4.3628,-4.3628,-4.3628,-4.3628,-4.3628,-4.3628,-4.3628,-4.3628,-4.3628,-4.3628,-4.3628,-4.4356,-4.5303,-4.5303,-4.6102,-4.6998,-4.6998,-4.6998,-4.7105,-4.7586,-4.7711,-4.7818,-4.8282,-4.8639,-4.8871,-4.8871,-4.9103,-4.9106,-4.8502,-4.8381,-4.8172,-4.7596,-4.7221,-4.6935,-4.6718,-4.6262,-4.5912,-4.5967,-4.5607,-4.5594,-4.6146,-4.5694,-4.5671,-4.6421,-4.5544,-4.5207,-4.5718,-4.6296,-4.6553,-4.6553,-4.7237,-4.7554,-4.7554,-4.7852,-4.8001,-4.8001,-4.8001,-4.8001,-4.8001,-4.8001,-4.8001,-4.8001,-4.8001,-4.8001,-4.8001,-4.8001,-4.8001,-4.8001,-4.8001,-4.8001,-4.8001,-4.8115,-4.8115,-4.8115,-3.0281,-3.0385,-3.0516,-3.0921,-3.0986,-3.0986,-3.0986,-3.0986,-3.0986,-3.0986,-3.0986,-3.1048,-3.1334,-3.1123,-3.1198,-3.1616,-3.2087,-3.2648,-3.3143,-3.4297,-3.5324,-3.6081,-3.6768,-3.7464,-3.8362,-3.8586,-3.8931,-3.9424,-3.9424,-3.932,-3.9125,-3.9125,-3.923,-3.9424,-3.9625,-4.0146,-4.0805,-4.1525,-4.2253,-4.2912,-4.3432,-4.3628,-4.3628,-4.3628,-4.3628,-4.3628,-4.3628,-4.3628,-4.3628,-4.3628,-4.3628,-4.3611,-4.3789,-4.4635,-4.558,-4.558,-4.6266,-4.7033,-4.7283,-4.7337,-4.7533,-4.8318,-4.8514,-4.8657,-4.9192,-4.9495,-4.9727,-4.9977,-5.0013,-4.9799,-4.9187,-4.896,-4.862,-4.8026,-4.742,-4.7093,-4.7137,-4.6759,-4.6541,-4.6758,-4.6436,-4.6458,-4.6938,-4.648,-4.6413,-4.711,-4.6135,-4.5829,-4.6564,-4.7124,-4.7381,-4.7398,-4.7784,-4.8001,-4.8001,-4.8001,-4.8001,-4.8001,-4.8001,-4.8001,-4.8001,-4.8001,-4.8001,-4.8001,-4.8001,-4.8001,-4.8001,-4.8001,-4.8001,-4.8001,-4.8001,-4.8001,-4.8049,-4.8179,-4.8227,-4.8292,-3.0869,-3.0973,-3.0973,-3.0986,-3.0986,-3.0986,-3.0986,-3.0986,-3.0986,-3.0986,-3.0986,-3.1259,-3.2015,-3.1468,-3.1616,-3.3087,-3.3143,-3.3213,-3.3213,-3.5239,-3.6096,-3.5339,-3.7282,-3.8377,-3.8392,-3.905,-3.9409,-3.9424,-3.9424,-3.9065,-3.8407,-3.8407,-3.8766,-3.9424,-4.0146,-4.0873,-4.1525,-4.2253,-4.2974,-4.3568,-4.3628,-4.3628,-4.3628,-4.3628,-4.3628,-4.3628,-4.3628,-4.3628,-4.3628,-4.3628,-4.3628,-4.3671,-4.4276,-4.5284,-4.6186,-4.6186,-4.659,-4.7158,-4.7943,-4.8204,-4.8336,-4.9103,-4.9299,-4.9299,-4.9317,-4.9924,-5.0709,-5.1512,-5.1672,-5.1503,-5.0893,-5.022,-4.9612,-4.8972,-4.837,-4.8033,-4.8146,-4.7611,-4.7491,-4.8366,-4.707,-4.6645,-4.8061,-4.6769,-4.6394,-4.7868,-4.7289,-4.7002,-4.7395,-4.7892,-4.8163,-4.7984,-4.8001,-4.8001,-4.8001,-4.8001,-4.8001,-4.8001,-4.8001,-4.8001,-4.8001,-4.8001,-4.8001,-4.8001,-4.8001,-4.8001,-4.8001,-4.8001,-4.8001,-4.8001,-4.8001,-4.8049,-4.8227,-4.8227,-4.8356,-4.8547,-3.0869,-3.0986,-3.0986,-3.0986,-3.0986,-3.0986,-3.0986,-3.1394,-3.1603,-3.1061,-3.1896,-3.2591,-3.2791,-3.216,-3.216,-3.3157,-3.4084,-3.4606,-3.4606,-3.6158,-3.7231,-3.7426,-3.8083,-3.8601,-3.908,-3.9305,-3.9424,-3.9424,-3.9424,-3.9305,-3.9095,-3.9095,-3.947,-4.0146,-4.0409,-4.1142,-4.2253,-4.2522,-4.2974,-4.3628,-4.3628,-4.3628,-4.3628,-4.3628,-4.3628,-4.3628,-4.3628,-4.3628,-4.3628,-4.3628,-4.3889,-4.432,-4.5054,-4.5374,-4.5684,-4.6257,-4.7058,-4.7961,-4.8746,-4.896,-4.9139,-4.9924,-5.0138,-5.0263,-5.0816,-5.1137,-5.1387,-5.1637,-5.169,-5.1401,-5.0293,-4.9936,-4.947,-4.845,-4.8115,-4.8001,-4.8049,-4.798,-4.7978,-4.8258,-4.7938,-4.7918,-4.837,-4.7811,-4.7728,-4.8483,-4.8219,-4.7958,-4.7847,-4.7998,-4.8049,-4.8001,-4.8001,-4.8001,-4.8001,-4.8001,-4.8001,-4.8001,-4.8001,-4.8001,-4.8001,-4.8001,-4.8001,-4.8001,-4.8001,-4.8001,-4.8001,-4.8001,-4.8049,-4.8115,-4.8115,-4.8244,-4.842,-4.8564,-4.8644,-4.8707,-3.0921,-3.0986,-3.0986,-3.0986,-3.0986,-3.1123,-3.1408,-3.1603,-3.175,-3.1823,-3.2376,-3.3003,-3.3561,-3.341,-3.3621,-3.4347,-3.4984,-3.5511,-3.6035,-3.7114,-3.7958,-3.8377,-3.8631,-3.8975,-3.9409,-3.9424,-3.9424,-3.9424,-3.9424,-3.9424,-3.9424,-3.9681,-4.0091,-4.0547,-4.1075,-4.1803,-4.2585,-4.2851,-4.3235,-4.3628,-4.3628,-4.3628,-4.3628,-4.3628,-4.3628,-4.3628,-4.3628,-4.3628,-4.3661,-4.3926,-4.4407,-4.5026,-4.5788,-4.6234,-4.6586,-4.7055,-4.79,-4.8782,-4.9549,-4.9763,-4.9959,-5.0744,-5.0959,-5.1083,-5.1583,-5.169,-5.164,-5.1418,-5.1367,-5.1052,-4.9993,-4.9629,-4.9248,-4.845,-4.8179,-4.8001,-4.8049,-4.8179,-4.8227,-4.8292,-4.8356,-4.842,-4.8483,-4.8292,-4.8308,-4.8644,-4.8436,-4.8244,-4.8049,-4.8115,-4.8131,-4.8001,-4.8001,-4.8001,-4.8001,-4.8001,-4.8001,-4.8001,-4.8001,-4.8001,-4.8001,-4.8001,-4.8001,-4.8001,-4.8001,-4.8001,-4.8066,-4.8066,-4.8179,-4.8292,-4.8292,-4.842,-4.8627,-4.8769,-4.8832,-4.8928,-3.0986,-3.0986,-3.0986,-3.0986,-3.0986,-3.1259,-3.1942,-3.1542,-3.1616,-3.2946,-3.2648,-3.2875,-3.4235,-3.4976,-3.5742,-3.6529,-3.5928,-3.6079,-3.7366,-3.8093,-3.8467,-3.8467,-3.908,-3.9424,-3.9424,-3.9424,-3.9424,-3.9424,-3.9424,-3.9424,-3.9481,-4.0146,-4.0547,-4.0668,-4.1997,-4.2648,-4.271,-4.3372,-4.3628,-4.3628,-4.3628,-4.3628,-4.3628,-4.3628,-4.3628,-4.3628,-4.3678,-4.3694,-4.381,-4.4583,-4.5202,-4.5811,-4.6632,-4.7665,-4.8556,-4.8538,-4.8912,-4.9585,-5.037,-5.0584,-5.0762,-5.1512,-5.169,-5.169,-5.169,-5.169,-5.147,-5.0928,-5.0749,-5.0512,-4.9879,-4.9291,-4.8883,-4.8821,-4.8403,-4.8049,-4.8163,-4.8163,-4.8227,-4.8483,-4.8292,-4.8292,-4.8483,-4.8179,-4.8115,-4.8483,-4.8179,-4.8049,-4.8163,-4.8356,-4.8292,-4.8001,-4.8001,-4.8001,-4.8001,-4.8001,-4.8001,-4.8001,-4.8001,-4.8001,-4.8001,-4.8001,-4.8001,-4.8001,-4.8001,-4.8115,-4.8227,-4.8227,-4.8356,-4.8547,-4.8547,-4.8627,-4.8832,-4.8832,-4.8928,-4.9171,-3.0986,-3.0986,-3.0986,-3.0986,-3.0986,-3.1061,-3.1259,-3.2101,-3.2591,-3.2362,-3.3713,-3.4815,-3.5049,-3.5775,-3.6716,-3.7853,-3.7774,-3.7834,-3.8138,-3.8796,-3.917,-3.917,-3.9334,-3.9424,-3.9424,-3.9424,-3.9424,-3.9424,-3.9424,-3.9681,-4.0216,-4.0409,-4.1075,-4.2126,-4.2459,-4.2896,-4.3372,-4.3552,-4.3628,-4.3628,-4.3628,-4.3628,-4.3628,-4.3628,-4.3628,-4.3694,-4.4241,-4.444,-4.46,-4.5824,-4.6296,-4.6649,-4.7935,-4.8809,-4.9416,-4.9416,-4.9794,-5.0388,-5.1191,-5.1422,-5.1458,-5.1637,-5.169,-5.169,-5.169,-5.1349,-5.0964,-5.0803,-5.0366,-4.9821,-4.9231,-4.9006,-4.8776,-4.8275,-4.8115,-4.8001,-4.8049,-4.8066,-4.8115,-4.8227,-4.8227,-4.8227,-4.8292,-4.8163,-4.8179,-4.8292,-4.8163,-4.8179,-4.8227,-4.8227,-4.8179,-4.8001,-4.8001,-4.8001,-4.8001,-4.8001,-4.8001,-4.8001,-4.8001,-4.8049,-4.8163,-4.8163,-4.8244,-4.8356,-4.8356,-4.842,-4.842,-4.842,-4.8564,-4.8707,-4.8707,-4.8832,-4.894,-4.894,-4.9357,-4.9847,-3.1061,-3.0986,-3.0986,-3.0986,-3.1259,-3.1616,-3.1969,-3.2662,-3.3297,-3.3575,-3.4423,-3.5156,-3.579,-3.6499,-3.73,-3.8302,-3.8392,-3.8527,-3.8841,-3.9215,-3.9424,-3.9424,-3.9481,-3.9481,-3.9424,-3.9481,-3.9481,-3.9424,-3.9753,-4.0076,-4.0478,-4.1142,-4.1868,-4.2585,-4.2912,-4.3235,-4.3628,-4.3628,-4.3628,-4.3628,-4.3628,-4.3628,-4.3661,-4.3976,-4.4108,-4.4208,-4.4937,-4.5185,-4.5363,-4.643,-4.7192,-4.7837,-4.8936,-4.9866,-5.0608,-5.0608,-5.083,-5.1137,-5.1583,-5.169,-5.169,-5.169,-5.169,-5.169,-5.169,-5.147,-5.107,-5.0477,-5.005,-4.9529,-4.8668,-4.8497,-4.8386,-4.8049,-4.8066,-4.8115,-4.8115,-4.8115,-4.8115,-4.8163,-4.8179,-4.8098,-4.8163,-4.8163,-4.8179,-4.8356,-4.8227,-4.8227,-4.8356,-4.8356,-4.8227,-4.8115,-4.8115,-4.8115,-4.8115,-4.8001,-4.8001,-4.8115,-4.8115,-4.8179,-4.8356,-4.8356,-4.842,-4.8483,-4.8483,-4.8547,-4.8627,-4.8627,-4.8769,-4.8894,-4.8894,-4.8956,-4.9035,-4.9373,-4.9746,-5.0185,-3.1123,-3.1123,-3.1198,-3.1198,-3.1809,-3.2506,-3.3073,-3.3283,-3.3851,-3.5148,-3.4913,-3.514,-3.6485,-3.718,-3.7823,-3.8482,-3.8542,-3.8796,-3.9379,-3.9424,-3.9424,-3.9424,-3.9553,-3.9553,-3.9424,-3.9553,-3.9625,-3.9553,-4.0216,-4.0615,-4.0805,-4.2061,-4.2648,-4.2772,-4.3372,-4.3628,-4.3628,-4.3628,-4.3694,-4.3794,-4.3794,-4.3843,-4.4009,-4.4622,-4.4854,-4.4953,-4.5698,-4.5963,-4.6063,-4.6919,-4.7986,-4.9067,-4.9746,-5.075,-5.169,-5.169,-5.169,-5.169,-5.169,-5.169,-5.169,-5.169,-5.169,-5.169,-5.1571,-5.147,-5.1105,-4.9936,-4.9588,-4.9188,-4.8163,-4.8001,-4.8001,-4.8001,-4.8115,-4.8163,-4.8163,-4.8163,-4.8163,-4.8227,-4.8115,-4.8115,-4.8308,-4.8179,-4.8261,-4.8483,-4.8356,-4.8292,-4.8483,-4.8483,-4.842,-4.8227,-4.8227,-4.8227,-4.8227,-4.8115,-4.8115,-4.8227,-4.8227,-4.8356,-4.8564,-4.8564,-4.8547,-4.8547,-4.8547,-4.8627,-4.8786,-4.8769,-4.8832,-4.894,-4.894,-4.9007,-4.9193,-4.9801,-5.0236,-5.0608,-3.0986,-3.1529,-3.1942,-3.1942,-3.2506,-3.3073,-3.3143,-3.3768,-3.4245,-3.4461,-3.5459,-3.6417,-3.7195,-3.7838,-3.8512,-3.92,-3.926,-3.9305,-3.9409,-3.9424,-3.9424,-3.9424,-3.9424,-3.9424,-3.9424,-3.9424,-3.9753,-4.0355,-4.0409,-4.1142,-4.2253,-4.2522,-4.2912,-4.3432,-4.3568,-4.3628,-4.3628,-4.3628,-4.3976,-4.4522,-4.4522,-4.4887,-4.5467,-4.5582,-4.5616,-4.5715,-4.646,-4.6725,-4.6888,-4.8186,-4.9061,-4.978,-5.046,-5.1123,-5.169,-5.169,-5.169,-5.169,-5.169,-5.169,-5.169,-5.169,-5.169,-5.1589,-5.1035,-5.0477,-4.9861,-4.9171,-4.8606,-4.8227,-4.8066,-4.8001,-4.8001,-4.8001,-4.8001,-4.8001,-4.8001,-4.8001,-4.8115,-4.842,-4.842,-4.85,-4.8707,-4.8707,-4.8644,-4.8483,-4.8483,-4.8483,-4.8483,-4.8483,-4.8483,-4.8483,-4.8483,-4.8356,-4.8227,-4.8163,-4.8163,-4.8227,-4.8356,-4.8564,-4.8769,-4.8769,-4.8832,-4.894,-4.8832,-4.8769,-4.8786,-4.8627,-4.8547,-4.8547,-4.8547,-4.9076,-4.9792,-4.991,-5.0784,-5.1995,-3.2173,-3.2448,-3.272,-3.272,-3.3283,-3.3754,-3.3754,-3.4476,-3.5104,-3.5459,-3.6067,-3.6851,-3.7823,-3.8197,-3.8661,-3.9364,-3.9424,-3.9424,-3.9553,-3.9481,-3.9424,-3.9424,-3.9481,-3.9753,-4.0076,-4.0021,-4.0355,-4.1075,-4.1459,-4.1997,-4.2585,-4.3096,-4.3449,-4.3763,-4.3864,-4.4022,-4.4328,-4.4328,-4.4683,-4.5284,-4.5284,-4.5483,-4.5831,-4.6228,-4.6394,-4.6493,-4.7222,-4.7487,-4.7666,-4.8613,-4.9291,-4.9936,-5.0567,-5.1193,-5.169,-5.169,-5.169,-5.169,-5.169,-5.169,-5.164,-5.1315,-5.147,-5.147,-5.0477,-5.031,-5.0067,-4.9127,-4.8668,-4.8386,-4.8049,-4.8001,-4.8001,-4.8001,-4.8049,-4.8179,-4.8244,-4.8244,-4.8373,-4.8627,-4.8564,-4.8547,-4.8627,-4.8627,-4.8627,-4.8483,-4.8627,-4.8627,-4.8627,-4.8753,-4.8753,-4.8753,-4.8483,-4.8356,-4.8356,-4.8227,-4.8308,-4.85,-4.8627,-4.8753,-4.8894,-4.8832,-4.8832,-4.8894,-4.869,-4.8627,-4.8627,-4.8627,-4.8627,-4.874,-4.9173,-4.9607,-5.0092,-5.0885,-5.1659,-5.2367,-3.3003,-3.3213,-3.3492,-3.3492,-3.4056,-3.461,-3.461,-3.5118,-3.5744,-3.6402,-3.6611,-3.7135,-3.8272,-3.8542,-3.8841,-3.9379,-3.9409,-3.9481,-3.961,-3.9553,-3.9496,-3.9481,-3.9753,-4.0146,-4.0668,-4.0684,-4.1075,-4.1787,-4.2317,-4.271,-4.2912,-4.3568,-4.3981,-4.419,-4.4232,-4.4632,-4.5196,-4.5136,-4.5507,-4.6046,-4.6046,-4.6146,-4.6361,-4.6941,-4.7156,-4.7222,-4.7802,-4.8001,-4.8115,-4.8731,-4.9291,-4.9936,-5.0622,-5.1175,-5.1521,-5.1571,-5.1571,-5.1521,-5.1521,-5.1401,-5.1175,-5.0857,-5.114,-5.1228,-5.0237,-5.031,-5.0254,-4.9127,-4.8838,-4.8623,-4.8115,-4.8049,-4.8131,-4.8131,-4.8179,-4.8356,-4.8483,-4.8483,-4.8547,-4.8786,-4.8627,-4.8547,-4.861,-4.861,-4.861,-4.861,-4.8753,-4.8849,-4.8849,-4.894,-4.9001,-4.894,-4.8564,-4.842,-4.8564,-4.8436,-4.85,-4.8786,-4.8832,-4.8894,-4.9001,-4.8832,-4.8786,-4.8769,-4.8564,-4.8483,-4.8483,-4.8707,-4.8807,-4.9026,-4.9691,-5.024,-5.068,-5.1828,-5.2418,-5.2672,-3.229,-3.3269,-3.4245,-3.4245,-3.4905,-3.5424,-3.5424,-3.5439,-3.5744,-3.6402,-3.6985,-3.7614,-3.8317,-3.896,-3.9364,-3.9424,-3.9553,-3.9625,-3.9424,-3.9783,-3.9854,-3.9696,-4.0146,-4.0478,-4.0478,-4.1127,-4.1787,-4.2522,-4.2585,-4.3035,-4.3839,-4.3898,-4.4306,-4.5102,-4.4923,-4.528,-4.5996,-4.5777,-4.6146,-4.6825,-4.6825,-4.7222,-4.7835,-4.7901,-4.7918,-4.7934,-4.7984,-4.8001,-4.8115,-4.8731,-4.9291,-4.9936,-5.075,-5.0999,-5.1052,-5.121,-5.1158,-5.0999,-5.091,-5.0422,-5.005,-5.0677,-5.0803,-5.0857,-5.0749,-5.031,-4.9705,-4.9067,-4.856,-4.8227,-4.8163,-4.8356,-4.8483,-4.8483,-4.8483,-4.8483,-4.8483,-4.8483,-4.8547,-4.8786,-4.8786,-4.8832,-4.894,-4.894,-4.894,-4.894,-4.9001,-4.9001,-4.9001,-4.9001,-4.894,-4.8832,-4.8786,-4.8769,-4.8786,-4.8769,-4.8769,-4.8786,-4.8956,-4.9001,-4.9001,-4.8832,-4.8786,-4.8769,-4.8564,-4.8483,-4.8483,-4.8547,-4.8885,-4.9521,-4.9636,-5.0557,-5.1983,-5.2084,-5.2657,-5.3416,-3.4153,-3.4639,-3.5052,-3.5052,-3.5294,-3.5504,-3.5504,-3.5848,-3.6342,-3.6985,-3.7614,-3.8272,-3.896,-3.926,-3.9424,-3.9424,-3.9481,-3.9553,-3.9553,-3.9696,-3.9768,-3.9681,-4.0216,-4.0668,-4.1127,-4.1787,-4.2506,-4.3235,-4.3235,-4.3372,-4.3704,-4.439,-4.4858,-4.5185,-4.5714,-4.6274,-4.687,-4.6712,-4.7018,-4.7699,-4.7651,-4.7801,-4.8115,-4.8001,-4.8001,-4.8001,-4.8001,-4.8049,-4.8275,-4.9274,-4.9571,-4.9739,-5.0804,-5.1105,-5.121,-5.1654,-5.1434,-5.1105,-5.1052,-5.1052,-5.0982,-5.0512,-5.0999,-5.1158,-4.9563,-4.9664,-4.9821,-4.8668,-4.8403,-4.842,-4.842,-4.8356,-4.8356,-4.8483,-4.842,-4.8356,-4.8483,-4.8627,-4.8707,-4.8769,-4.8894,-4.894,-4.9001,-4.9001,-4.9001,-4.9001,-4.9001,-4.9001,-4.9001,-4.9001,-4.8956,-4.8956,-4.894,-4.8894,-4.8786,-4.8786,-4.8832,-4.894,-4.8956,-4.8956,-4.8894,-4.869,-4.8564,-4.8436,-4.8356,-4.8292,-4.8389,-4.9067,-4.9564,-4.9917,-5.0856,-5.1678,-5.2301,-5.2808,-5.318,-5.3501,-3.5052,-3.5359,-3.5504,-3.5504,-3.5504,-3.5504,-3.5504,-3.6073,-3.6716,-3.733,-3.7973,-3.8661,-3.9349,-3.9424,-3.9424,-3.9481,-3.9568,-3.9625,-3.9696,-3.9879,-4.0076,-4.0091,-4.0668,-4.1311,-4.1949,-4.2632,-4.3235,-4.3687,-4.3628,-4.3744,-4.4036,-4.4816,-4.5479,-4.6008,-4.6572,-4.7167,-4.7747,-4.7541,-4.7697,-4.8115,-4.8066,-4.8049,-4.8163,-4.8115,-4.8115,-4.8196,-4.8196,-4.8244,-4.8467,-4.947,-4.9763,-4.9855,-5.0911,-5.1314,-5.1365,-5.1518,-5.1296,-5.0982,-5.0929,-5.1158,-5.128,-5.0384,-5.0858,-5.1087,-4.9282,-4.9462,-4.9722,-4.8748,-4.861,-4.8547,-4.8483,-4.842,-4.842,-4.8483,-4.8356,-4.8356,-4.8564,-4.8707,-4.8849,-4.8832,-4.894,-4.9001,-4.9001,-4.9001,-4.9001,-4.9001,-4.9001,-4.9001,-4.9001,-4.9001,-4.9001,-4.9001,-4.9001,-4.8956,-4.8832,-4.8832,-4.8894,-4.9001,-4.8956,-4.8894,-4.8769,-4.85,-4.8356,-4.8292,-4.8227,-4.8361,-4.8675,-4.9469,-5.0102,-5.0688,-5.1813,-5.2403,-5.2739,-5.3298,-5.3501,-5.3501,-3.4461,-3.4971,-3.5504,-3.5504,-3.5504,-3.5504,-3.5519,-3.6073,-3.6716,-3.7345,-3.7988,-3.8661,-3.9349,-3.9424,-3.9481,-3.9681,-3.9854,-3.9925,-3.9696,-4.0309,-4.0774,-4.0992,-4.1625,-4.23,-4.2998,-4.3595,-4.3898,-4.3898,-4.3704,-4.4052,-4.4886,-4.5126,-4.6092,-4.7625,-4.7642,-4.7922,-4.8483,-4.8292,-4.8115,-4.8001,-4.8001,-4.8049,-4.8227,-4.8227,-4.8356,-4.8483,-4.8483,-4.8483,-4.861,-4.9178,-4.978,-5.0404,-5.1174,-5.15,-5.1449,-5.0733,-5.0515,-5.0442,-5.0349,-5.0404,-5.046,-5.0349,-5.0293,-5.031,-5.038,-4.9907,-4.9402,-4.9419,-4.9107,-4.8769,-4.8547,-4.8627,-4.8707,-4.8547,-4.8483,-4.8564,-4.8769,-4.8786,-4.8832,-4.9001,-4.9001,-4.9001,-4.9001,-4.9001,-4.9001,-4.9001,-4.9001,-4.9001,-4.9001,-4.9001,-4.9001,-4.9001,-4.9001,-4.9001,-4.9001,-4.9001,-4.9001,-4.9001,-4.8832,-4.8786,-4.8786,-4.8373,-4.8292,-4.8483,-4.8292,-4.8725,-4.9605,-4.9605,-5.0624,-5.2102,-5.2118,-5.2707,-5.3501,-5.3518,-5.3518,-5.3518,-3.5198,-3.5359,-3.5504,-3.5504,-3.5504,-3.5669,-3.6118,-3.6731,-3.736,-3.8018,-3.8691,-3.9185,-3.9394,-3.9553,-3.9625,-3.9681,-3.9854,-3.9996,-4.0137,-4.0752,-4.1377,-4.2013,-4.2504,-4.2814,-4.2998,-4.3595,-4.3898,-4.3898,-4.4202,-4.455,-4.498,-4.6196,-4.7099,-4.7676,-4.8197,-4.8551,-4.8707,-4.8373,-4.8227,-4.8373,-4.8179,-4.8163,-4.8227,-4.8356,-4.8356,-4.8292,-4.8483,-4.8564,-4.8877,-4.9855,-5.0067,-5.0198,-5.1226,-5.126,-5.1034,-5.1209,-5.0982,-5.0643,-5.0589,-5.0589,-5.0497,-5.0005,-5.0237,-5.0331,-4.9453,-4.9419,-4.9445,-4.9046,-4.8753,-4.8627,-4.8707,-4.85,-4.8436,-4.8707,-4.8564,-4.8564,-4.8769,-4.8894,-4.8894,-4.8894,-4.894,-4.9001,-4.9001,-4.9001,-4.9001,-4.9001,-4.9001,-4.894,-4.8832,-4.8832,-4.8753,-4.8673,-4.8673,-4.8673,-4.8673,-4.8753,-4.8832,-4.8832,-4.869,-4.85,-4.8373,-4.8227,-4.8179,-4.8213,-4.8695,-4.9176,-4.9672,-5.0876,-5.1681,-5.2301,-5.2724,-5.3061,-5.3264,-5.3127,-5.3058,-5.3058,-3.5504,-3.5504,-3.5504,-3.5504,-3.5504,-3.5729,-3.6387,-3.7015,-3.7644,-3.8302,-3.899,-3.9424,-3.9424,-3.9553,-3.9768,-3.9839,-3.9996,-4.0331,-4.0783,-4.1327,-4.2078,-4.2892,-4.3393,-4.3647,-4.3647,-4.3848,-4.3998,-4.3998,-4.4461,-4.4976,-4.543,-4.6798,-4.7687,-4.8175,-4.863,-4.8832,-4.8769,-4.8564,-4.8436,-4.842,-4.8593,-4.8702,-4.8702,-4.8872,-4.8934,-4.8889,-4.8719,-4.8923,-4.9333,-5.0028,-5.0237,-5.0404,-5.1278,-5.1209,-5.0751,-5.1157,-5.0822,-5.0387,-5.0387,-5.022,-4.9913,-4.9513,-4.993,-5.0124,-4.9107,-4.9152,-4.9299,-4.894,-4.8753,-4.869,-4.8769,-4.858,-4.85,-4.8627,-4.8564,-4.8564,-4.8769,-4.8894,-4.8894,-4.8894,-4.8956,-4.9001,-4.9001,-4.9001,-4.9001,-4.894,-4.8894,-4.8832,-4.869,-4.8707,-4.8627,-4.8483,-4.8483,-4.8483,-4.8483,-4.8564,-4.8564,-4.8707,-4.8547,-4.842,-4.8244,-4.851,-4.8595,-4.858,-4.936,-5.0042,-5.0526,-5.1514,-5.2118,-5.2539,-5.2857,-5.3041,-5.3041,-5.2972,-5.2903,-5.2903,-3.5504,-3.5504,-3.5504,-3.5504,-3.5504,-3.5744,-3.6462,-3.7045,-3.7659,-3.8377,-3.9035,-3.9424,-3.9424,-3.9553,-3.9768,-3.9996,-4.0207,-4.0646,-4.1459,-4.2013,-4.2691,-4.3453,-4.4179,-4.4587,-4.4587,-4.427,-4.4131,-4.4198,-4.462,-4.5291,-4.6257,-4.7099,-4.8006,-4.8832,-4.8956,-4.8956,-4.8849,-4.8786,-4.8627,-4.8403,-4.9118,-4.9402,-4.9504,-4.9546,-4.9739,-4.9832,-4.9273,-4.9436,-4.9948,-5.0005,-5.0404,-5.0858,-5.1432,-5.1157,-5.0643,-5.0643,-5.0237,-4.9832,-4.9832,-4.9453,-4.9001,-4.9001,-4.9376,-4.9674,-4.9124,-4.9001,-4.9001,-4.9001,-4.9001,-4.894,-4.8832,-4.8786,-4.8707,-4.8547,-4.8547,-4.861,-4.8769,-4.8786,-4.8849,-4.894,-4.894,-4.894,-4.894,-4.894,-4.8877,-4.8769,-4.8769,-4.8707,-4.8483,-4.8483,-4.8483,-4.8483,-4.8483,-4.8483,-4.8483,-4.8292,-4.8292,-4.8483,-4.8483,-4.8389,-4.8279,-4.901,-4.9343,-4.9443,-5.0192,-5.096,-5.1798,-5.166,-5.2077,-5.2903,-5.2694,-5.2694,-5.2834,-5.2834,-5.285,-5.285,-3.5504,-3.5504,-3.5504,-3.5504,-3.5504,-3.5893,-3.703,-3.733,-3.7838,-3.9035,-3.9334,-3.9424,-3.9424,-3.9553,-3.9768,-3.9996,-4.0261,-4.0768,-4.1459,-4.2078,-4.2769,-4.3453,-4.4179,-4.4587,-4.4587,-4.4384,-4.4522,-4.5093,-4.5671,-4.6424,-4.7379,-4.8118,-4.868,-4.894,-4.9001,-4.9001,-4.8956,-4.8832,-4.8968,-4.9308,-4.9385,-4.9664,-5.0016,-4.9756,-4.9639,-4.9664,-4.9715,-4.9774,-5.0045,-5.0911,-5.1329,-5.1432,-5.1551,-5.0911,-5.0085,-5.0085,-4.9656,-4.9168,-4.9168,-4.9107,-4.9001,-4.9001,-4.9107,-4.9168,-4.9001,-4.8894,-4.8894,-4.9001,-4.8798,-4.8627,-4.8786,-4.869,-4.8627,-4.8707,-4.8707,-4.8769,-4.8956,-4.8894,-4.8786,-4.8832,-4.869,-4.861,-4.861,-4.861,-4.861,-4.8564,-4.8564,-4.8483,-4.8292,-4.8292,-4.8244,-4.8115,-4.8115,-4.8115,-4.8115,-4.8066,-4.8115,-4.8292,-4.8179,-4.8365,-4.8929,-4.9094,-4.9476,-5.0073,-5.0786,-5.1254,-5.1643,-5.2141,-5.2544,-5.2903,-5.2694,-5.264,-5.2624,-5.2587,-5.2516,-5.2516,-3.5504,-3.5504,-3.5504,-3.5504,-3.5759,-3.6297,-3.7255,-3.7674,-3.8242,-3.929,-3.9424,-3.9424,-3.9424,-3.9553,-3.9839,-4.0137,-4.0646,-4.1276,-4.1949,-4.2567,-4.3273,-4.3972,-4.4367,-4.4587,-4.4587,-4.4514,-4.4737,-4.5404,-4.5982,-4.6736,-4.7553,-4.8433,-4.8849,-4.8894,-4.894,-4.9001,-4.9001,-4.9229,-4.9419,-4.9646,-5.022,-5.0589,-5.0645,-5.0349,-5.0349,-5.0497,-5.0045,-5.0272,-5.0858,-5.1719,-5.1669,-5.1157,-5.1157,-5.0404,-4.9436,-4.9436,-4.9229,-4.9001,-4.9001,-4.9001,-4.9001,-4.9001,-4.9001,-4.9001,-4.9001,-4.8956,-4.8894,-4.9001,-4.8877,-4.8753,-4.8894,-4.8769,-4.869,-4.8894,-4.8753,-4.869,-4.8894,-4.8753,-4.8627,-4.8627,-4.8547,-4.8483,-4.8483,-4.8483,-4.8483,-4.8356,-4.8356,-4.8292,-4.8115,-4.8115,-4.8049,-4.8001,-4.8349,-4.8531,-4.8531,-4.8879,-4.9044,-4.9177,-4.8795,-4.8962,-4.9657,-5.004,-5.0405,-5.0767,-5.1549,-5.1988,-5.2074,-5.2474,-5.2624,-5.2764,-5.257,-5.2499,-5.2516,-5.2445,-5.2373,-5.2373,-3.5504,-3.5504,-3.5504,-3.5504,-3.6043,-3.6686,-3.7315,-3.7973,-3.8631,-3.9334,-3.9424,-3.9424,-3.9424,-3.9625,-3.991,-4.0207,-4.1024,-4.1771,-4.2458,-4.3136,-4.3839,-4.457,-4.4587,-4.4587,-4.4587,-4.4705,-4.5071,-4.5622,-4.6109,-4.6803,-4.7658,-4.8591,-4.894,-4.8832,-4.9063,-4.9168,-4.9168,-4.9656,-4.9913,-5.0033,-5.1105,-5.1533,-5.1429,-5.0964,-5.1087,-5.15,-5.0532,-5.0804,-5.1669,-5.2162,-5.1551,-5.0535,-5.0535,-4.9855,-4.8956,-4.8956,-4.8956,-4.8956,-4.8956,-4.9001,-4.9001,-4.9001,-4.9001,-4.9001,-4.9001,-4.9001,-4.9001,-4.9001,-4.9001,-4.9001,-4.9001,-4.8894,-4.8849,-4.8956,-4.8673,-4.8547,-4.8707,-4.8564,-4.842,-4.842,-4.842,-4.842,-4.842,-4.842,-4.8406,-4.8346,-4.8362,-4.8364,-4.8382,-4.8382,-4.8382,-4.8382,-4.8978,-4.9293,-4.9293,-4.9906,-5.027,-5.0386,-4.9858,-4.9892,-5.0419,-5.1121,-5.1453,-5.1496,-5.2233,-5.257,-5.257,-5.257,-5.257,-5.257,-5.2445,-5.2373,-5.2373,-5.2373,-5.2373,-5.2407,-3.5504,-3.5504,-3.5504,-3.5504,-3.6043,-3.6686,-3.7315,-3.7973,-3.8631,-3.9334,-3.9424,-3.9424,-3.9424,-3.9711,-3.9996,-4.0081,-4.0956,-4.1771,-4.2458,-4.3136,-4.3839,-4.457,-4.4587,-4.4587,-4.4587,-4.5213,-4.5906,-4.6633,-4.6676,-4.7436,-4.8787,-4.9462,-4.9496,-4.9001,-4.9555,-4.9774,-4.9774,-4.989,-5.0477,-5.1329,-5.1244,-5.1687,-5.2257,-5.1467,-5.1347,-5.1551,-5.1449,-5.1449,-5.1619,-5.1719,-5.0964,-4.9988,-4.9988,-4.9436,-4.8849,-4.8849,-4.8849,-4.8849,-4.8849,-4.8894,-4.9001,-4.9001,-4.9001,-4.9001,-4.9001,-4.9001,-4.9001,-4.9001,-4.9001,-4.9001,-4.9001,-4.8894,-4.8786,-4.8832,-4.8627,-4.8483,-4.8547,-4.8356,-4.8227,-4.8227,-4.8115,-4.8066,-4.8066,-4.8066,-4.8331,-4.8912,-4.8961,-4.9226,-4.9889,-4.9906,-4.9906,-4.9906,-5.0005,-5.0071,-5.0071,-5.0171,-5.0518,-5.1131,-5.1101,-5.1101,-5.1131,-5.13,-5.1698,-5.2241,-5.2412,-5.2445,-5.2445,-5.2445,-5.2445,-5.2445,-5.239,-5.2373,-5.2373,-5.2373,-5.2373,-5.2473,-3.5504,-3.5504,-3.5624,-3.5983,-3.6582,-3.7225,-3.7853,-3.8527,-3.9065,-3.9379,-3.9424,-3.9424,-3.9424,-3.9625,-4.0051,-4.0509,-4.1393,-4.2269,-4.3015,-4.3722,-4.4236,-4.4587,-4.4587,-4.4587,-4.4587,-4.5314,-4.6058,-4.6786,-4.7208,-4.8056,-4.9342,-4.9698,-4.9873,-4.9873,-5.0181,-5.0331,-5.0387,-5.0696,-5.1122,-5.1619,-5.1853,-5.218,-5.2434,-5.1687,-5.1736,-5.2096,-5.2096,-5.1884,-5.1601,-5.1601,-5.0858,-4.989,-4.989,-4.9453,-4.8894,-4.8832,-4.8786,-4.8786,-4.8627,-4.869,-4.8736,-4.8736,-4.8736,-4.8753,-4.8894,-4.8894,-4.8894,-4.9001,-4.9001,-4.8956,-4.8894,-4.8753,-4.8627,-4.8627,-4.8373,-4.8244,-4.8292,-4.8179,-4.8264,-4.8613,-4.868,-4.8779,-4.9193,-4.9243,-4.9375,-4.9707,-4.9723,-4.9872,-5.0187,-5.022,-5.022,-5.022,-5.0601,-5.08,-5.08,-5.1214,-5.1578,-5.1893,-5.1893,-5.1893,-5.1893,-5.1893,-5.2075,-5.2373,-5.2373,-5.2373,-5.2373,-5.2373,-5.2373,-5.2373,-5.2373,-5.2373,-5.2373,-5.2373,-5.2622,-5.3003]}]]